<?xml version="1.0" encoding="UTF-8" standalone="no" ?>
<gpx xmlns="http://www.topografix.com/GPX/1/1" xmlns:xsi="http://www.w3.org/2001/XMLSchema-instance" xsi:schemaLocation="http://www.topografix.com/GPX/1/1 http://www.topografix.com/GPX/1/1/gpx.xsd" version="1.1" creator="VisuGPX - https://www.visugpx.com">
  <metadata>
    <name>Balade du 02 octobre 2011</name>
    <desc><![CDATA[Temps idéal, fin d'après midi, soleil rasant et génant souvent, mais peu de circulation.]]></desc>
  </metadata>
  <trk>
    <name><![CDATA[2011-10-02 16:45]]></name>
    <trkseg>
      <trkpt lat="43.62425" lon="3.83841">
        <ele>16.48</ele>
        <time>2011-10-02T14:45:23Z</time>
      </trkpt>
      <trkpt lat="43.62426" lon="3.83803">
        <ele>74.64</ele>
        <time>2011-10-02T14:47:00Z</time>
      </trkpt>
      <trkpt lat="43.62426" lon="3.83798">
        <ele>81.37</ele>
        <time>2011-10-02T14:48:35Z</time>
      </trkpt>
      <trkpt lat="43.62431" lon="3.838">
        <ele>81.37</ele>
        <time>2011-10-02T14:48:39Z</time>
      </trkpt>
      <trkpt lat="43.62436" lon="3.83797">
        <ele>79.45</ele>
        <time>2011-10-02T14:49:02Z</time>
      </trkpt>
      <trkpt lat="43.62437" lon="3.83793">
        <ele>79.45</ele>
        <time>2011-10-02T14:49:03Z</time>
      </trkpt>
      <trkpt lat="43.62447" lon="3.83791">
        <ele>79.45</ele>
        <time>2011-10-02T14:49:06Z</time>
      </trkpt>
      <trkpt lat="43.62452" lon="3.83794">
        <ele>79.93</ele>
        <time>2011-10-02T14:49:07Z</time>
      </trkpt>
      <trkpt lat="43.62456" lon="3.83798">
        <ele>79.93</ele>
        <time>2011-10-02T14:49:08Z</time>
      </trkpt>
      <trkpt lat="43.62513" lon="3.83845">
        <ele>78.97</ele>
        <time>2011-10-02T14:49:18Z</time>
      </trkpt>
      <trkpt lat="43.62517" lon="3.83853">
        <ele>78.48</ele>
        <time>2011-10-02T14:49:19Z</time>
      </trkpt>
      <trkpt lat="43.6252" lon="3.83861">
        <ele>78.48</ele>
        <time>2011-10-02T14:49:20Z</time>
      </trkpt>
      <trkpt lat="43.62521" lon="3.8387">
        <ele>78</ele>
        <time>2011-10-02T14:49:21Z</time>
      </trkpt>
      <trkpt lat="43.62523" lon="3.83879">
        <ele>77.52</ele>
        <time>2011-10-02T14:49:22Z</time>
      </trkpt>
      <trkpt lat="43.62523" lon="3.83888">
        <ele>77.04</ele>
        <time>2011-10-02T14:49:23Z</time>
      </trkpt>
      <trkpt lat="43.62523" lon="3.83895">
        <ele>77.04</ele>
        <time>2011-10-02T14:49:24Z</time>
      </trkpt>
      <trkpt lat="43.62523" lon="3.83902">
        <ele>76.56</ele>
        <time>2011-10-02T14:49:25Z</time>
      </trkpt>
      <trkpt lat="43.62526" lon="3.83906">
        <ele>76.56</ele>
        <time>2011-10-02T14:49:26Z</time>
      </trkpt>
      <trkpt lat="43.6253" lon="3.83908">
        <ele>76.56</ele>
        <time>2011-10-02T14:49:27Z</time>
      </trkpt>
      <trkpt lat="43.62535" lon="3.83905">
        <ele>76.56</ele>
        <time>2011-10-02T14:49:28Z</time>
      </trkpt>
      <trkpt lat="43.62541" lon="3.83901">
        <ele>76.56</ele>
        <time>2011-10-02T14:49:29Z</time>
      </trkpt>
      <trkpt lat="43.62547" lon="3.83897">
        <ele>76.08</ele>
        <time>2011-10-02T14:49:30Z</time>
      </trkpt>
      <trkpt lat="43.62554" lon="3.83894">
        <ele>75.6</ele>
        <time>2011-10-02T14:49:31Z</time>
      </trkpt>
      <trkpt lat="43.62562" lon="3.83891">
        <ele>74.64</ele>
        <time>2011-10-02T14:49:32Z</time>
      </trkpt>
      <trkpt lat="43.62577" lon="3.83887">
        <ele>72.24</ele>
        <time>2011-10-02T14:49:34Z</time>
      </trkpt>
      <trkpt lat="43.62585" lon="3.83887">
        <ele>71.76</ele>
        <time>2011-10-02T14:49:35Z</time>
      </trkpt>
      <trkpt lat="43.62594" lon="3.83889">
        <ele>71.76</ele>
        <time>2011-10-02T14:49:36Z</time>
      </trkpt>
      <trkpt lat="43.62611" lon="3.83894">
        <ele>70.79</ele>
        <time>2011-10-02T14:49:38Z</time>
      </trkpt>
      <trkpt lat="43.62619" lon="3.83893">
        <ele>70.79</ele>
        <time>2011-10-02T14:49:39Z</time>
      </trkpt>
      <trkpt lat="43.62628" lon="3.8389">
        <ele>70.79</ele>
        <time>2011-10-02T14:49:40Z</time>
      </trkpt>
      <trkpt lat="43.62636" lon="3.83886">
        <ele>70.31</ele>
        <time>2011-10-02T14:49:41Z</time>
      </trkpt>
      <trkpt lat="43.62645" lon="3.83885">
        <ele>70.31</ele>
        <time>2011-10-02T14:49:42Z</time>
      </trkpt>
      <trkpt lat="43.62653" lon="3.83887">
        <ele>69.83</ele>
        <time>2011-10-02T14:49:43Z</time>
      </trkpt>
      <trkpt lat="43.62662" lon="3.83894">
        <ele>69.83</ele>
        <time>2011-10-02T14:49:44Z</time>
      </trkpt>
      <trkpt lat="43.62669" lon="3.83903">
        <ele>69.35</ele>
        <time>2011-10-02T14:49:45Z</time>
      </trkpt>
      <trkpt lat="43.62677" lon="3.83913">
        <ele>68.87</ele>
        <time>2011-10-02T14:49:46Z</time>
      </trkpt>
      <trkpt lat="43.62768" lon="3.84033">
        <ele>65.51</ele>
        <time>2011-10-02T14:49:56Z</time>
      </trkpt>
      <trkpt lat="43.62904" lon="3.84152">
        <ele>62.14</ele>
        <time>2011-10-02T14:50:07Z</time>
      </trkpt>
      <trkpt lat="43.63001" lon="3.84193">
        <ele>61.18</ele>
        <time>2011-10-02T14:50:15Z</time>
      </trkpt>
      <trkpt lat="43.63059" lon="3.84216">
        <ele>60.7</ele>
        <time>2011-10-02T14:50:22Z</time>
      </trkpt>
      <trkpt lat="43.63065" lon="3.84221">
        <ele>60.7</ele>
        <time>2011-10-02T14:50:23Z</time>
      </trkpt>
      <trkpt lat="43.6307" lon="3.84228">
        <ele>60.7</ele>
        <time>2011-10-02T14:50:24Z</time>
      </trkpt>
      <trkpt lat="43.63075" lon="3.84237">
        <ele>60.7</ele>
        <time>2011-10-02T14:50:25Z</time>
      </trkpt>
      <trkpt lat="43.63078" lon="3.84247">
        <ele>60.22</ele>
        <time>2011-10-02T14:50:26Z</time>
      </trkpt>
      <trkpt lat="43.63083" lon="3.84259">
        <ele>59.74</ele>
        <time>2011-10-02T14:50:27Z</time>
      </trkpt>
      <trkpt lat="43.63089" lon="3.84269">
        <ele>59.74</ele>
        <time>2011-10-02T14:50:28Z</time>
      </trkpt>
      <trkpt lat="43.63097" lon="3.84278">
        <ele>59.74</ele>
        <time>2011-10-02T14:50:29Z</time>
      </trkpt>
      <trkpt lat="43.63106" lon="3.84284">
        <ele>59.26</ele>
        <time>2011-10-02T14:50:30Z</time>
      </trkpt>
      <trkpt lat="43.63116" lon="3.84288">
        <ele>59.26</ele>
        <time>2011-10-02T14:50:31Z</time>
      </trkpt>
      <trkpt lat="43.63126" lon="3.84289">
        <ele>59.26</ele>
        <time>2011-10-02T14:50:32Z</time>
      </trkpt>
      <trkpt lat="43.63136" lon="3.84287">
        <ele>59.26</ele>
        <time>2011-10-02T14:50:33Z</time>
      </trkpt>
      <trkpt lat="43.63145" lon="3.84283">
        <ele>59.26</ele>
        <time>2011-10-02T14:50:34Z</time>
      </trkpt>
      <trkpt lat="43.63155" lon="3.84278">
        <ele>59.26</ele>
        <time>2011-10-02T14:50:35Z</time>
      </trkpt>
      <trkpt lat="43.63164" lon="3.84275">
        <ele>59.26</ele>
        <time>2011-10-02T14:50:36Z</time>
      </trkpt>
      <trkpt lat="43.63175" lon="3.84273">
        <ele>59.26</ele>
        <time>2011-10-02T14:50:37Z</time>
      </trkpt>
      <trkpt lat="43.63185" lon="3.84274">
        <ele>59.26</ele>
        <time>2011-10-02T14:50:38Z</time>
      </trkpt>
      <trkpt lat="43.63196" lon="3.84277">
        <ele>59.26</ele>
        <time>2011-10-02T14:50:39Z</time>
      </trkpt>
      <trkpt lat="43.63207" lon="3.84281">
        <ele>59.26</ele>
        <time>2011-10-02T14:50:40Z</time>
      </trkpt>
      <trkpt lat="43.63354" lon="3.84327">
        <ele>60.22</ele>
        <time>2011-10-02T14:50:52Z</time>
      </trkpt>
      <trkpt lat="43.63517" lon="3.84401">
        <ele>58.3</ele>
        <time>2011-10-02T14:51:05Z</time>
      </trkpt>
      <trkpt lat="43.63665" lon="3.84487">
        <ele>58.78</ele>
        <time>2011-10-02T14:51:18Z</time>
      </trkpt>
      <trkpt lat="43.6378" lon="3.84595">
        <ele>60.7</ele>
        <time>2011-10-02T14:51:30Z</time>
      </trkpt>
      <trkpt lat="43.63834" lon="3.84655">
        <ele>61.18</ele>
        <time>2011-10-02T14:51:37Z</time>
      </trkpt>
      <trkpt lat="43.63837" lon="3.84661">
        <ele>61.18</ele>
        <time>2011-10-02T14:51:38Z</time>
      </trkpt>
      <trkpt lat="43.63839" lon="3.84666">
        <ele>61.18</ele>
        <time>2011-10-02T14:51:39Z</time>
      </trkpt>
      <trkpt lat="43.63841" lon="3.84672">
        <ele>61.66</ele>
        <time>2011-10-02T14:51:40Z</time>
      </trkpt>
      <trkpt lat="43.63843" lon="3.8468">
        <ele>61.66</ele>
        <time>2011-10-02T14:51:41Z</time>
      </trkpt>
      <trkpt lat="43.6385" lon="3.84715">
        <ele>62.62</ele>
        <time>2011-10-02T14:51:49Z</time>
      </trkpt>
      <trkpt lat="43.63853" lon="3.84752">
        <ele>60.7</ele>
        <time>2011-10-02T14:52:55Z</time>
      </trkpt>
      <trkpt lat="43.63887" lon="3.84912">
        <ele>67.91</ele>
        <time>2011-10-02T14:53:06Z</time>
      </trkpt>
      <trkpt lat="43.63889" lon="3.8505">
        <ele>75.12</ele>
        <time>2011-10-02T14:53:14Z</time>
      </trkpt>
      <trkpt lat="43.63894" lon="3.85194">
        <ele>78.97</ele>
        <time>2011-10-02T14:53:22Z</time>
      </trkpt>
      <trkpt lat="43.63916" lon="3.85383">
        <ele>82.33</ele>
        <time>2011-10-02T14:53:34Z</time>
      </trkpt>
      <trkpt lat="43.63905" lon="3.85546">
        <ele>81.37</ele>
        <time>2011-10-02T14:53:44Z</time>
      </trkpt>
      <trkpt lat="43.63856" lon="3.85678">
        <ele>77.04</ele>
        <time>2011-10-02T14:53:53Z</time>
      </trkpt>
      <trkpt lat="43.63771" lon="3.85886">
        <ele>69.83</ele>
        <time>2011-10-02T14:54:09Z</time>
      </trkpt>
      <trkpt lat="43.63769" lon="3.859">
        <ele>69.35</ele>
        <time>2011-10-02T14:54:10Z</time>
      </trkpt>
      <trkpt lat="43.63767" lon="3.85913">
        <ele>68.87</ele>
        <time>2011-10-02T14:54:11Z</time>
      </trkpt>
      <trkpt lat="43.63764" lon="3.85957">
        <ele>66.95</ele>
        <time>2011-10-02T14:54:17Z</time>
      </trkpt>
      <trkpt lat="43.63759" lon="3.85966">
        <ele>66.95</ele>
        <time>2011-10-02T14:54:25Z</time>
      </trkpt>
      <trkpt lat="43.63753" lon="3.8597">
        <ele>66.47</ele>
        <time>2011-10-02T14:54:26Z</time>
      </trkpt>
      <trkpt lat="43.63722" lon="3.8599">
        <ele>67.43</ele>
        <time>2011-10-02T14:54:31Z</time>
      </trkpt>
      <trkpt lat="43.63717" lon="3.85992">
        <ele>67.91</ele>
        <time>2011-10-02T14:54:32Z</time>
      </trkpt>
      <trkpt lat="43.63713" lon="3.85994">
        <ele>67.91</ele>
        <time>2011-10-02T14:54:33Z</time>
      </trkpt>
      <trkpt lat="43.63709" lon="3.85998">
        <ele>68.39</ele>
        <time>2011-10-02T14:54:34Z</time>
      </trkpt>
      <trkpt lat="43.63708" lon="3.86003">
        <ele>68.39</ele>
        <time>2011-10-02T14:54:35Z</time>
      </trkpt>
      <trkpt lat="43.63706" lon="3.86009">
        <ele>68.39</ele>
        <time>2011-10-02T14:54:36Z</time>
      </trkpt>
      <trkpt lat="43.63703" lon="3.86017">
        <ele>68.39</ele>
        <time>2011-10-02T14:54:37Z</time>
      </trkpt>
      <trkpt lat="43.63698" lon="3.86025">
        <ele>68.39</ele>
        <time>2011-10-02T14:54:38Z</time>
      </trkpt>
      <trkpt lat="43.63693" lon="3.86033">
        <ele>68.39</ele>
        <time>2011-10-02T14:54:39Z</time>
      </trkpt>
      <trkpt lat="43.63612" lon="3.86124">
        <ele>65.03</ele>
        <time>2011-10-02T14:54:49Z</time>
      </trkpt>
      <trkpt lat="43.63515" lon="3.86196">
        <ele>59.74</ele>
        <time>2011-10-02T14:54:59Z</time>
      </trkpt>
      <trkpt lat="43.63455" lon="3.86256">
        <ele>55.89</ele>
        <time>2011-10-02T14:55:07Z</time>
      </trkpt>
      <trkpt lat="43.63408" lon="3.86325">
        <ele>54.45</ele>
        <time>2011-10-02T14:55:13Z</time>
      </trkpt>
      <trkpt lat="43.63402" lon="3.86339">
        <ele>54.93</ele>
        <time>2011-10-02T14:55:14Z</time>
      </trkpt>
      <trkpt lat="43.63397" lon="3.86354">
        <ele>54.93</ele>
        <time>2011-10-02T14:55:15Z</time>
      </trkpt>
      <trkpt lat="43.63395" lon="3.86369">
        <ele>54.93</ele>
        <time>2011-10-02T14:55:16Z</time>
      </trkpt>
      <trkpt lat="43.63394" lon="3.86385">
        <ele>54.93</ele>
        <time>2011-10-02T14:55:17Z</time>
      </trkpt>
      <trkpt lat="43.63395" lon="3.86401">
        <ele>54.93</ele>
        <time>2011-10-02T14:55:18Z</time>
      </trkpt>
      <trkpt lat="43.63398" lon="3.86417">
        <ele>55.41</ele>
        <time>2011-10-02T14:55:19Z</time>
      </trkpt>
      <trkpt lat="43.63402" lon="3.86432">
        <ele>55.89</ele>
        <time>2011-10-02T14:55:20Z</time>
      </trkpt>
      <trkpt lat="43.63406" lon="3.86448">
        <ele>55.89</ele>
        <time>2011-10-02T14:55:21Z</time>
      </trkpt>
      <trkpt lat="43.63471" lon="3.86727">
        <ele>61.18</ele>
        <time>2011-10-02T14:55:38Z</time>
      </trkpt>
      <trkpt lat="43.6347" lon="3.86788">
        <ele>63.1</ele>
        <time>2011-10-02T14:55:43Z</time>
      </trkpt>
      <trkpt lat="43.63468" lon="3.86797">
        <ele>63.58</ele>
        <time>2011-10-02T14:55:44Z</time>
      </trkpt>
      <trkpt lat="43.63465" lon="3.86805">
        <ele>63.58</ele>
        <time>2011-10-02T14:55:45Z</time>
      </trkpt>
      <trkpt lat="43.63461" lon="3.86809">
        <ele>64.07</ele>
        <time>2011-10-02T14:55:46Z</time>
      </trkpt>
      <trkpt lat="43.63454" lon="3.86813">
        <ele>64.55</ele>
        <time>2011-10-02T14:55:47Z</time>
      </trkpt>
      <trkpt lat="43.63446" lon="3.86815">
        <ele>64.55</ele>
        <time>2011-10-02T14:55:48Z</time>
      </trkpt>
      <trkpt lat="43.63438" lon="3.86816">
        <ele>65.03</ele>
        <time>2011-10-02T14:55:49Z</time>
      </trkpt>
      <trkpt lat="43.63428" lon="3.86814">
        <ele>65.03</ele>
        <time>2011-10-02T14:55:50Z</time>
      </trkpt>
      <trkpt lat="43.63419" lon="3.86812">
        <ele>64.55</ele>
        <time>2011-10-02T14:55:51Z</time>
      </trkpt>
      <trkpt lat="43.63291" lon="3.868">
        <ele>62.14</ele>
        <time>2011-10-02T14:56:02Z</time>
      </trkpt>
      <trkpt lat="43.63181" lon="3.86854">
        <ele>58.78</ele>
        <time>2011-10-02T14:56:11Z</time>
      </trkpt>
      <trkpt lat="43.63077" lon="3.86931">
        <ele>54.93</ele>
        <time>2011-10-02T14:56:22Z</time>
      </trkpt>
      <trkpt lat="43.63047" lon="3.86953">
        <ele>52.53</ele>
        <time>2011-10-02T14:56:29Z</time>
      </trkpt>
      <trkpt lat="43.63038" lon="3.8696">
        <ele>50.61</ele>
        <time>2011-10-02T14:56:39Z</time>
      </trkpt>
      <trkpt lat="43.62991" lon="3.86996">
        <ele>48.68</ele>
        <time>2011-10-02T14:56:47Z</time>
      </trkpt>
      <trkpt lat="43.62976" lon="3.87003">
        <ele>48.2</ele>
        <time>2011-10-02T14:56:50Z</time>
      </trkpt>
      <trkpt lat="43.62972" lon="3.87003">
        <ele>48.2</ele>
        <time>2011-10-02T14:56:51Z</time>
      </trkpt>
      <trkpt lat="43.62963" lon="3.87005">
        <ele>48.2</ele>
        <time>2011-10-02T14:56:53Z</time>
      </trkpt>
      <trkpt lat="43.62958" lon="3.87009">
        <ele>48.2</ele>
        <time>2011-10-02T14:56:54Z</time>
      </trkpt>
      <trkpt lat="43.62956" lon="3.87014">
        <ele>47.72</ele>
        <time>2011-10-02T14:56:55Z</time>
      </trkpt>
      <trkpt lat="43.62955" lon="3.87021">
        <ele>47.24</ele>
        <time>2011-10-02T14:56:56Z</time>
      </trkpt>
      <trkpt lat="43.62953" lon="3.87028">
        <ele>47.24</ele>
        <time>2011-10-02T14:56:57Z</time>
      </trkpt>
      <trkpt lat="43.62951" lon="3.87037">
        <ele>47.24</ele>
        <time>2011-10-02T14:56:58Z</time>
      </trkpt>
      <trkpt lat="43.62948" lon="3.87047">
        <ele>47.24</ele>
        <time>2011-10-02T14:56:59Z</time>
      </trkpt>
      <trkpt lat="43.62933" lon="3.87162">
        <ele>46.28</ele>
        <time>2011-10-02T14:57:10Z</time>
      </trkpt>
      <trkpt lat="43.6292" lon="3.87251">
        <ele>45.32</ele>
        <time>2011-10-02T14:57:20Z</time>
      </trkpt>
      <trkpt lat="43.62922" lon="3.87254">
        <ele>45.32</ele>
        <time>2011-10-02T14:57:21Z</time>
      </trkpt>
      <trkpt lat="43.62926" lon="3.87256">
        <ele>45.8</ele>
        <time>2011-10-02T14:57:22Z</time>
      </trkpt>
      <trkpt lat="43.62974" lon="3.87287">
        <ele>49.65</ele>
        <time>2011-10-02T14:57:31Z</time>
      </trkpt>
      <trkpt lat="43.63029" lon="3.87328">
        <ele>58.78</ele>
        <time>2011-10-02T14:57:43Z</time>
      </trkpt>
      <trkpt lat="43.63039" lon="3.87339">
        <ele>60.22</ele>
        <time>2011-10-02T14:57:48Z</time>
      </trkpt>
      <trkpt lat="43.63041" lon="3.8734">
        <ele>58.3</ele>
        <time>2011-10-02T14:58:04Z</time>
      </trkpt>
      <trkpt lat="43.63039" lon="3.87336">
        <ele>58.3</ele>
        <time>2011-10-02T14:59:45Z</time>
      </trkpt>
      <trkpt lat="43.63038" lon="3.87335">
        <ele>58.3</ele>
        <time>2011-10-02T14:59:46Z</time>
      </trkpt>
      <trkpt lat="43.63037" lon="3.87333">
        <ele>58.3</ele>
        <time>2011-10-02T14:59:47Z</time>
      </trkpt>
      <trkpt lat="43.63035" lon="3.87332">
        <ele>58.3</ele>
        <time>2011-10-02T14:59:48Z</time>
      </trkpt>
      <trkpt lat="43.63033" lon="3.8733">
        <ele>57.82</ele>
        <time>2011-10-02T14:59:49Z</time>
      </trkpt>
      <trkpt lat="43.63029" lon="3.87327">
        <ele>57.82</ele>
        <time>2011-10-02T14:59:50Z</time>
      </trkpt>
      <trkpt lat="43.63024" lon="3.87323">
        <ele>57.82</ele>
        <time>2011-10-02T14:59:51Z</time>
      </trkpt>
      <trkpt lat="43.63019" lon="3.87319">
        <ele>58.3</ele>
        <time>2011-10-02T14:59:52Z</time>
      </trkpt>
      <trkpt lat="43.62953" lon="3.87274">
        <ele>56.37</ele>
        <time>2011-10-02T15:00:02Z</time>
      </trkpt>
      <trkpt lat="43.62922" lon="3.8725">
        <ele>53.97</ele>
        <time>2011-10-02T15:00:10Z</time>
      </trkpt>
      <trkpt lat="43.62923" lon="3.87251">
        <ele>53.49</ele>
        <time>2011-10-02T15:01:00Z</time>
      </trkpt>
      <trkpt lat="43.6292" lon="3.87248">
        <ele>53.97</ele>
        <time>2011-10-02T15:01:43Z</time>
      </trkpt>
      <trkpt lat="43.6292" lon="3.87244">
        <ele>53.97</ele>
        <time>2011-10-02T15:01:44Z</time>
      </trkpt>
      <trkpt lat="43.62921" lon="3.87238">
        <ele>53.49</ele>
        <time>2011-10-02T15:01:45Z</time>
      </trkpt>
      <trkpt lat="43.62939" lon="3.87149">
        <ele>52.53</ele>
        <time>2011-10-02T15:01:51Z</time>
      </trkpt>
      <trkpt lat="43.62953" lon="3.87039">
        <ele>50.13</ele>
        <time>2011-10-02T15:02:00Z</time>
      </trkpt>
      <trkpt lat="43.62956" lon="3.87035">
        <ele>50.13</ele>
        <time>2011-10-02T15:02:01Z</time>
      </trkpt>
      <trkpt lat="43.62961" lon="3.87033">
        <ele>50.13</ele>
        <time>2011-10-02T15:02:02Z</time>
      </trkpt>
      <trkpt lat="43.62966" lon="3.87033">
        <ele>49.65</ele>
        <time>2011-10-02T15:02:03Z</time>
      </trkpt>
      <trkpt lat="43.62972" lon="3.87033">
        <ele>49.65</ele>
        <time>2011-10-02T15:02:04Z</time>
      </trkpt>
      <trkpt lat="43.62978" lon="3.87032">
        <ele>49.65</ele>
        <time>2011-10-02T15:02:05Z</time>
      </trkpt>
      <trkpt lat="43.62983" lon="3.87028">
        <ele>49.16</ele>
        <time>2011-10-02T15:02:06Z</time>
      </trkpt>
      <trkpt lat="43.62987" lon="3.87024">
        <ele>49.16</ele>
        <time>2011-10-02T15:02:07Z</time>
      </trkpt>
      <trkpt lat="43.62989" lon="3.8702">
        <ele>49.16</ele>
        <time>2011-10-02T15:02:08Z</time>
      </trkpt>
      <trkpt lat="43.6299" lon="3.87018">
        <ele>49.16</ele>
        <time>2011-10-02T15:02:09Z</time>
      </trkpt>
      <trkpt lat="43.6299" lon="3.87017">
        <ele>47.72</ele>
        <time>2011-10-02T15:02:25Z</time>
      </trkpt>
      <trkpt lat="43.62997" lon="3.87007">
        <ele>47.24</ele>
        <time>2011-10-02T15:03:25Z</time>
      </trkpt>
      <trkpt lat="43.63001" lon="3.87004">
        <ele>47.72</ele>
        <time>2011-10-02T15:03:26Z</time>
      </trkpt>
      <trkpt lat="43.63017" lon="3.8699">
        <ele>48.2</ele>
        <time>2011-10-02T15:03:35Z</time>
      </trkpt>
      <trkpt lat="43.63039" lon="3.86973">
        <ele>48.2</ele>
        <time>2011-10-02T15:03:55Z</time>
      </trkpt>
      <trkpt lat="43.6312" lon="3.86907">
        <ele>50.61</ele>
        <time>2011-10-02T15:04:01Z</time>
      </trkpt>
      <trkpt lat="43.63249" lon="3.8682">
        <ele>54.93</ele>
        <time>2011-10-02T15:04:12Z</time>
      </trkpt>
      <trkpt lat="43.63363" lon="3.86804">
        <ele>60.22</ele>
        <time>2011-10-02T15:04:21Z</time>
      </trkpt>
      <trkpt lat="43.63452" lon="3.86821">
        <ele>61.18</ele>
        <time>2011-10-02T15:04:29Z</time>
      </trkpt>
      <trkpt lat="43.6346" lon="3.8682">
        <ele>61.66</ele>
        <time>2011-10-02T15:04:30Z</time>
      </trkpt>
      <trkpt lat="43.63468" lon="3.86819">
        <ele>61.66</ele>
        <time>2011-10-02T15:04:31Z</time>
      </trkpt>
      <trkpt lat="43.63477" lon="3.86821">
        <ele>61.66</ele>
        <time>2011-10-02T15:04:32Z</time>
      </trkpt>
      <trkpt lat="43.63486" lon="3.86824">
        <ele>61.18</ele>
        <time>2011-10-02T15:04:33Z</time>
      </trkpt>
      <trkpt lat="43.63497" lon="3.86828">
        <ele>60.7</ele>
        <time>2011-10-02T15:04:34Z</time>
      </trkpt>
      <trkpt lat="43.63508" lon="3.86831">
        <ele>60.7</ele>
        <time>2011-10-02T15:04:35Z</time>
      </trkpt>
      <trkpt lat="43.63518" lon="3.86833">
        <ele>60.22</ele>
        <time>2011-10-02T15:04:36Z</time>
      </trkpt>
      <trkpt lat="43.63557" lon="3.86839">
        <ele>60.22</ele>
        <time>2011-10-02T15:04:40Z</time>
      </trkpt>
      <trkpt lat="43.63567" lon="3.86837">
        <ele>60.22</ele>
        <time>2011-10-02T15:04:41Z</time>
      </trkpt>
      <trkpt lat="43.63576" lon="3.86832">
        <ele>59.74</ele>
        <time>2011-10-02T15:04:42Z</time>
      </trkpt>
      <trkpt lat="43.63584" lon="3.86821">
        <ele>59.74</ele>
        <time>2011-10-02T15:04:43Z</time>
      </trkpt>
      <trkpt lat="43.63594" lon="3.86809">
        <ele>59.74</ele>
        <time>2011-10-02T15:04:44Z</time>
      </trkpt>
      <trkpt lat="43.63711" lon="3.86699">
        <ele>58.78</ele>
        <time>2011-10-02T15:04:54Z</time>
      </trkpt>
      <trkpt lat="43.63886" lon="3.86541">
        <ele>65.99</ele>
        <time>2011-10-02T15:05:09Z</time>
      </trkpt>
      <trkpt lat="43.64059" lon="3.86386">
        <ele>75.12</ele>
        <time>2011-10-02T15:05:24Z</time>
      </trkpt>
      <trkpt lat="43.64104" lon="3.86347">
        <ele>77.52</ele>
        <time>2011-10-02T15:05:29Z</time>
      </trkpt>
      <trkpt lat="43.64116" lon="3.86338">
        <ele>78</ele>
        <time>2011-10-02T15:05:31Z</time>
      </trkpt>
      <trkpt lat="43.6412" lon="3.86331">
        <ele>78.48</ele>
        <time>2011-10-02T15:05:32Z</time>
      </trkpt>
      <trkpt lat="43.64122" lon="3.8632">
        <ele>78.97</ele>
        <time>2011-10-02T15:05:33Z</time>
      </trkpt>
      <trkpt lat="43.6413" lon="3.86272">
        <ele>79.45</ele>
        <time>2011-10-02T15:05:36Z</time>
      </trkpt>
      <trkpt lat="43.64132" lon="3.86255">
        <ele>79.45</ele>
        <time>2011-10-02T15:05:37Z</time>
      </trkpt>
      <trkpt lat="43.64135" lon="3.86238">
        <ele>78.97</ele>
        <time>2011-10-02T15:05:38Z</time>
      </trkpt>
      <trkpt lat="43.64139" lon="3.86222">
        <ele>78.48</ele>
        <time>2011-10-02T15:05:39Z</time>
      </trkpt>
      <trkpt lat="43.64146" lon="3.86209">
        <ele>78</ele>
        <time>2011-10-02T15:05:40Z</time>
      </trkpt>
      <trkpt lat="43.64155" lon="3.86197">
        <ele>77.52</ele>
        <time>2011-10-02T15:05:41Z</time>
      </trkpt>
      <trkpt lat="43.64166" lon="3.86185">
        <ele>77.04</ele>
        <time>2011-10-02T15:05:42Z</time>
      </trkpt>
      <trkpt lat="43.6418" lon="3.86175">
        <ele>76.56</ele>
        <time>2011-10-02T15:05:43Z</time>
      </trkpt>
      <trkpt lat="43.64195" lon="3.86164">
        <ele>75.6</ele>
        <time>2011-10-02T15:05:44Z</time>
      </trkpt>
      <trkpt lat="43.64211" lon="3.86154">
        <ele>75.12</ele>
        <time>2011-10-02T15:05:45Z</time>
      </trkpt>
      <trkpt lat="43.64314" lon="3.86083">
        <ele>70.31</ele>
        <time>2011-10-02T15:05:53Z</time>
      </trkpt>
      <trkpt lat="43.64347" lon="3.86058">
        <ele>67.91</ele>
        <time>2011-10-02T15:05:57Z</time>
      </trkpt>
      <trkpt lat="43.64352" lon="3.86054">
        <ele>67.91</ele>
        <time>2011-10-02T15:05:58Z</time>
      </trkpt>
      <trkpt lat="43.64356" lon="3.86049">
        <ele>67.43</ele>
        <time>2011-10-02T15:05:59Z</time>
      </trkpt>
      <trkpt lat="43.64356" lon="3.86043">
        <ele>67.43</ele>
        <time>2011-10-02T15:06:00Z</time>
      </trkpt>
      <trkpt lat="43.64354" lon="3.86037">
        <ele>67.43</ele>
        <time>2011-10-02T15:06:01Z</time>
      </trkpt>
      <trkpt lat="43.6435" lon="3.8603">
        <ele>66.95</ele>
        <time>2011-10-02T15:06:02Z</time>
      </trkpt>
      <trkpt lat="43.64342" lon="3.86021">
        <ele>66.95</ele>
        <time>2011-10-02T15:06:03Z</time>
      </trkpt>
      <trkpt lat="43.6433" lon="3.8601">
        <ele>67.43</ele>
        <time>2011-10-02T15:06:04Z</time>
      </trkpt>
      <trkpt lat="43.64221" lon="3.8591">
        <ele>68.39</ele>
        <time>2011-10-02T15:06:14Z</time>
      </trkpt>
      <trkpt lat="43.64119" lon="3.85818">
        <ele>74.16</ele>
        <time>2011-10-02T15:06:24Z</time>
      </trkpt>
      <trkpt lat="43.64101" lon="3.85808">
        <ele>75.6</ele>
        <time>2011-10-02T15:06:26Z</time>
      </trkpt>
      <trkpt lat="43.64094" lon="3.85801">
        <ele>76.08</ele>
        <time>2011-10-02T15:06:27Z</time>
      </trkpt>
      <trkpt lat="43.64088" lon="3.85793">
        <ele>76.56</ele>
        <time>2011-10-02T15:06:28Z</time>
      </trkpt>
      <trkpt lat="43.64083" lon="3.85784">
        <ele>77.52</ele>
        <time>2011-10-02T15:06:29Z</time>
      </trkpt>
      <trkpt lat="43.64079" lon="3.85772">
        <ele>78</ele>
        <time>2011-10-02T15:06:30Z</time>
      </trkpt>
      <trkpt lat="43.64075" lon="3.8576">
        <ele>78.48</ele>
        <time>2011-10-02T15:06:31Z</time>
      </trkpt>
      <trkpt lat="43.64071" lon="3.85748">
        <ele>78.97</ele>
        <time>2011-10-02T15:06:32Z</time>
      </trkpt>
      <trkpt lat="43.64068" lon="3.85736">
        <ele>79.93</ele>
        <time>2011-10-02T15:06:33Z</time>
      </trkpt>
      <trkpt lat="43.64066" lon="3.85722">
        <ele>80.41</ele>
        <time>2011-10-02T15:06:34Z</time>
      </trkpt>
      <trkpt lat="43.6402" lon="3.85564">
        <ele>78</ele>
        <time>2011-10-02T15:06:45Z</time>
      </trkpt>
      <trkpt lat="43.63936" lon="3.85397">
        <ele>75.12</ele>
        <time>2011-10-02T15:06:58Z</time>
      </trkpt>
      <trkpt lat="43.63925" lon="3.85372">
        <ele>75.6</ele>
        <time>2011-10-02T15:07:00Z</time>
      </trkpt>
      <trkpt lat="43.6392" lon="3.85357">
        <ele>75.6</ele>
        <time>2011-10-02T15:07:01Z</time>
      </trkpt>
      <trkpt lat="43.63916" lon="3.85341">
        <ele>75.12</ele>
        <time>2011-10-02T15:07:02Z</time>
      </trkpt>
      <trkpt lat="43.63913" lon="3.85323">
        <ele>75.12</ele>
        <time>2011-10-02T15:07:03Z</time>
      </trkpt>
      <trkpt lat="43.6391" lon="3.85305">
        <ele>74.64</ele>
        <time>2011-10-02T15:07:04Z</time>
      </trkpt>
      <trkpt lat="43.63889" lon="3.85109">
        <ele>71.76</ele>
        <time>2011-10-02T15:07:15Z</time>
      </trkpt>
      <trkpt lat="43.63894" lon="3.84947">
        <ele>65.99</ele>
        <time>2011-10-02T15:07:24Z</time>
      </trkpt>
      <trkpt lat="43.63874" lon="3.84797">
        <ele>56.86</ele>
        <time>2011-10-02T15:07:33Z</time>
      </trkpt>
      <trkpt lat="43.63874" lon="3.84786">
        <ele>56.37</ele>
        <time>2011-10-02T15:07:34Z</time>
      </trkpt>
      <trkpt lat="43.63874" lon="3.84777">
        <ele>55.41</ele>
        <time>2011-10-02T15:07:35Z</time>
      </trkpt>
      <trkpt lat="43.63876" lon="3.8477">
        <ele>54.93</ele>
        <time>2011-10-02T15:07:36Z</time>
      </trkpt>
      <trkpt lat="43.63877" lon="3.84766">
        <ele>54.45</ele>
        <time>2011-10-02T15:07:37Z</time>
      </trkpt>
      <trkpt lat="43.63878" lon="3.84762">
        <ele>53.97</ele>
        <time>2011-10-02T15:07:38Z</time>
      </trkpt>
      <trkpt lat="43.63879" lon="3.8476">
        <ele>53.97</ele>
        <time>2011-10-02T15:07:39Z</time>
      </trkpt>
      <trkpt lat="43.63884" lon="3.84757">
        <ele>53.49</ele>
        <time>2011-10-02T15:07:50Z</time>
      </trkpt>
      <trkpt lat="43.6389" lon="3.84753">
        <ele>53.97</ele>
        <time>2011-10-02T15:07:51Z</time>
      </trkpt>
      <trkpt lat="43.63898" lon="3.8475">
        <ele>53.97</ele>
        <time>2011-10-02T15:07:52Z</time>
      </trkpt>
      <trkpt lat="43.63908" lon="3.84748">
        <ele>53.97</ele>
        <time>2011-10-02T15:07:53Z</time>
      </trkpt>
      <trkpt lat="43.63919" lon="3.84748">
        <ele>54.45</ele>
        <time>2011-10-02T15:07:54Z</time>
      </trkpt>
      <trkpt lat="43.63932" lon="3.84748">
        <ele>54.93</ele>
        <time>2011-10-02T15:07:55Z</time>
      </trkpt>
      <trkpt lat="43.64016" lon="3.84753">
        <ele>57.82</ele>
        <time>2011-10-02T15:08:01Z</time>
      </trkpt>
      <trkpt lat="43.64045" lon="3.84757">
        <ele>59.26</ele>
        <time>2011-10-02T15:08:04Z</time>
      </trkpt>
      <trkpt lat="43.64054" lon="3.84761">
        <ele>59.26</ele>
        <time>2011-10-02T15:08:05Z</time>
      </trkpt>
      <trkpt lat="43.64073" lon="3.84771">
        <ele>60.22</ele>
        <time>2011-10-02T15:08:07Z</time>
      </trkpt>
      <trkpt lat="43.64083" lon="3.84773">
        <ele>60.22</ele>
        <time>2011-10-02T15:08:08Z</time>
      </trkpt>
      <trkpt lat="43.64093" lon="3.84771">
        <ele>60.7</ele>
        <time>2011-10-02T15:08:09Z</time>
      </trkpt>
      <trkpt lat="43.64103" lon="3.84767">
        <ele>60.7</ele>
        <time>2011-10-02T15:08:10Z</time>
      </trkpt>
      <trkpt lat="43.64115" lon="3.84763">
        <ele>60.7</ele>
        <time>2011-10-02T15:08:11Z</time>
      </trkpt>
      <trkpt lat="43.64127" lon="3.84761">
        <ele>60.7</ele>
        <time>2011-10-02T15:08:12Z</time>
      </trkpt>
      <trkpt lat="43.64141" lon="3.84762">
        <ele>60.7</ele>
        <time>2011-10-02T15:08:13Z</time>
      </trkpt>
      <trkpt lat="43.64206" lon="3.84764">
        <ele>60.7</ele>
        <time>2011-10-02T15:08:17Z</time>
      </trkpt>
      <trkpt lat="43.64221" lon="3.84769">
        <ele>61.18</ele>
        <time>2011-10-02T15:08:18Z</time>
      </trkpt>
      <trkpt lat="43.64236" lon="3.84776">
        <ele>62.14</ele>
        <time>2011-10-02T15:08:19Z</time>
      </trkpt>
      <trkpt lat="43.6425" lon="3.84785">
        <ele>62.62</ele>
        <time>2011-10-02T15:08:20Z</time>
      </trkpt>
      <trkpt lat="43.64263" lon="3.84797">
        <ele>64.07</ele>
        <time>2011-10-02T15:08:21Z</time>
      </trkpt>
      <trkpt lat="43.64275" lon="3.8481">
        <ele>65.51</ele>
        <time>2011-10-02T15:08:22Z</time>
      </trkpt>
      <trkpt lat="43.64287" lon="3.84824">
        <ele>66.47</ele>
        <time>2011-10-02T15:08:23Z</time>
      </trkpt>
      <trkpt lat="43.64297" lon="3.84839">
        <ele>67.43</ele>
        <time>2011-10-02T15:08:24Z</time>
      </trkpt>
      <trkpt lat="43.64307" lon="3.84854">
        <ele>68.39</ele>
        <time>2011-10-02T15:08:25Z</time>
      </trkpt>
      <trkpt lat="43.64316" lon="3.84871">
        <ele>69.35</ele>
        <time>2011-10-02T15:08:26Z</time>
      </trkpt>
      <trkpt lat="43.64323" lon="3.84889">
        <ele>70.31</ele>
        <time>2011-10-02T15:08:27Z</time>
      </trkpt>
      <trkpt lat="43.6433" lon="3.84907">
        <ele>70.79</ele>
        <time>2011-10-02T15:08:28Z</time>
      </trkpt>
      <trkpt lat="43.64336" lon="3.84927">
        <ele>71.76</ele>
        <time>2011-10-02T15:08:29Z</time>
      </trkpt>
      <trkpt lat="43.64341" lon="3.84947">
        <ele>72.24</ele>
        <time>2011-10-02T15:08:30Z</time>
      </trkpt>
      <trkpt lat="43.64406" lon="3.85094">
        <ele>69.83</ele>
        <time>2011-10-02T15:08:38Z</time>
      </trkpt>
      <trkpt lat="43.64556" lon="3.85332">
        <ele>67.43</ele>
        <time>2011-10-02T15:08:53Z</time>
      </trkpt>
      <trkpt lat="43.64667" lon="3.85424">
        <ele>63.1</ele>
        <time>2011-10-02T15:09:01Z</time>
      </trkpt>
      <trkpt lat="43.64848" lon="3.85544">
        <ele>53.49</ele>
        <time>2011-10-02T15:09:14Z</time>
      </trkpt>
      <trkpt lat="43.64927" lon="3.8567">
        <ele>53.01</ele>
        <time>2011-10-02T15:09:22Z</time>
      </trkpt>
      <trkpt lat="43.65009" lon="3.85903">
        <ele>51.09</ele>
        <time>2011-10-02T15:09:34Z</time>
      </trkpt>
      <trkpt lat="43.65045" lon="3.86147">
        <ele>44.84</ele>
        <time>2011-10-02T15:09:46Z</time>
      </trkpt>
      <trkpt lat="43.65073" lon="3.86498">
        <ele>38.11</ele>
        <time>2011-10-02T15:10:04Z</time>
      </trkpt>
      <trkpt lat="43.65074" lon="3.8654">
        <ele>39.07</ele>
        <time>2011-10-02T15:10:09Z</time>
      </trkpt>
      <trkpt lat="43.65072" lon="3.86548">
        <ele>38.59</ele>
        <time>2011-10-02T15:10:11Z</time>
      </trkpt>
      <trkpt lat="43.65068" lon="3.86555">
        <ele>38.59</ele>
        <time>2011-10-02T15:10:12Z</time>
      </trkpt>
      <trkpt lat="43.65057" lon="3.86573">
        <ele>39.07</ele>
        <time>2011-10-02T15:10:14Z</time>
      </trkpt>
      <trkpt lat="43.65053" lon="3.86584">
        <ele>39.55</ele>
        <time>2011-10-02T15:10:15Z</time>
      </trkpt>
      <trkpt lat="43.6505" lon="3.86596">
        <ele>40.03</ele>
        <time>2011-10-02T15:10:16Z</time>
      </trkpt>
      <trkpt lat="43.6505" lon="3.86608">
        <ele>40.03</ele>
        <time>2011-10-02T15:10:17Z</time>
      </trkpt>
      <trkpt lat="43.65052" lon="3.8662">
        <ele>40.51</ele>
        <time>2011-10-02T15:10:18Z</time>
      </trkpt>
      <trkpt lat="43.65055" lon="3.8663">
        <ele>40.99</ele>
        <time>2011-10-02T15:10:19Z</time>
      </trkpt>
      <trkpt lat="43.65059" lon="3.8664">
        <ele>40.99</ele>
        <time>2011-10-02T15:10:20Z</time>
      </trkpt>
      <trkpt lat="43.65065" lon="3.86648">
        <ele>41.47</ele>
        <time>2011-10-02T15:10:21Z</time>
      </trkpt>
      <trkpt lat="43.65072" lon="3.86655">
        <ele>41.47</ele>
        <time>2011-10-02T15:10:22Z</time>
      </trkpt>
      <trkpt lat="43.65079" lon="3.86664">
        <ele>41.47</ele>
        <time>2011-10-02T15:10:23Z</time>
      </trkpt>
      <trkpt lat="43.65086" lon="3.86674">
        <ele>41.47</ele>
        <time>2011-10-02T15:10:24Z</time>
      </trkpt>
      <trkpt lat="43.65091" lon="3.86688">
        <ele>41.47</ele>
        <time>2011-10-02T15:10:25Z</time>
      </trkpt>
      <trkpt lat="43.65094" lon="3.86704">
        <ele>41.47</ele>
        <time>2011-10-02T15:10:26Z</time>
      </trkpt>
      <trkpt lat="43.65096" lon="3.86724">
        <ele>41.47</ele>
        <time>2011-10-02T15:10:27Z</time>
      </trkpt>
      <trkpt lat="43.65119" lon="3.86881">
        <ele>41.95</ele>
        <time>2011-10-02T15:10:33Z</time>
      </trkpt>
      <trkpt lat="43.6519" lon="3.87082">
        <ele>40.99</ele>
        <time>2011-10-02T15:10:40Z</time>
      </trkpt>
      <trkpt lat="43.65263" lon="3.87203">
        <ele>41.47</ele>
        <time>2011-10-02T15:10:46Z</time>
      </trkpt>
      <trkpt lat="43.65327" lon="3.87261">
        <ele>43.4</ele>
        <time>2011-10-02T15:10:52Z</time>
      </trkpt>
      <trkpt lat="43.65332" lon="3.87267">
        <ele>43.88</ele>
        <time>2011-10-02T15:10:53Z</time>
      </trkpt>
      <trkpt lat="43.65335" lon="3.87272">
        <ele>43.88</ele>
        <time>2011-10-02T15:10:54Z</time>
      </trkpt>
      <trkpt lat="43.65337" lon="3.8728">
        <ele>44.36</ele>
        <time>2011-10-02T15:10:55Z</time>
      </trkpt>
      <trkpt lat="43.65339" lon="3.87291">
        <ele>44.36</ele>
        <time>2011-10-02T15:10:56Z</time>
      </trkpt>
      <trkpt lat="43.65341" lon="3.87304">
        <ele>44.36</ele>
        <time>2011-10-02T15:10:57Z</time>
      </trkpt>
      <trkpt lat="43.65345" lon="3.87319">
        <ele>44.36</ele>
        <time>2011-10-02T15:10:58Z</time>
      </trkpt>
      <trkpt lat="43.65352" lon="3.87333">
        <ele>44.84</ele>
        <time>2011-10-02T15:10:59Z</time>
      </trkpt>
      <trkpt lat="43.6536" lon="3.87347">
        <ele>45.32</ele>
        <time>2011-10-02T15:11:00Z</time>
      </trkpt>
      <trkpt lat="43.6537" lon="3.8736">
        <ele>45.8</ele>
        <time>2011-10-02T15:11:01Z</time>
      </trkpt>
      <trkpt lat="43.65381" lon="3.87374">
        <ele>46.28</ele>
        <time>2011-10-02T15:11:02Z</time>
      </trkpt>
      <trkpt lat="43.65393" lon="3.87387">
        <ele>46.28</ele>
        <time>2011-10-02T15:11:03Z</time>
      </trkpt>
      <trkpt lat="43.65405" lon="3.87399">
        <ele>46.76</ele>
        <time>2011-10-02T15:11:04Z</time>
      </trkpt>
      <trkpt lat="43.65441" lon="3.87428">
        <ele>47.72</ele>
        <time>2011-10-02T15:11:07Z</time>
      </trkpt>
      <trkpt lat="43.65452" lon="3.87433">
        <ele>47.72</ele>
        <time>2011-10-02T15:11:08Z</time>
      </trkpt>
      <trkpt lat="43.65464" lon="3.87432">
        <ele>48.2</ele>
        <time>2011-10-02T15:11:09Z</time>
      </trkpt>
      <trkpt lat="43.65474" lon="3.87429">
        <ele>48.68</ele>
        <time>2011-10-02T15:11:10Z</time>
      </trkpt>
      <trkpt lat="43.65483" lon="3.87422">
        <ele>49.16</ele>
        <time>2011-10-02T15:11:11Z</time>
      </trkpt>
      <trkpt lat="43.65491" lon="3.87411">
        <ele>49.16</ele>
        <time>2011-10-02T15:11:12Z</time>
      </trkpt>
      <trkpt lat="43.65498" lon="3.87399">
        <ele>49.65</ele>
        <time>2011-10-02T15:11:13Z</time>
      </trkpt>
      <trkpt lat="43.65503" lon="3.87383">
        <ele>49.65</ele>
        <time>2011-10-02T15:11:14Z</time>
      </trkpt>
      <trkpt lat="43.65505" lon="3.87366">
        <ele>49.65</ele>
        <time>2011-10-02T15:11:15Z</time>
      </trkpt>
      <trkpt lat="43.65506" lon="3.87345">
        <ele>49.65</ele>
        <time>2011-10-02T15:11:16Z</time>
      </trkpt>
      <trkpt lat="43.65507" lon="3.87323">
        <ele>49.65</ele>
        <time>2011-10-02T15:11:17Z</time>
      </trkpt>
      <trkpt lat="43.6551" lon="3.87259">
        <ele>47.72</ele>
        <time>2011-10-02T15:11:20Z</time>
      </trkpt>
      <trkpt lat="43.65514" lon="3.8724">
        <ele>47.24</ele>
        <time>2011-10-02T15:11:21Z</time>
      </trkpt>
      <trkpt lat="43.65521" lon="3.87222">
        <ele>46.28</ele>
        <time>2011-10-02T15:11:22Z</time>
      </trkpt>
      <trkpt lat="43.6553" lon="3.87204">
        <ele>45.32</ele>
        <time>2011-10-02T15:11:23Z</time>
      </trkpt>
      <trkpt lat="43.65541" lon="3.87185">
        <ele>44.36</ele>
        <time>2011-10-02T15:11:24Z</time>
      </trkpt>
      <trkpt lat="43.65632" lon="3.87059">
        <ele>40.51</ele>
        <time>2011-10-02T15:11:30Z</time>
      </trkpt>
      <trkpt lat="43.65764" lon="3.86939">
        <ele>41.47</ele>
        <time>2011-10-02T15:11:35Z</time>
      </trkpt>
      <trkpt lat="43.65939" lon="3.86745">
        <ele>43.4</ele>
        <time>2011-10-02T15:11:42Z</time>
      </trkpt>
      <trkpt lat="43.6602" lon="3.86663">
        <ele>44.84</ele>
        <time>2011-10-02T15:11:46Z</time>
      </trkpt>
      <trkpt lat="43.66041" lon="3.8665">
        <ele>45.8</ele>
        <time>2011-10-02T15:11:47Z</time>
      </trkpt>
      <trkpt lat="43.66063" lon="3.86641">
        <ele>47.24</ele>
        <time>2011-10-02T15:11:48Z</time>
      </trkpt>
      <trkpt lat="43.66086" lon="3.86635">
        <ele>48.68</ele>
        <time>2011-10-02T15:11:49Z</time>
      </trkpt>
      <trkpt lat="43.6611" lon="3.86631">
        <ele>50.13</ele>
        <time>2011-10-02T15:11:50Z</time>
      </trkpt>
      <trkpt lat="43.66134" lon="3.8663">
        <ele>51.57</ele>
        <time>2011-10-02T15:11:51Z</time>
      </trkpt>
      <trkpt lat="43.6616" lon="3.86629">
        <ele>53.01</ele>
        <time>2011-10-02T15:11:52Z</time>
      </trkpt>
      <trkpt lat="43.66406" lon="3.8664">
        <ele>57.34</ele>
        <time>2011-10-02T15:12:01Z</time>
      </trkpt>
      <trkpt lat="43.66564" lon="3.86621">
        <ele>53.01</ele>
        <time>2011-10-02T15:12:08Z</time>
      </trkpt>
      <trkpt lat="43.66603" lon="3.86618">
        <ele>52.05</ele>
        <time>2011-10-02T15:12:10Z</time>
      </trkpt>
      <trkpt lat="43.66623" lon="3.86621">
        <ele>51.57</ele>
        <time>2011-10-02T15:12:11Z</time>
      </trkpt>
      <trkpt lat="43.66642" lon="3.8663">
        <ele>51.09</ele>
        <time>2011-10-02T15:12:12Z</time>
      </trkpt>
      <trkpt lat="43.6666" lon="3.8664">
        <ele>50.61</ele>
        <time>2011-10-02T15:12:13Z</time>
      </trkpt>
      <trkpt lat="43.66678" lon="3.86653">
        <ele>50.61</ele>
        <time>2011-10-02T15:12:14Z</time>
      </trkpt>
      <trkpt lat="43.66695" lon="3.86668">
        <ele>50.13</ele>
        <time>2011-10-02T15:12:15Z</time>
      </trkpt>
      <trkpt lat="43.66712" lon="3.86688">
        <ele>50.13</ele>
        <time>2011-10-02T15:12:16Z</time>
      </trkpt>
      <trkpt lat="43.66728" lon="3.8671">
        <ele>50.13</ele>
        <time>2011-10-02T15:12:17Z</time>
      </trkpt>
      <trkpt lat="43.66744" lon="3.86731">
        <ele>50.61</ele>
        <time>2011-10-02T15:12:18Z</time>
      </trkpt>
      <trkpt lat="43.66817" lon="3.86813">
        <ele>51.57</ele>
        <time>2011-10-02T15:12:22Z</time>
      </trkpt>
      <trkpt lat="43.66839" lon="3.86827">
        <ele>52.05</ele>
        <time>2011-10-02T15:12:23Z</time>
      </trkpt>
      <trkpt lat="43.66861" lon="3.86838">
        <ele>52.05</ele>
        <time>2011-10-02T15:12:24Z</time>
      </trkpt>
      <trkpt lat="43.66884" lon="3.86846">
        <ele>52.05</ele>
        <time>2011-10-02T15:12:25Z</time>
      </trkpt>
      <trkpt lat="43.66908" lon="3.8685">
        <ele>52.05</ele>
        <time>2011-10-02T15:12:26Z</time>
      </trkpt>
      <trkpt lat="43.66933" lon="3.86851">
        <ele>52.05</ele>
        <time>2011-10-02T15:12:27Z</time>
      </trkpt>
      <trkpt lat="43.6696" lon="3.86849">
        <ele>51.57</ele>
        <time>2011-10-02T15:12:28Z</time>
      </trkpt>
      <trkpt lat="43.66987" lon="3.86844">
        <ele>51.57</ele>
        <time>2011-10-02T15:12:29Z</time>
      </trkpt>
      <trkpt lat="43.67015" lon="3.86837">
        <ele>51.09</ele>
        <time>2011-10-02T15:12:30Z</time>
      </trkpt>
      <trkpt lat="43.67279" lon="3.86772">
        <ele>53.49</ele>
        <time>2011-10-02T15:12:40Z</time>
      </trkpt>
      <trkpt lat="43.67402" lon="3.86775">
        <ele>55.89</ele>
        <time>2011-10-02T15:12:46Z</time>
      </trkpt>
      <trkpt lat="43.67439" lon="3.86774">
        <ele>55.89</ele>
        <time>2011-10-02T15:12:48Z</time>
      </trkpt>
      <trkpt lat="43.67457" lon="3.86769">
        <ele>56.37</ele>
        <time>2011-10-02T15:12:49Z</time>
      </trkpt>
      <trkpt lat="43.67475" lon="3.86762">
        <ele>55.89</ele>
        <time>2011-10-02T15:12:50Z</time>
      </trkpt>
      <trkpt lat="43.67572" lon="3.8672">
        <ele>53.97</ele>
        <time>2011-10-02T15:12:56Z</time>
      </trkpt>
      <trkpt lat="43.67586" lon="3.86718">
        <ele>53.97</ele>
        <time>2011-10-02T15:12:57Z</time>
      </trkpt>
      <trkpt lat="43.676" lon="3.86717">
        <ele>53.97</ele>
        <time>2011-10-02T15:12:58Z</time>
      </trkpt>
      <trkpt lat="43.67612" lon="3.86718">
        <ele>54.45</ele>
        <time>2011-10-02T15:12:59Z</time>
      </trkpt>
      <trkpt lat="43.67623" lon="3.8672">
        <ele>54.45</ele>
        <time>2011-10-02T15:13:00Z</time>
      </trkpt>
      <trkpt lat="43.67631" lon="3.86723">
        <ele>54.45</ele>
        <time>2011-10-02T15:13:01Z</time>
      </trkpt>
      <trkpt lat="43.67638" lon="3.86729">
        <ele>54.93</ele>
        <time>2011-10-02T15:13:02Z</time>
      </trkpt>
      <trkpt lat="43.67645" lon="3.86737">
        <ele>54.93</ele>
        <time>2011-10-02T15:13:03Z</time>
      </trkpt>
      <trkpt lat="43.67652" lon="3.86746">
        <ele>55.41</ele>
        <time>2011-10-02T15:13:04Z</time>
      </trkpt>
      <trkpt lat="43.6766" lon="3.86755">
        <ele>55.41</ele>
        <time>2011-10-02T15:13:05Z</time>
      </trkpt>
      <trkpt lat="43.6767" lon="3.8676">
        <ele>55.89</ele>
        <time>2011-10-02T15:13:06Z</time>
      </trkpt>
      <trkpt lat="43.67679" lon="3.86761">
        <ele>55.89</ele>
        <time>2011-10-02T15:13:07Z</time>
      </trkpt>
      <trkpt lat="43.67688" lon="3.86757">
        <ele>56.37</ele>
        <time>2011-10-02T15:13:08Z</time>
      </trkpt>
      <trkpt lat="43.67697" lon="3.8675">
        <ele>56.37</ele>
        <time>2011-10-02T15:13:09Z</time>
      </trkpt>
      <trkpt lat="43.67706" lon="3.8674">
        <ele>56.86</ele>
        <time>2011-10-02T15:13:10Z</time>
      </trkpt>
      <trkpt lat="43.67714" lon="3.8673">
        <ele>56.37</ele>
        <time>2011-10-02T15:13:11Z</time>
      </trkpt>
      <trkpt lat="43.67724" lon="3.86722">
        <ele>56.37</ele>
        <time>2011-10-02T15:13:12Z</time>
      </trkpt>
      <trkpt lat="43.67735" lon="3.86718">
        <ele>56.37</ele>
        <time>2011-10-02T15:13:13Z</time>
      </trkpt>
      <trkpt lat="43.67746" lon="3.86717">
        <ele>56.37</ele>
        <time>2011-10-02T15:13:14Z</time>
      </trkpt>
      <trkpt lat="43.6776" lon="3.86716">
        <ele>56.37</ele>
        <time>2011-10-02T15:13:15Z</time>
      </trkpt>
      <trkpt lat="43.67794" lon="3.86709">
        <ele>56.37</ele>
        <time>2011-10-02T15:13:17Z</time>
      </trkpt>
      <trkpt lat="43.67814" lon="3.867">
        <ele>55.89</ele>
        <time>2011-10-02T15:13:18Z</time>
      </trkpt>
      <trkpt lat="43.67836" lon="3.86689">
        <ele>55.89</ele>
        <time>2011-10-02T15:13:19Z</time>
      </trkpt>
      <trkpt lat="43.67965" lon="3.86615">
        <ele>54.45</ele>
        <time>2011-10-02T15:13:26Z</time>
      </trkpt>
      <trkpt lat="43.68101" lon="3.86542">
        <ele>53.97</ele>
        <time>2011-10-02T15:13:35Z</time>
      </trkpt>
      <trkpt lat="43.68207" lon="3.86508">
        <ele>53.49</ele>
        <time>2011-10-02T15:13:43Z</time>
      </trkpt>
      <trkpt lat="43.68219" lon="3.86501">
        <ele>53.49</ele>
        <time>2011-10-02T15:13:44Z</time>
      </trkpt>
      <trkpt lat="43.68229" lon="3.86493">
        <ele>53.49</ele>
        <time>2011-10-02T15:13:45Z</time>
      </trkpt>
      <trkpt lat="43.68295" lon="3.86431">
        <ele>55.41</ele>
        <time>2011-10-02T15:13:53Z</time>
      </trkpt>
      <trkpt lat="43.68301" lon="3.86422">
        <ele>55.41</ele>
        <time>2011-10-02T15:13:54Z</time>
      </trkpt>
      <trkpt lat="43.68307" lon="3.86412">
        <ele>55.89</ele>
        <time>2011-10-02T15:13:55Z</time>
      </trkpt>
      <trkpt lat="43.68312" lon="3.86402">
        <ele>55.89</ele>
        <time>2011-10-02T15:13:56Z</time>
      </trkpt>
      <trkpt lat="43.68316" lon="3.86392">
        <ele>55.89</ele>
        <time>2011-10-02T15:13:57Z</time>
      </trkpt>
      <trkpt lat="43.68326" lon="3.86364">
        <ele>55.89</ele>
        <time>2011-10-02T15:14:00Z</time>
      </trkpt>
      <trkpt lat="43.68331" lon="3.86356">
        <ele>55.89</ele>
        <time>2011-10-02T15:14:01Z</time>
      </trkpt>
      <trkpt lat="43.68335" lon="3.8635">
        <ele>55.89</ele>
        <time>2011-10-02T15:14:02Z</time>
      </trkpt>
      <trkpt lat="43.68339" lon="3.86345">
        <ele>55.89</ele>
        <time>2011-10-02T15:14:03Z</time>
      </trkpt>
      <trkpt lat="43.68343" lon="3.86342">
        <ele>55.89</ele>
        <time>2011-10-02T15:14:04Z</time>
      </trkpt>
      <trkpt lat="43.68347" lon="3.86339">
        <ele>55.89</ele>
        <time>2011-10-02T15:14:05Z</time>
      </trkpt>
      <trkpt lat="43.68351" lon="3.86338">
        <ele>56.37</ele>
        <time>2011-10-02T15:14:06Z</time>
      </trkpt>
      <trkpt lat="43.68355" lon="3.86339">
        <ele>56.37</ele>
        <time>2011-10-02T15:14:07Z</time>
      </trkpt>
      <trkpt lat="43.6836" lon="3.86341">
        <ele>56.37</ele>
        <time>2011-10-02T15:14:08Z</time>
      </trkpt>
      <trkpt lat="43.68366" lon="3.86344">
        <ele>56.37</ele>
        <time>2011-10-02T15:14:09Z</time>
      </trkpt>
      <trkpt lat="43.68372" lon="3.86347">
        <ele>56.37</ele>
        <time>2011-10-02T15:14:10Z</time>
      </trkpt>
      <trkpt lat="43.68379" lon="3.86349">
        <ele>56.37</ele>
        <time>2011-10-02T15:14:11Z</time>
      </trkpt>
      <trkpt lat="43.68387" lon="3.8635">
        <ele>56.86</ele>
        <time>2011-10-02T15:14:12Z</time>
      </trkpt>
      <trkpt lat="43.68495" lon="3.86376">
        <ele>57.82</ele>
        <time>2011-10-02T15:14:24Z</time>
      </trkpt>
      <trkpt lat="43.6859" lon="3.86395">
        <ele>57.34</ele>
        <time>2011-10-02T15:14:35Z</time>
      </trkpt>
      <trkpt lat="43.68643" lon="3.86389">
        <ele>58.78</ele>
        <time>2011-10-02T15:14:45Z</time>
      </trkpt>
      <trkpt lat="43.68661" lon="3.86388">
        <ele>59.26</ele>
        <time>2011-10-02T15:14:49Z</time>
      </trkpt>
      <trkpt lat="43.68667" lon="3.86385">
        <ele>59.74</ele>
        <time>2011-10-02T15:14:50Z</time>
      </trkpt>
      <trkpt lat="43.68673" lon="3.86381">
        <ele>59.74</ele>
        <time>2011-10-02T15:14:51Z</time>
      </trkpt>
      <trkpt lat="43.6875" lon="3.86346">
        <ele>60.22</ele>
        <time>2011-10-02T15:14:59Z</time>
      </trkpt>
      <trkpt lat="43.68881" lon="3.86299">
        <ele>61.66</ele>
        <time>2011-10-02T15:15:11Z</time>
      </trkpt>
      <trkpt lat="43.6899" lon="3.86274">
        <ele>63.1</ele>
        <time>2011-10-02T15:15:21Z</time>
      </trkpt>
      <trkpt lat="43.69111" lon="3.86279">
        <ele>63.58</ele>
        <time>2011-10-02T15:15:31Z</time>
      </trkpt>
      <trkpt lat="43.69244" lon="3.86272">
        <ele>65.03</ele>
        <time>2011-10-02T15:15:43Z</time>
      </trkpt>
      <trkpt lat="43.69348" lon="3.86252">
        <ele>63.58</ele>
        <time>2011-10-02T15:15:53Z</time>
      </trkpt>
      <trkpt lat="43.69358" lon="3.86251">
        <ele>63.1</ele>
        <time>2011-10-02T15:15:55Z</time>
      </trkpt>
      <trkpt lat="43.69362" lon="3.86251">
        <ele>62.62</ele>
        <time>2011-10-02T15:15:56Z</time>
      </trkpt>
      <trkpt lat="43.69403" lon="3.8625">
        <ele>64.07</ele>
        <time>2011-10-02T15:16:05Z</time>
      </trkpt>
      <trkpt lat="43.69497" lon="3.86254">
        <ele>63.1</ele>
        <time>2011-10-02T15:16:16Z</time>
      </trkpt>
      <trkpt lat="43.69618" lon="3.86272">
        <ele>65.99</ele>
        <time>2011-10-02T15:16:30Z</time>
      </trkpt>
      <trkpt lat="43.69701" lon="3.86288">
        <ele>65.51</ele>
        <time>2011-10-02T15:16:41Z</time>
      </trkpt>
      <trkpt lat="43.69727" lon="3.86292">
        <ele>65.03</ele>
        <time>2011-10-02T15:16:49Z</time>
      </trkpt>
      <trkpt lat="43.69773" lon="3.86301">
        <ele>65.51</ele>
        <time>2011-10-02T15:16:57Z</time>
      </trkpt>
      <trkpt lat="43.69781" lon="3.86301">
        <ele>65.51</ele>
        <time>2011-10-02T15:16:58Z</time>
      </trkpt>
      <trkpt lat="43.69788" lon="3.863">
        <ele>65.51</ele>
        <time>2011-10-02T15:16:59Z</time>
      </trkpt>
      <trkpt lat="43.69796" lon="3.86299">
        <ele>65.51</ele>
        <time>2011-10-02T15:17:00Z</time>
      </trkpt>
      <trkpt lat="43.69802" lon="3.86296">
        <ele>65.03</ele>
        <time>2011-10-02T15:17:01Z</time>
      </trkpt>
      <trkpt lat="43.69809" lon="3.86293">
        <ele>65.03</ele>
        <time>2011-10-02T15:17:02Z</time>
      </trkpt>
      <trkpt lat="43.69903" lon="3.86237">
        <ele>66.47</ele>
        <time>2011-10-02T15:17:14Z</time>
      </trkpt>
      <trkpt lat="43.69991" lon="3.86242">
        <ele>64.07</ele>
        <time>2011-10-02T15:17:24Z</time>
      </trkpt>
      <trkpt lat="43.70067" lon="3.86252">
        <ele>65.51</ele>
        <time>2011-10-02T15:17:33Z</time>
      </trkpt>
      <trkpt lat="43.70075" lon="3.86255">
        <ele>65.51</ele>
        <time>2011-10-02T15:17:34Z</time>
      </trkpt>
      <trkpt lat="43.70084" lon="3.86259">
        <ele>65.03</ele>
        <time>2011-10-02T15:17:35Z</time>
      </trkpt>
      <trkpt lat="43.70178" lon="3.86318">
        <ele>64.55</ele>
        <time>2011-10-02T15:17:45Z</time>
      </trkpt>
      <trkpt lat="43.7021" lon="3.86364">
        <ele>64.07</ele>
        <time>2011-10-02T15:17:52Z</time>
      </trkpt>
      <trkpt lat="43.70251" lon="3.8647">
        <ele>63.58</ele>
        <time>2011-10-02T15:18:02Z</time>
      </trkpt>
      <trkpt lat="43.70283" lon="3.8656">
        <ele>63.58</ele>
        <time>2011-10-02T15:18:11Z</time>
      </trkpt>
      <trkpt lat="43.70354" lon="3.86727">
        <ele>64.07</ele>
        <time>2011-10-02T15:18:22Z</time>
      </trkpt>
      <trkpt lat="43.70365" lon="3.86743">
        <ele>64.07</ele>
        <time>2011-10-02T15:18:23Z</time>
      </trkpt>
      <trkpt lat="43.70379" lon="3.86758">
        <ele>64.55</ele>
        <time>2011-10-02T15:18:24Z</time>
      </trkpt>
      <trkpt lat="43.70394" lon="3.86771">
        <ele>64.55</ele>
        <time>2011-10-02T15:18:25Z</time>
      </trkpt>
      <trkpt lat="43.7041" lon="3.86784">
        <ele>64.55</ele>
        <time>2011-10-02T15:18:26Z</time>
      </trkpt>
      <trkpt lat="43.70428" lon="3.86794">
        <ele>64.07</ele>
        <time>2011-10-02T15:18:27Z</time>
      </trkpt>
      <trkpt lat="43.70447" lon="3.86802">
        <ele>64.07</ele>
        <time>2011-10-02T15:18:28Z</time>
      </trkpt>
      <trkpt lat="43.70465" lon="3.86806">
        <ele>64.07</ele>
        <time>2011-10-02T15:18:29Z</time>
      </trkpt>
      <trkpt lat="43.70483" lon="3.86808">
        <ele>64.07</ele>
        <time>2011-10-02T15:18:30Z</time>
      </trkpt>
      <trkpt lat="43.70501" lon="3.86808">
        <ele>64.07</ele>
        <time>2011-10-02T15:18:31Z</time>
      </trkpt>
      <trkpt lat="43.70519" lon="3.86808">
        <ele>64.07</ele>
        <time>2011-10-02T15:18:32Z</time>
      </trkpt>
      <trkpt lat="43.70743" lon="3.86789">
        <ele>65.51</ele>
        <time>2011-10-02T15:18:45Z</time>
      </trkpt>
      <trkpt lat="43.70922" lon="3.86776">
        <ele>65.99</ele>
        <time>2011-10-02T15:18:55Z</time>
      </trkpt>
      <trkpt lat="43.71209" lon="3.8671">
        <ele>67.91</ele>
        <time>2011-10-02T15:19:10Z</time>
      </trkpt>
      <trkpt lat="43.71451" lon="3.86663">
        <ele>68.87</ele>
        <time>2011-10-02T15:19:22Z</time>
      </trkpt>
      <trkpt lat="43.71496" lon="3.86666">
        <ele>68.39</ele>
        <time>2011-10-02T15:19:24Z</time>
      </trkpt>
      <trkpt lat="43.71521" lon="3.86672">
        <ele>68.39</ele>
        <time>2011-10-02T15:19:25Z</time>
      </trkpt>
      <trkpt lat="43.71704" lon="3.86741">
        <ele>68.87</ele>
        <time>2011-10-02T15:19:33Z</time>
      </trkpt>
      <trkpt lat="43.71871" lon="3.86836">
        <ele>70.31</ele>
        <time>2011-10-02T15:19:41Z</time>
      </trkpt>
      <trkpt lat="43.72028" lon="3.869">
        <ele>71.76</ele>
        <time>2011-10-02T15:19:49Z</time>
      </trkpt>
      <trkpt lat="43.72063" lon="3.86909">
        <ele>72.72</ele>
        <time>2011-10-02T15:19:51Z</time>
      </trkpt>
      <trkpt lat="43.72082" lon="3.86909">
        <ele>73.2</ele>
        <time>2011-10-02T15:19:52Z</time>
      </trkpt>
      <trkpt lat="43.721" lon="3.86907">
        <ele>74.16</ele>
        <time>2011-10-02T15:19:53Z</time>
      </trkpt>
      <trkpt lat="43.72119" lon="3.86902">
        <ele>74.64</ele>
        <time>2011-10-02T15:19:54Z</time>
      </trkpt>
      <trkpt lat="43.72137" lon="3.86894">
        <ele>75.6</ele>
        <time>2011-10-02T15:19:55Z</time>
      </trkpt>
      <trkpt lat="43.72154" lon="3.86885">
        <ele>76.08</ele>
        <time>2011-10-02T15:19:56Z</time>
      </trkpt>
      <trkpt lat="43.72225" lon="3.86858">
        <ele>76.56</ele>
        <time>2011-10-02T15:20:00Z</time>
      </trkpt>
      <trkpt lat="43.72245" lon="3.86857">
        <ele>76.08</ele>
        <time>2011-10-02T15:20:01Z</time>
      </trkpt>
      <trkpt lat="43.72398" lon="3.8688">
        <ele>72.72</ele>
        <time>2011-10-02T15:20:08Z</time>
      </trkpt>
      <trkpt lat="43.72617" lon="3.86944">
        <ele>76.56</ele>
        <time>2011-10-02T15:20:19Z</time>
      </trkpt>
      <trkpt lat="43.72724" lon="3.87005">
        <ele>78.48</ele>
        <time>2011-10-02T15:20:25Z</time>
      </trkpt>
      <trkpt lat="43.72742" lon="3.87009">
        <ele>78.97</ele>
        <time>2011-10-02T15:20:26Z</time>
      </trkpt>
      <trkpt lat="43.72758" lon="3.8701">
        <ele>79.45</ele>
        <time>2011-10-02T15:20:27Z</time>
      </trkpt>
      <trkpt lat="43.7281" lon="3.87011">
        <ele>82.33</ele>
        <time>2011-10-02T15:20:31Z</time>
      </trkpt>
      <trkpt lat="43.7282" lon="3.87014">
        <ele>82.81</ele>
        <time>2011-10-02T15:20:32Z</time>
      </trkpt>
      <trkpt lat="43.72829" lon="3.87018">
        <ele>82.81</ele>
        <time>2011-10-02T15:20:33Z</time>
      </trkpt>
      <trkpt lat="43.72837" lon="3.87021">
        <ele>83.29</ele>
        <time>2011-10-02T15:20:34Z</time>
      </trkpt>
      <trkpt lat="43.72845" lon="3.87021">
        <ele>83.29</ele>
        <time>2011-10-02T15:20:35Z</time>
      </trkpt>
      <trkpt lat="43.72852" lon="3.87014">
        <ele>83.77</ele>
        <time>2011-10-02T15:20:36Z</time>
      </trkpt>
      <trkpt lat="43.7286" lon="3.87005">
        <ele>84.25</ele>
        <time>2011-10-02T15:20:37Z</time>
      </trkpt>
      <trkpt lat="43.72869" lon="3.86997">
        <ele>84.25</ele>
        <time>2011-10-02T15:20:38Z</time>
      </trkpt>
      <trkpt lat="43.72879" lon="3.86991">
        <ele>84.73</ele>
        <time>2011-10-02T15:20:39Z</time>
      </trkpt>
      <trkpt lat="43.72889" lon="3.86988">
        <ele>84.73</ele>
        <time>2011-10-02T15:20:40Z</time>
      </trkpt>
      <trkpt lat="43.729" lon="3.86986">
        <ele>84.73</ele>
        <time>2011-10-02T15:20:41Z</time>
      </trkpt>
      <trkpt lat="43.73009" lon="3.86968">
        <ele>83.77</ele>
        <time>2011-10-02T15:20:51Z</time>
      </trkpt>
      <trkpt lat="43.73018" lon="3.86971">
        <ele>83.77</ele>
        <time>2011-10-02T15:20:52Z</time>
      </trkpt>
      <trkpt lat="43.73027" lon="3.86976">
        <ele>83.77</ele>
        <time>2011-10-02T15:20:53Z</time>
      </trkpt>
      <trkpt lat="43.73036" lon="3.86979">
        <ele>83.29</ele>
        <time>2011-10-02T15:20:54Z</time>
      </trkpt>
      <trkpt lat="43.73044" lon="3.86978">
        <ele>83.29</ele>
        <time>2011-10-02T15:20:55Z</time>
      </trkpt>
      <trkpt lat="43.73053" lon="3.86973">
        <ele>82.81</ele>
        <time>2011-10-02T15:20:56Z</time>
      </trkpt>
      <trkpt lat="43.73059" lon="3.86964">
        <ele>82.81</ele>
        <time>2011-10-02T15:20:57Z</time>
      </trkpt>
      <trkpt lat="43.73066" lon="3.86953">
        <ele>82.33</ele>
        <time>2011-10-02T15:20:58Z</time>
      </trkpt>
      <trkpt lat="43.73074" lon="3.86942">
        <ele>81.85</ele>
        <time>2011-10-02T15:20:59Z</time>
      </trkpt>
      <trkpt lat="43.73084" lon="3.86932">
        <ele>81.37</ele>
        <time>2011-10-02T15:21:00Z</time>
      </trkpt>
      <trkpt lat="43.73095" lon="3.86922">
        <ele>80.41</ele>
        <time>2011-10-02T15:21:01Z</time>
      </trkpt>
      <trkpt lat="43.73108" lon="3.86913">
        <ele>79.93</ele>
        <time>2011-10-02T15:21:02Z</time>
      </trkpt>
      <trkpt lat="43.73256" lon="3.86816">
        <ele>75.6</ele>
        <time>2011-10-02T15:21:12Z</time>
      </trkpt>
      <trkpt lat="43.73428" lon="3.86745">
        <ele>76.08</ele>
        <time>2011-10-02T15:21:21Z</time>
      </trkpt>
      <trkpt lat="43.73614" lon="3.86736">
        <ele>75.12</ele>
        <time>2011-10-02T15:21:30Z</time>
      </trkpt>
      <trkpt lat="43.73813" lon="3.86705">
        <ele>74.64</ele>
        <time>2011-10-02T15:21:39Z</time>
      </trkpt>
      <trkpt lat="43.73955" lon="3.86619">
        <ele>75.6</ele>
        <time>2011-10-02T15:21:46Z</time>
      </trkpt>
      <trkpt lat="43.74195" lon="3.86447">
        <ele>83.77</ele>
        <time>2011-10-02T15:21:59Z</time>
      </trkpt>
      <trkpt lat="43.74355" lon="3.86293">
        <ele>82.33</ele>
        <time>2011-10-02T15:22:08Z</time>
      </trkpt>
      <trkpt lat="43.74639" lon="3.86023">
        <ele>81.37</ele>
        <time>2011-10-02T15:22:24Z</time>
      </trkpt>
      <trkpt lat="43.74842" lon="3.85867">
        <ele>82.81</ele>
        <time>2011-10-02T15:22:35Z</time>
      </trkpt>
      <trkpt lat="43.74864" lon="3.85864">
        <ele>82.81</ele>
        <time>2011-10-02T15:22:36Z</time>
      </trkpt>
      <trkpt lat="43.74886" lon="3.85863">
        <ele>82.81</ele>
        <time>2011-10-02T15:22:37Z</time>
      </trkpt>
      <trkpt lat="43.7491" lon="3.85865">
        <ele>82.81</ele>
        <time>2011-10-02T15:22:38Z</time>
      </trkpt>
      <trkpt lat="43.74935" lon="3.85869">
        <ele>82.81</ele>
        <time>2011-10-02T15:22:39Z</time>
      </trkpt>
      <trkpt lat="43.75136" lon="3.85907">
        <ele>83.77</ele>
        <time>2011-10-02T15:22:46Z</time>
      </trkpt>
      <trkpt lat="43.75493" lon="3.85978">
        <ele>88.1</ele>
        <time>2011-10-02T15:22:58Z</time>
      </trkpt>
      <trkpt lat="43.75694" lon="3.86043">
        <ele>87.62</ele>
        <time>2011-10-02T15:23:06Z</time>
      </trkpt>
      <trkpt lat="43.75985" lon="3.86237">
        <ele>90.5</ele>
        <time>2011-10-02T15:23:19Z</time>
      </trkpt>
      <trkpt lat="43.76091" lon="3.86308">
        <ele>90.98</ele>
        <time>2011-10-02T15:23:26Z</time>
      </trkpt>
      <trkpt lat="43.76106" lon="3.86322">
        <ele>90.98</ele>
        <time>2011-10-02T15:23:28Z</time>
      </trkpt>
      <trkpt lat="43.76111" lon="3.8633">
        <ele>90.98</ele>
        <time>2011-10-02T15:23:29Z</time>
      </trkpt>
      <trkpt lat="43.76115" lon="3.86339">
        <ele>90.98</ele>
        <time>2011-10-02T15:23:30Z</time>
      </trkpt>
      <trkpt lat="43.76124" lon="3.86358">
        <ele>90.98</ele>
        <time>2011-10-02T15:23:32Z</time>
      </trkpt>
      <trkpt lat="43.7613" lon="3.86364">
        <ele>91.46</ele>
        <time>2011-10-02T15:23:33Z</time>
      </trkpt>
      <trkpt lat="43.76137" lon="3.86368">
        <ele>91.46</ele>
        <time>2011-10-02T15:23:34Z</time>
      </trkpt>
      <trkpt lat="43.76145" lon="3.8637">
        <ele>91.46</ele>
        <time>2011-10-02T15:23:35Z</time>
      </trkpt>
      <trkpt lat="43.76155" lon="3.86369">
        <ele>91.46</ele>
        <time>2011-10-02T15:23:36Z</time>
      </trkpt>
      <trkpt lat="43.76166" lon="3.86368">
        <ele>91.46</ele>
        <time>2011-10-02T15:23:37Z</time>
      </trkpt>
      <trkpt lat="43.76178" lon="3.86371">
        <ele>91.46</ele>
        <time>2011-10-02T15:23:38Z</time>
      </trkpt>
      <trkpt lat="43.76191" lon="3.86376">
        <ele>91.46</ele>
        <time>2011-10-02T15:23:39Z</time>
      </trkpt>
      <trkpt lat="43.76205" lon="3.86385">
        <ele>91.46</ele>
        <time>2011-10-02T15:23:40Z</time>
      </trkpt>
      <trkpt lat="43.7622" lon="3.86395">
        <ele>91.46</ele>
        <time>2011-10-02T15:23:41Z</time>
      </trkpt>
      <trkpt lat="43.76342" lon="3.86476">
        <ele>91.94</ele>
        <time>2011-10-02T15:23:50Z</time>
      </trkpt>
      <trkpt lat="43.76431" lon="3.86535">
        <ele>93.87</ele>
        <time>2011-10-02T15:23:59Z</time>
      </trkpt>
      <trkpt lat="43.76539" lon="3.86607">
        <ele>95.79</ele>
        <time>2011-10-02T15:24:08Z</time>
      </trkpt>
      <trkpt lat="43.76588" lon="3.86647">
        <ele>96.75</ele>
        <time>2011-10-02T15:24:14Z</time>
      </trkpt>
      <trkpt lat="43.76595" lon="3.86652">
        <ele>96.75</ele>
        <time>2011-10-02T15:24:15Z</time>
      </trkpt>
      <trkpt lat="43.76604" lon="3.86656">
        <ele>97.23</ele>
        <time>2011-10-02T15:24:16Z</time>
      </trkpt>
      <trkpt lat="43.76613" lon="3.8666">
        <ele>97.23</ele>
        <time>2011-10-02T15:24:17Z</time>
      </trkpt>
      <trkpt lat="43.76623" lon="3.86665">
        <ele>97.71</ele>
        <time>2011-10-02T15:24:18Z</time>
      </trkpt>
      <trkpt lat="43.76634" lon="3.86672">
        <ele>97.71</ele>
        <time>2011-10-02T15:24:19Z</time>
      </trkpt>
      <trkpt lat="43.76726" lon="3.86723">
        <ele>99.63</ele>
        <time>2011-10-02T15:24:29Z</time>
      </trkpt>
      <trkpt lat="43.7681" lon="3.86752">
        <ele>99.15</ele>
        <time>2011-10-02T15:24:39Z</time>
      </trkpt>
      <trkpt lat="43.76902" lon="3.86784">
        <ele>98.67</ele>
        <time>2011-10-02T15:24:50Z</time>
      </trkpt>
      <trkpt lat="43.76991" lon="3.86819">
        <ele>97.71</ele>
        <time>2011-10-02T15:25:01Z</time>
      </trkpt>
      <trkpt lat="43.77052" lon="3.86841">
        <ele>98.67</ele>
        <time>2011-10-02T15:25:09Z</time>
      </trkpt>
      <trkpt lat="43.77169" lon="3.86886">
        <ele>99.15</ele>
        <time>2011-10-02T15:25:19Z</time>
      </trkpt>
      <trkpt lat="43.77272" lon="3.86923">
        <ele>103.48</ele>
        <time>2011-10-02T15:25:29Z</time>
      </trkpt>
      <trkpt lat="43.77374" lon="3.86955">
        <ele>108.29</ele>
        <time>2011-10-02T15:25:39Z</time>
      </trkpt>
      <trkpt lat="43.77382" lon="3.86958">
        <ele>108.29</ele>
        <time>2011-10-02T15:25:40Z</time>
      </trkpt>
      <trkpt lat="43.77387" lon="3.86964">
        <ele>108.29</ele>
        <time>2011-10-02T15:25:41Z</time>
      </trkpt>
      <trkpt lat="43.77391" lon="3.8697">
        <ele>108.77</ele>
        <time>2011-10-02T15:25:42Z</time>
      </trkpt>
      <trkpt lat="43.77394" lon="3.86979">
        <ele>108.77</ele>
        <time>2011-10-02T15:25:43Z</time>
      </trkpt>
      <trkpt lat="43.77395" lon="3.8699">
        <ele>108.77</ele>
        <time>2011-10-02T15:25:44Z</time>
      </trkpt>
      <trkpt lat="43.77398" lon="3.87001">
        <ele>108.77</ele>
        <time>2011-10-02T15:25:45Z</time>
      </trkpt>
      <trkpt lat="43.77403" lon="3.87013">
        <ele>108.77</ele>
        <time>2011-10-02T15:25:46Z</time>
      </trkpt>
      <trkpt lat="43.77409" lon="3.87022">
        <ele>108.77</ele>
        <time>2011-10-02T15:25:47Z</time>
      </trkpt>
      <trkpt lat="43.77418" lon="3.87028">
        <ele>108.77</ele>
        <time>2011-10-02T15:25:48Z</time>
      </trkpt>
      <trkpt lat="43.77427" lon="3.87029">
        <ele>108.77</ele>
        <time>2011-10-02T15:25:49Z</time>
      </trkpt>
      <trkpt lat="43.77437" lon="3.87025">
        <ele>108.77</ele>
        <time>2011-10-02T15:25:50Z</time>
      </trkpt>
      <trkpt lat="43.77446" lon="3.87018">
        <ele>108.77</ele>
        <time>2011-10-02T15:25:51Z</time>
      </trkpt>
      <trkpt lat="43.77453" lon="3.87007">
        <ele>108.77</ele>
        <time>2011-10-02T15:25:52Z</time>
      </trkpt>
      <trkpt lat="43.77458" lon="3.86995">
        <ele>108.77</ele>
        <time>2011-10-02T15:25:53Z</time>
      </trkpt>
      <trkpt lat="43.77461" lon="3.86982">
        <ele>108.29</ele>
        <time>2011-10-02T15:25:54Z</time>
      </trkpt>
      <trkpt lat="43.7746" lon="3.8697">
        <ele>108.29</ele>
        <time>2011-10-02T15:25:55Z</time>
      </trkpt>
      <trkpt lat="43.77457" lon="3.86957">
        <ele>108.29</ele>
        <time>2011-10-02T15:25:56Z</time>
      </trkpt>
      <trkpt lat="43.77454" lon="3.86943">
        <ele>108.29</ele>
        <time>2011-10-02T15:25:57Z</time>
      </trkpt>
      <trkpt lat="43.77451" lon="3.86928">
        <ele>107.81</ele>
        <time>2011-10-02T15:25:58Z</time>
      </trkpt>
      <trkpt lat="43.77451" lon="3.86911">
        <ele>107.81</ele>
        <time>2011-10-02T15:25:59Z</time>
      </trkpt>
      <trkpt lat="43.77453" lon="3.86892">
        <ele>107.81</ele>
        <time>2011-10-02T15:26:00Z</time>
      </trkpt>
      <trkpt lat="43.77456" lon="3.86871">
        <ele>107.81</ele>
        <time>2011-10-02T15:26:01Z</time>
      </trkpt>
      <trkpt lat="43.77461" lon="3.86848">
        <ele>107.81</ele>
        <time>2011-10-02T15:26:02Z</time>
      </trkpt>
      <trkpt lat="43.77467" lon="3.86823">
        <ele>107.81</ele>
        <time>2011-10-02T15:26:03Z</time>
      </trkpt>
      <trkpt lat="43.77534" lon="3.86598">
        <ele>104.44</ele>
        <time>2011-10-02T15:26:11Z</time>
      </trkpt>
      <trkpt lat="43.77672" lon="3.86147">
        <ele>105.88</ele>
        <time>2011-10-02T15:26:27Z</time>
      </trkpt>
      <trkpt lat="43.77757" lon="3.85868">
        <ele>111.65</ele>
        <time>2011-10-02T15:26:38Z</time>
      </trkpt>
      <trkpt lat="43.77772" lon="3.85829">
        <ele>112.13</ele>
        <time>2011-10-02T15:26:40Z</time>
      </trkpt>
      <trkpt lat="43.77782" lon="3.85812">
        <ele>112.61</ele>
        <time>2011-10-02T15:26:41Z</time>
      </trkpt>
      <trkpt lat="43.77794" lon="3.85794">
        <ele>113.09</ele>
        <time>2011-10-02T15:26:42Z</time>
      </trkpt>
      <trkpt lat="43.77809" lon="3.85778">
        <ele>113.09</ele>
        <time>2011-10-02T15:26:43Z</time>
      </trkpt>
      <trkpt lat="43.77826" lon="3.8576">
        <ele>113.57</ele>
        <time>2011-10-02T15:26:44Z</time>
      </trkpt>
      <trkpt lat="43.77909" lon="3.85675">
        <ele>115.5</ele>
        <time>2011-10-02T15:26:50Z</time>
      </trkpt>
      <trkpt lat="43.77922" lon="3.85667">
        <ele>115.98</ele>
        <time>2011-10-02T15:26:51Z</time>
      </trkpt>
      <trkpt lat="43.77937" lon="3.85667">
        <ele>115.98</ele>
        <time>2011-10-02T15:26:52Z</time>
      </trkpt>
      <trkpt lat="43.77953" lon="3.85671">
        <ele>116.46</ele>
        <time>2011-10-02T15:26:53Z</time>
      </trkpt>
      <trkpt lat="43.77969" lon="3.85677">
        <ele>116.46</ele>
        <time>2011-10-02T15:26:54Z</time>
      </trkpt>
      <trkpt lat="43.77985" lon="3.85686">
        <ele>116.46</ele>
        <time>2011-10-02T15:26:55Z</time>
      </trkpt>
      <trkpt lat="43.78001" lon="3.85693">
        <ele>116.94</ele>
        <time>2011-10-02T15:26:56Z</time>
      </trkpt>
      <trkpt lat="43.78122" lon="3.85749">
        <ele>117.9</ele>
        <time>2011-10-02T15:27:05Z</time>
      </trkpt>
      <trkpt lat="43.78237" lon="3.85778">
        <ele>118.86</ele>
        <time>2011-10-02T15:27:12Z</time>
      </trkpt>
      <trkpt lat="43.78378" lon="3.85808">
        <ele>118.38</ele>
        <time>2011-10-02T15:27:19Z</time>
      </trkpt>
      <trkpt lat="43.78415" lon="3.8581">
        <ele>118.86</ele>
        <time>2011-10-02T15:27:21Z</time>
      </trkpt>
      <trkpt lat="43.78435" lon="3.85807">
        <ele>119.34</ele>
        <time>2011-10-02T15:27:22Z</time>
      </trkpt>
      <trkpt lat="43.78637" lon="3.85759">
        <ele>119.34</ele>
        <time>2011-10-02T15:27:31Z</time>
      </trkpt>
      <trkpt lat="43.78914" lon="3.85691">
        <ele>122.22</ele>
        <time>2011-10-02T15:27:44Z</time>
      </trkpt>
      <trkpt lat="43.78986" lon="3.85653">
        <ele>123.19</ele>
        <time>2011-10-02T15:27:48Z</time>
      </trkpt>
      <trkpt lat="43.79001" lon="3.85639">
        <ele>123.19</ele>
        <time>2011-10-02T15:27:49Z</time>
      </trkpt>
      <trkpt lat="43.79016" lon="3.85624">
        <ele>123.67</ele>
        <time>2011-10-02T15:27:50Z</time>
      </trkpt>
      <trkpt lat="43.79028" lon="3.85606">
        <ele>123.67</ele>
        <time>2011-10-02T15:27:51Z</time>
      </trkpt>
      <trkpt lat="43.79039" lon="3.85586">
        <ele>124.15</ele>
        <time>2011-10-02T15:27:52Z</time>
      </trkpt>
      <trkpt lat="43.79048" lon="3.85564">
        <ele>124.63</ele>
        <time>2011-10-02T15:27:53Z</time>
      </trkpt>
      <trkpt lat="43.79056" lon="3.85542">
        <ele>124.63</ele>
        <time>2011-10-02T15:27:54Z</time>
      </trkpt>
      <trkpt lat="43.79062" lon="3.85518">
        <ele>125.11</ele>
        <time>2011-10-02T15:27:55Z</time>
      </trkpt>
      <trkpt lat="43.79067" lon="3.85492">
        <ele>125.11</ele>
        <time>2011-10-02T15:27:56Z</time>
      </trkpt>
      <trkpt lat="43.7907" lon="3.85464">
        <ele>125.11</ele>
        <time>2011-10-02T15:27:57Z</time>
      </trkpt>
      <trkpt lat="43.79073" lon="3.85436">
        <ele>124.63</ele>
        <time>2011-10-02T15:27:58Z</time>
      </trkpt>
      <trkpt lat="43.79075" lon="3.85407">
        <ele>124.63</ele>
        <time>2011-10-02T15:27:59Z</time>
      </trkpt>
      <trkpt lat="43.79096" lon="3.85115">
        <ele>126.07</ele>
        <time>2011-10-02T15:28:10Z</time>
      </trkpt>
      <trkpt lat="43.79101" lon="3.85055">
        <ele>126.07</ele>
        <time>2011-10-02T15:28:15Z</time>
      </trkpt>
      <trkpt lat="43.79099" lon="3.85017">
        <ele>126.55</ele>
        <time>2011-10-02T15:28:18Z</time>
      </trkpt>
      <trkpt lat="43.79096" lon="3.84999">
        <ele>126.55</ele>
        <time>2011-10-02T15:28:19Z</time>
      </trkpt>
      <trkpt lat="43.79092" lon="3.84979">
        <ele>126.55</ele>
        <time>2011-10-02T15:28:20Z</time>
      </trkpt>
      <trkpt lat="43.79045" lon="3.84804">
        <ele>126.55</ele>
        <time>2011-10-02T15:28:27Z</time>
      </trkpt>
      <trkpt lat="43.78956" lon="3.84471">
        <ele>131.84</ele>
        <time>2011-10-02T15:28:39Z</time>
      </trkpt>
      <trkpt lat="43.78894" lon="3.84189">
        <ele>137.61</ele>
        <time>2011-10-02T15:28:49Z</time>
      </trkpt>
      <trkpt lat="43.78818" lon="3.83748">
        <ele>150.58</ele>
        <time>2011-10-02T15:29:04Z</time>
      </trkpt>
      <trkpt lat="43.78785" lon="3.83528">
        <ele>157.31</ele>
        <time>2011-10-02T15:29:12Z</time>
      </trkpt>
      <trkpt lat="43.78786" lon="3.83501">
        <ele>157.79</ele>
        <time>2011-10-02T15:29:13Z</time>
      </trkpt>
      <trkpt lat="43.7879" lon="3.83474">
        <ele>158.75</ele>
        <time>2011-10-02T15:29:14Z</time>
      </trkpt>
      <trkpt lat="43.78823" lon="3.8325">
        <ele>163.56</ele>
        <time>2011-10-02T15:29:22Z</time>
      </trkpt>
      <trkpt lat="43.78849" lon="3.83064">
        <ele>169.33</ele>
        <time>2011-10-02T15:29:29Z</time>
      </trkpt>
      <trkpt lat="43.78868" lon="3.82992">
        <ele>171.25</ele>
        <time>2011-10-02T15:29:32Z</time>
      </trkpt>
      <trkpt lat="43.78956" lon="3.82755">
        <ele>179.42</ele>
        <time>2011-10-02T15:29:41Z</time>
      </trkpt>
      <trkpt lat="43.79014" lon="3.82544">
        <ele>187.11</ele>
        <time>2011-10-02T15:29:49Z</time>
      </trkpt>
      <trkpt lat="43.79084" lon="3.82193">
        <ele>197.69</ele>
        <time>2011-10-02T15:30:01Z</time>
      </trkpt>
      <trkpt lat="43.791" lon="3.82008">
        <ele>202.49</ele>
        <time>2011-10-02T15:30:08Z</time>
      </trkpt>
      <trkpt lat="43.79111" lon="3.81608">
        <ele>208.26</ele>
        <time>2011-10-02T15:30:21Z</time>
      </trkpt>
      <trkpt lat="43.79098" lon="3.81244">
        <ele>218.36</ele>
        <time>2011-10-02T15:30:32Z</time>
      </trkpt>
      <trkpt lat="43.79049" lon="3.80966">
        <ele>227.49</ele>
        <time>2011-10-02T15:30:41Z</time>
      </trkpt>
      <trkpt lat="43.79037" lon="3.8092">
        <ele>229.41</ele>
        <time>2011-10-02T15:30:43Z</time>
      </trkpt>
      <trkpt lat="43.79029" lon="3.80899">
        <ele>230.85</ele>
        <time>2011-10-02T15:30:44Z</time>
      </trkpt>
      <trkpt lat="43.79021" lon="3.80881">
        <ele>231.81</ele>
        <time>2011-10-02T15:30:45Z</time>
      </trkpt>
      <trkpt lat="43.79011" lon="3.80865">
        <ele>232.3</ele>
        <time>2011-10-02T15:30:46Z</time>
      </trkpt>
      <trkpt lat="43.79001" lon="3.8085">
        <ele>233.26</ele>
        <time>2011-10-02T15:30:47Z</time>
      </trkpt>
      <trkpt lat="43.78989" lon="3.80837">
        <ele>234.22</ele>
        <time>2011-10-02T15:30:48Z</time>
      </trkpt>
      <trkpt lat="43.78976" lon="3.80825">
        <ele>235.18</ele>
        <time>2011-10-02T15:30:49Z</time>
      </trkpt>
      <trkpt lat="43.7892" lon="3.80769">
        <ele>238.06</ele>
        <time>2011-10-02T15:30:54Z</time>
      </trkpt>
      <trkpt lat="43.7891" lon="3.80754">
        <ele>239.02</ele>
        <time>2011-10-02T15:30:55Z</time>
      </trkpt>
      <trkpt lat="43.78902" lon="3.80738">
        <ele>239.51</ele>
        <time>2011-10-02T15:30:56Z</time>
      </trkpt>
      <trkpt lat="43.78895" lon="3.80721">
        <ele>240.47</ele>
        <time>2011-10-02T15:30:57Z</time>
      </trkpt>
      <trkpt lat="43.78889" lon="3.80703">
        <ele>240.95</ele>
        <time>2011-10-02T15:30:58Z</time>
      </trkpt>
      <trkpt lat="43.78877" lon="3.80672">
        <ele>242.39</ele>
        <time>2011-10-02T15:31:00Z</time>
      </trkpt>
      <trkpt lat="43.7887" lon="3.8066">
        <ele>242.87</ele>
        <time>2011-10-02T15:31:01Z</time>
      </trkpt>
      <trkpt lat="43.78861" lon="3.80651">
        <ele>243.35</ele>
        <time>2011-10-02T15:31:02Z</time>
      </trkpt>
      <trkpt lat="43.78851" lon="3.80644">
        <ele>243.35</ele>
        <time>2011-10-02T15:31:03Z</time>
      </trkpt>
      <trkpt lat="43.78842" lon="3.80639">
        <ele>243.35</ele>
        <time>2011-10-02T15:31:04Z</time>
      </trkpt>
      <trkpt lat="43.78833" lon="3.80634">
        <ele>243.35</ele>
        <time>2011-10-02T15:31:05Z</time>
      </trkpt>
      <trkpt lat="43.78811" lon="3.8062">
        <ele>243.35</ele>
        <time>2011-10-02T15:31:09Z</time>
      </trkpt>
      <trkpt lat="43.78808" lon="3.80617">
        <ele>243.35</ele>
        <time>2011-10-02T15:31:10Z</time>
      </trkpt>
      <trkpt lat="43.78797" lon="3.80602">
        <ele>243.35</ele>
        <time>2011-10-02T15:31:16Z</time>
      </trkpt>
      <trkpt lat="43.78797" lon="3.80601">
        <ele>243.35</ele>
        <time>2011-10-02T15:31:17Z</time>
      </trkpt>
      <trkpt lat="43.78797" lon="3.80599">
        <ele>243.35</ele>
        <time>2011-10-02T15:31:18Z</time>
      </trkpt>
      <trkpt lat="43.78799" lon="3.80599">
        <ele>242.39</ele>
        <time>2011-10-02T15:31:37Z</time>
      </trkpt>
      <trkpt lat="43.78802" lon="3.806">
        <ele>242.39</ele>
        <time>2011-10-02T15:32:31Z</time>
      </trkpt>
      <trkpt lat="43.78804" lon="3.806">
        <ele>242.39</ele>
        <time>2011-10-02T15:32:32Z</time>
      </trkpt>
      <trkpt lat="43.78814" lon="3.80599">
        <ele>241.91</ele>
        <time>2011-10-02T15:32:38Z</time>
      </trkpt>
      <trkpt lat="43.78821" lon="3.80595">
        <ele>241.91</ele>
        <time>2011-10-02T15:32:39Z</time>
      </trkpt>
      <trkpt lat="43.78848" lon="3.80583">
        <ele>240.95</ele>
        <time>2011-10-02T15:32:42Z</time>
      </trkpt>
      <trkpt lat="43.78859" lon="3.80581">
        <ele>240.47</ele>
        <time>2011-10-02T15:32:43Z</time>
      </trkpt>
      <trkpt lat="43.78869" lon="3.80582">
        <ele>239.99</ele>
        <time>2011-10-02T15:32:44Z</time>
      </trkpt>
      <trkpt lat="43.7888" lon="3.80585">
        <ele>239.02</ele>
        <time>2011-10-02T15:32:45Z</time>
      </trkpt>
      <trkpt lat="43.78889" lon="3.8059">
        <ele>238.54</ele>
        <time>2011-10-02T15:32:46Z</time>
      </trkpt>
      <trkpt lat="43.78897" lon="3.80595">
        <ele>238.06</ele>
        <time>2011-10-02T15:32:47Z</time>
      </trkpt>
      <trkpt lat="43.78905" lon="3.80601">
        <ele>237.58</ele>
        <time>2011-10-02T15:32:48Z</time>
      </trkpt>
      <trkpt lat="43.78912" lon="3.80605">
        <ele>237.1</ele>
        <time>2011-10-02T15:32:49Z</time>
      </trkpt>
      <trkpt lat="43.78919" lon="3.80606">
        <ele>236.62</ele>
        <time>2011-10-02T15:32:50Z</time>
      </trkpt>
      <trkpt lat="43.78924" lon="3.80602">
        <ele>236.14</ele>
        <time>2011-10-02T15:32:51Z</time>
      </trkpt>
      <trkpt lat="43.78927" lon="3.80595">
        <ele>235.66</ele>
        <time>2011-10-02T15:32:52Z</time>
      </trkpt>
      <trkpt lat="43.78928" lon="3.80587">
        <ele>234.7</ele>
        <time>2011-10-02T15:32:53Z</time>
      </trkpt>
      <trkpt lat="43.78925" lon="3.80578">
        <ele>234.22</ele>
        <time>2011-10-02T15:32:54Z</time>
      </trkpt>
      <trkpt lat="43.78919" lon="3.80568">
        <ele>233.74</ele>
        <time>2011-10-02T15:32:55Z</time>
      </trkpt>
      <trkpt lat="43.78909" lon="3.8056">
        <ele>233.26</ele>
        <time>2011-10-02T15:32:56Z</time>
      </trkpt>
      <trkpt lat="43.78898" lon="3.80551">
        <ele>233.26</ele>
        <time>2011-10-02T15:32:57Z</time>
      </trkpt>
      <trkpt lat="43.78888" lon="3.80542">
        <ele>233.26</ele>
        <time>2011-10-02T15:32:58Z</time>
      </trkpt>
      <trkpt lat="43.78827" lon="3.80446">
        <ele>228.45</ele>
        <time>2011-10-02T15:33:06Z</time>
      </trkpt>
      <trkpt lat="43.78821" lon="3.80424">
        <ele>227.49</ele>
        <time>2011-10-02T15:33:08Z</time>
      </trkpt>
      <trkpt lat="43.78822" lon="3.80415">
        <ele>227.01</ele>
        <time>2011-10-02T15:33:09Z</time>
      </trkpt>
      <trkpt lat="43.78825" lon="3.80407">
        <ele>226.53</ele>
        <time>2011-10-02T15:33:10Z</time>
      </trkpt>
      <trkpt lat="43.78831" lon="3.80403">
        <ele>226.05</ele>
        <time>2011-10-02T15:33:11Z</time>
      </trkpt>
      <trkpt lat="43.78841" lon="3.80405">
        <ele>225.57</ele>
        <time>2011-10-02T15:33:12Z</time>
      </trkpt>
      <trkpt lat="43.78851" lon="3.80409">
        <ele>225.09</ele>
        <time>2011-10-02T15:33:13Z</time>
      </trkpt>
      <trkpt lat="43.78863" lon="3.80419">
        <ele>224.61</ele>
        <time>2011-10-02T15:33:14Z</time>
      </trkpt>
      <trkpt lat="43.78875" lon="3.80431">
        <ele>224.12</ele>
        <time>2011-10-02T15:33:15Z</time>
      </trkpt>
      <trkpt lat="43.78889" lon="3.80445">
        <ele>223.64</ele>
        <time>2011-10-02T15:33:16Z</time>
      </trkpt>
      <trkpt lat="43.78975" lon="3.80552">
        <ele>218.36</ele>
        <time>2011-10-02T15:33:23Z</time>
      </trkpt>
      <trkpt lat="43.78985" lon="3.80559">
        <ele>217.4</ele>
        <time>2011-10-02T15:33:24Z</time>
      </trkpt>
      <trkpt lat="43.78996" lon="3.80561">
        <ele>216.91</ele>
        <time>2011-10-02T15:33:25Z</time>
      </trkpt>
      <trkpt lat="43.79006" lon="3.80558">
        <ele>216.43</ele>
        <time>2011-10-02T15:33:26Z</time>
      </trkpt>
      <trkpt lat="43.79017" lon="3.80549">
        <ele>215.47</ele>
        <time>2011-10-02T15:33:27Z</time>
      </trkpt>
      <trkpt lat="43.79028" lon="3.80536">
        <ele>214.51</ele>
        <time>2011-10-02T15:33:28Z</time>
      </trkpt>
      <trkpt lat="43.79039" lon="3.8052">
        <ele>214.03</ele>
        <time>2011-10-02T15:33:29Z</time>
      </trkpt>
      <trkpt lat="43.79103" lon="3.80419">
        <ele>208.74</ele>
        <time>2011-10-02T15:33:35Z</time>
      </trkpt>
      <trkpt lat="43.79115" lon="3.80404">
        <ele>208.26</ele>
        <time>2011-10-02T15:33:36Z</time>
      </trkpt>
      <trkpt lat="43.7913" lon="3.80391">
        <ele>206.82</ele>
        <time>2011-10-02T15:33:37Z</time>
      </trkpt>
      <trkpt lat="43.79147" lon="3.80379">
        <ele>206.34</ele>
        <time>2011-10-02T15:33:38Z</time>
      </trkpt>
      <trkpt lat="43.79165" lon="3.80366">
        <ele>205.38</ele>
        <time>2011-10-02T15:33:39Z</time>
      </trkpt>
      <trkpt lat="43.7931" lon="3.80265">
        <ele>197.21</ele>
        <time>2011-10-02T15:33:47Z</time>
      </trkpt>
      <trkpt lat="43.79323" lon="3.80248">
        <ele>196.25</ele>
        <time>2011-10-02T15:33:48Z</time>
      </trkpt>
      <trkpt lat="43.79336" lon="3.8023">
        <ele>194.8</ele>
        <time>2011-10-02T15:33:49Z</time>
      </trkpt>
      <trkpt lat="43.79346" lon="3.8021">
        <ele>193.84</ele>
        <time>2011-10-02T15:33:50Z</time>
      </trkpt>
      <trkpt lat="43.79355" lon="3.80189">
        <ele>193.36</ele>
        <time>2011-10-02T15:33:51Z</time>
      </trkpt>
      <trkpt lat="43.79361" lon="3.80168">
        <ele>192.4</ele>
        <time>2011-10-02T15:33:52Z</time>
      </trkpt>
      <trkpt lat="43.79366" lon="3.80148">
        <ele>191.92</ele>
        <time>2011-10-02T15:33:53Z</time>
      </trkpt>
      <trkpt lat="43.7937" lon="3.80128">
        <ele>190.96</ele>
        <time>2011-10-02T15:33:54Z</time>
      </trkpt>
      <trkpt lat="43.79376" lon="3.80097">
        <ele>189.52</ele>
        <time>2011-10-02T15:33:56Z</time>
      </trkpt>
      <trkpt lat="43.79381" lon="3.80085">
        <ele>189.04</ele>
        <time>2011-10-02T15:33:57Z</time>
      </trkpt>
      <trkpt lat="43.79388" lon="3.80075">
        <ele>188.56</ele>
        <time>2011-10-02T15:33:58Z</time>
      </trkpt>
      <trkpt lat="43.79397" lon="3.80064">
        <ele>188.08</ele>
        <time>2011-10-02T15:33:59Z</time>
      </trkpt>
      <trkpt lat="43.79408" lon="3.80051">
        <ele>187.59</ele>
        <time>2011-10-02T15:34:00Z</time>
      </trkpt>
      <trkpt lat="43.7947" lon="3.79941">
        <ele>187.59</ele>
        <time>2011-10-02T15:34:06Z</time>
      </trkpt>
      <trkpt lat="43.79481" lon="3.79923">
        <ele>188.56</ele>
        <time>2011-10-02T15:34:07Z</time>
      </trkpt>
      <trkpt lat="43.79494" lon="3.79907">
        <ele>188.56</ele>
        <time>2011-10-02T15:34:08Z</time>
      </trkpt>
      <trkpt lat="43.79614" lon="3.79784">
        <ele>187.11</ele>
        <time>2011-10-02T15:34:15Z</time>
      </trkpt>
      <trkpt lat="43.79766" lon="3.79674">
        <ele>184.71</ele>
        <time>2011-10-02T15:34:23Z</time>
      </trkpt>
      <trkpt lat="43.80037" lon="3.79518">
        <ele>182.31</ele>
        <time>2011-10-02T15:34:35Z</time>
      </trkpt>
      <trkpt lat="43.80149" lon="3.79421">
        <ele>181.35</ele>
        <time>2011-10-02T15:34:41Z</time>
      </trkpt>
      <trkpt lat="43.80165" lon="3.79402">
        <ele>181.35</ele>
        <time>2011-10-02T15:34:42Z</time>
      </trkpt>
      <trkpt lat="43.80179" lon="3.79379">
        <ele>181.35</ele>
        <time>2011-10-02T15:34:43Z</time>
      </trkpt>
      <trkpt lat="43.80269" lon="3.79204">
        <ele>180.38</ele>
        <time>2011-10-02T15:34:50Z</time>
      </trkpt>
      <trkpt lat="43.80284" lon="3.79188">
        <ele>179.9</ele>
        <time>2011-10-02T15:34:51Z</time>
      </trkpt>
      <trkpt lat="43.80301" lon="3.79174">
        <ele>179.42</ele>
        <time>2011-10-02T15:34:52Z</time>
      </trkpt>
      <trkpt lat="43.80321" lon="3.7916">
        <ele>178.94</ele>
        <time>2011-10-02T15:34:53Z</time>
      </trkpt>
      <trkpt lat="43.80342" lon="3.79147">
        <ele>178.46</ele>
        <time>2011-10-02T15:34:54Z</time>
      </trkpt>
      <trkpt lat="43.80472" lon="3.79054">
        <ele>177.02</ele>
        <time>2011-10-02T15:35:01Z</time>
      </trkpt>
      <trkpt lat="43.80487" lon="3.79035">
        <ele>177.02</ele>
        <time>2011-10-02T15:35:02Z</time>
      </trkpt>
      <trkpt lat="43.80501" lon="3.79012">
        <ele>177.5</ele>
        <time>2011-10-02T15:35:03Z</time>
      </trkpt>
      <trkpt lat="43.80614" lon="3.78878">
        <ele>177.5</ele>
        <time>2011-10-02T15:35:10Z</time>
      </trkpt>
      <trkpt lat="43.80726" lon="3.78765">
        <ele>177.5</ele>
        <time>2011-10-02T15:35:17Z</time>
      </trkpt>
      <trkpt lat="43.80859" lon="3.78626">
        <ele>178.94</ele>
        <time>2011-10-02T15:35:25Z</time>
      </trkpt>
      <trkpt lat="43.80947" lon="3.78539">
        <ele>179.9</ele>
        <time>2011-10-02T15:35:32Z</time>
      </trkpt>
      <trkpt lat="43.80958" lon="3.78531">
        <ele>179.9</ele>
        <time>2011-10-02T15:35:33Z</time>
      </trkpt>
      <trkpt lat="43.80968" lon="3.78526">
        <ele>179.9</ele>
        <time>2011-10-02T15:35:34Z</time>
      </trkpt>
      <trkpt lat="43.80977" lon="3.78524">
        <ele>180.38</ele>
        <time>2011-10-02T15:35:35Z</time>
      </trkpt>
      <trkpt lat="43.80984" lon="3.78524">
        <ele>180.38</ele>
        <time>2011-10-02T15:35:36Z</time>
      </trkpt>
      <trkpt lat="43.80988" lon="3.78525">
        <ele>180.38</ele>
        <time>2011-10-02T15:35:37Z</time>
      </trkpt>
      <trkpt lat="43.8099" lon="3.78523">
        <ele>180.38</ele>
        <time>2011-10-02T15:35:38Z</time>
      </trkpt>
      <trkpt lat="43.80991" lon="3.78519">
        <ele>180.38</ele>
        <time>2011-10-02T15:35:39Z</time>
      </trkpt>
      <trkpt lat="43.8099" lon="3.78514">
        <ele>180.38</ele>
        <time>2011-10-02T15:35:40Z</time>
      </trkpt>
      <trkpt lat="43.80988" lon="3.7851">
        <ele>180.38</ele>
        <time>2011-10-02T15:35:41Z</time>
      </trkpt>
      <trkpt lat="43.80986" lon="3.78509">
        <ele>179.9</ele>
        <time>2011-10-02T15:35:42Z</time>
      </trkpt>
      <trkpt lat="43.80983" lon="3.7851">
        <ele>179.42</ele>
        <time>2011-10-02T15:35:43Z</time>
      </trkpt>
      <trkpt lat="43.80981" lon="3.78513">
        <ele>178.94</ele>
        <time>2011-10-02T15:35:44Z</time>
      </trkpt>
      <trkpt lat="43.80979" lon="3.78517">
        <ele>178.94</ele>
        <time>2011-10-02T15:35:45Z</time>
      </trkpt>
      <trkpt lat="43.80976" lon="3.78521">
        <ele>178.46</ele>
        <time>2011-10-02T15:35:46Z</time>
      </trkpt>
      <trkpt lat="43.80971" lon="3.78524">
        <ele>177.98</ele>
        <time>2011-10-02T15:35:47Z</time>
      </trkpt>
      <trkpt lat="43.80905" lon="3.7858">
        <ele>177.98</ele>
        <time>2011-10-02T15:35:52Z</time>
      </trkpt>
      <trkpt lat="43.80774" lon="3.78713">
        <ele>175.1</ele>
        <time>2011-10-02T15:35:59Z</time>
      </trkpt>
      <trkpt lat="43.80649" lon="3.78843">
        <ele>176.54</ele>
        <time>2011-10-02T15:36:07Z</time>
      </trkpt>
      <trkpt lat="43.80531" lon="3.78965">
        <ele>176.54</ele>
        <time>2011-10-02T15:36:14Z</time>
      </trkpt>
      <trkpt lat="43.80453" lon="3.79073">
        <ele>176.06</ele>
        <time>2011-10-02T15:36:19Z</time>
      </trkpt>
      <trkpt lat="43.80434" lon="3.7909">
        <ele>176.06</ele>
        <time>2011-10-02T15:36:20Z</time>
      </trkpt>
      <trkpt lat="43.80414" lon="3.79105">
        <ele>176.06</ele>
        <time>2011-10-02T15:36:21Z</time>
      </trkpt>
      <trkpt lat="43.80258" lon="3.79215">
        <ele>178.46</ele>
        <time>2011-10-02T15:36:29Z</time>
      </trkpt>
      <trkpt lat="43.80245" lon="3.79235">
        <ele>178.94</ele>
        <time>2011-10-02T15:36:30Z</time>
      </trkpt>
      <trkpt lat="43.80233" lon="3.79258">
        <ele>179.42</ele>
        <time>2011-10-02T15:36:31Z</time>
      </trkpt>
      <trkpt lat="43.80146" lon="3.79426">
        <ele>180.38</ele>
        <time>2011-10-02T15:36:38Z</time>
      </trkpt>
      <trkpt lat="43.80129" lon="3.79444">
        <ele>180.87</ele>
        <time>2011-10-02T15:36:39Z</time>
      </trkpt>
      <trkpt lat="43.79986" lon="3.79554">
        <ele>181.35</ele>
        <time>2011-10-02T15:36:46Z</time>
      </trkpt>
      <trkpt lat="43.79736" lon="3.79698">
        <ele>183.75</ele>
        <time>2011-10-02T15:36:57Z</time>
      </trkpt>
      <trkpt lat="43.79622" lon="3.79778">
        <ele>185.19</ele>
        <time>2011-10-02T15:37:04Z</time>
      </trkpt>
      <trkpt lat="43.79525" lon="3.79872">
        <ele>187.59</ele>
        <time>2011-10-02T15:37:12Z</time>
      </trkpt>
      <trkpt lat="43.79462" lon="3.79949">
        <ele>188.08</ele>
        <time>2011-10-02T15:37:17Z</time>
      </trkpt>
      <trkpt lat="43.79452" lon="3.79967">
        <ele>188.08</ele>
        <time>2011-10-02T15:37:18Z</time>
      </trkpt>
      <trkpt lat="43.7939" lon="3.80073">
        <ele>188.08</ele>
        <time>2011-10-02T15:37:25Z</time>
      </trkpt>
      <trkpt lat="43.79384" lon="3.80077">
        <ele>188.08</ele>
        <time>2011-10-02T15:37:26Z</time>
      </trkpt>
      <trkpt lat="43.79379" lon="3.80079">
        <ele>188.08</ele>
        <time>2011-10-02T15:37:27Z</time>
      </trkpt>
      <trkpt lat="43.79375" lon="3.80078">
        <ele>188.56</ele>
        <time>2011-10-02T15:37:28Z</time>
      </trkpt>
      <trkpt lat="43.79372" lon="3.80076">
        <ele>188.56</ele>
        <time>2011-10-02T15:37:29Z</time>
      </trkpt>
      <trkpt lat="43.7937" lon="3.80073">
        <ele>188.56</ele>
        <time>2011-10-02T15:37:30Z</time>
      </trkpt>
      <trkpt lat="43.79369" lon="3.8007">
        <ele>188.08</ele>
        <time>2011-10-02T15:37:31Z</time>
      </trkpt>
      <trkpt lat="43.79369" lon="3.80068">
        <ele>187.59</ele>
        <time>2011-10-02T15:37:34Z</time>
      </trkpt>
      <trkpt lat="43.79369" lon="3.80059">
        <ele>187.59</ele>
        <time>2011-10-02T15:37:35Z</time>
      </trkpt>
      <trkpt lat="43.79369" lon="3.80044">
        <ele>187.11</ele>
        <time>2011-10-02T15:37:36Z</time>
      </trkpt>
      <trkpt lat="43.79354" lon="3.79929">
        <ele>185.19</ele>
        <time>2011-10-02T15:37:41Z</time>
      </trkpt>
      <trkpt lat="43.79317" lon="3.79731">
        <ele>185.19</ele>
        <time>2011-10-02T15:37:47Z</time>
      </trkpt>
      <trkpt lat="43.79306" lon="3.79702">
        <ele>185.19</ele>
        <time>2011-10-02T15:37:48Z</time>
      </trkpt>
      <trkpt lat="43.79292" lon="3.79674">
        <ele>185.19</ele>
        <time>2011-10-02T15:37:49Z</time>
      </trkpt>
      <trkpt lat="43.79278" lon="3.79649">
        <ele>185.67</ele>
        <time>2011-10-02T15:37:50Z</time>
      </trkpt>
      <trkpt lat="43.79262" lon="3.79627">
        <ele>186.15</ele>
        <time>2011-10-02T15:37:51Z</time>
      </trkpt>
      <trkpt lat="43.79246" lon="3.79606">
        <ele>186.15</ele>
        <time>2011-10-02T15:37:52Z</time>
      </trkpt>
      <trkpt lat="43.79208" lon="3.79543">
        <ele>185.67</ele>
        <time>2011-10-02T15:37:55Z</time>
      </trkpt>
      <trkpt lat="43.79199" lon="3.7952">
        <ele>185.67</ele>
        <time>2011-10-02T15:37:56Z</time>
      </trkpt>
      <trkpt lat="43.79191" lon="3.79494">
        <ele>185.67</ele>
        <time>2011-10-02T15:37:57Z</time>
      </trkpt>
      <trkpt lat="43.79186" lon="3.79467">
        <ele>186.15</ele>
        <time>2011-10-02T15:37:58Z</time>
      </trkpt>
      <trkpt lat="43.79184" lon="3.79439">
        <ele>186.15</ele>
        <time>2011-10-02T15:37:59Z</time>
      </trkpt>
      <trkpt lat="43.79184" lon="3.79411">
        <ele>186.15</ele>
        <time>2011-10-02T15:38:00Z</time>
      </trkpt>
      <trkpt lat="43.79186" lon="3.79381">
        <ele>186.15</ele>
        <time>2011-10-02T15:38:01Z</time>
      </trkpt>
      <trkpt lat="43.79192" lon="3.7935">
        <ele>186.63</ele>
        <time>2011-10-02T15:38:02Z</time>
      </trkpt>
      <trkpt lat="43.79199" lon="3.79318">
        <ele>186.63</ele>
        <time>2011-10-02T15:38:03Z</time>
      </trkpt>
      <trkpt lat="43.79244" lon="3.79097">
        <ele>185.19</ele>
        <time>2011-10-02T15:38:10Z</time>
      </trkpt>
      <trkpt lat="43.79244" lon="3.79067">
        <ele>184.71</ele>
        <time>2011-10-02T15:38:11Z</time>
      </trkpt>
      <trkpt lat="43.79242" lon="3.79034">
        <ele>184.71</ele>
        <time>2011-10-02T15:38:12Z</time>
      </trkpt>
      <trkpt lat="43.79225" lon="3.78801">
        <ele>184.71</ele>
        <time>2011-10-02T15:38:19Z</time>
      </trkpt>
      <trkpt lat="43.79229" lon="3.7877">
        <ele>185.19</ele>
        <time>2011-10-02T15:38:20Z</time>
      </trkpt>
      <trkpt lat="43.79234" lon="3.78738">
        <ele>185.67</ele>
        <time>2011-10-02T15:38:21Z</time>
      </trkpt>
      <trkpt lat="43.79242" lon="3.78705">
        <ele>186.63</ele>
        <time>2011-10-02T15:38:22Z</time>
      </trkpt>
      <trkpt lat="43.79252" lon="3.78673">
        <ele>187.11</ele>
        <time>2011-10-02T15:38:23Z</time>
      </trkpt>
      <trkpt lat="43.79263" lon="3.7864">
        <ele>187.59</ele>
        <time>2011-10-02T15:38:24Z</time>
      </trkpt>
      <trkpt lat="43.79334" lon="3.78457">
        <ele>188.56</ele>
        <time>2011-10-02T15:38:30Z</time>
      </trkpt>
      <trkpt lat="43.79349" lon="3.78433">
        <ele>188.56</ele>
        <time>2011-10-02T15:38:31Z</time>
      </trkpt>
      <trkpt lat="43.79367" lon="3.78409">
        <ele>188.08</ele>
        <time>2011-10-02T15:38:32Z</time>
      </trkpt>
      <trkpt lat="43.79454" lon="3.78306">
        <ele>187.11</ele>
        <time>2011-10-02T15:38:37Z</time>
      </trkpt>
      <trkpt lat="43.79465" lon="3.78285">
        <ele>187.11</ele>
        <time>2011-10-02T15:38:38Z</time>
      </trkpt>
      <trkpt lat="43.79473" lon="3.78261">
        <ele>187.11</ele>
        <time>2011-10-02T15:38:39Z</time>
      </trkpt>
      <trkpt lat="43.79478" lon="3.78235">
        <ele>187.11</ele>
        <time>2011-10-02T15:38:40Z</time>
      </trkpt>
      <trkpt lat="43.7948" lon="3.78208">
        <ele>186.63</ele>
        <time>2011-10-02T15:38:41Z</time>
      </trkpt>
      <trkpt lat="43.79477" lon="3.7818">
        <ele>187.11</ele>
        <time>2011-10-02T15:38:42Z</time>
      </trkpt>
      <trkpt lat="43.79473" lon="3.78151">
        <ele>186.63</ele>
        <time>2011-10-02T15:38:43Z</time>
      </trkpt>
      <trkpt lat="43.79469" lon="3.78121">
        <ele>186.63</ele>
        <time>2011-10-02T15:38:44Z</time>
      </trkpt>
      <trkpt lat="43.79467" lon="3.7809">
        <ele>186.63</ele>
        <time>2011-10-02T15:38:45Z</time>
      </trkpt>
      <trkpt lat="43.79468" lon="3.78058">
        <ele>187.11</ele>
        <time>2011-10-02T15:38:46Z</time>
      </trkpt>
      <trkpt lat="43.79471" lon="3.78024">
        <ele>187.11</ele>
        <time>2011-10-02T15:38:47Z</time>
      </trkpt>
      <trkpt lat="43.79515" lon="3.77788">
        <ele>186.63</ele>
        <time>2011-10-02T15:38:54Z</time>
      </trkpt>
      <trkpt lat="43.79535" lon="3.77708">
        <ele>185.67</ele>
        <time>2011-10-02T15:38:57Z</time>
      </trkpt>
      <trkpt lat="43.79537" lon="3.77681">
        <ele>185.67</ele>
        <time>2011-10-02T15:38:58Z</time>
      </trkpt>
      <trkpt lat="43.79533" lon="3.7765">
        <ele>185.67</ele>
        <time>2011-10-02T15:38:59Z</time>
      </trkpt>
      <trkpt lat="43.79529" lon="3.77619">
        <ele>185.19</ele>
        <time>2011-10-02T15:39:00Z</time>
      </trkpt>
      <trkpt lat="43.79523" lon="3.77585">
        <ele>184.71</ele>
        <time>2011-10-02T15:39:01Z</time>
      </trkpt>
      <trkpt lat="43.79475" lon="3.77349">
        <ele>181.35</ele>
        <time>2011-10-02T15:39:07Z</time>
      </trkpt>
      <trkpt lat="43.79408" lon="3.77014">
        <ele>177.5</ele>
        <time>2011-10-02T15:39:16Z</time>
      </trkpt>
      <trkpt lat="43.79394" lon="3.7683">
        <ele>177.98</ele>
        <time>2011-10-02T15:39:23Z</time>
      </trkpt>
      <trkpt lat="43.79388" lon="3.76805">
        <ele>177.98</ele>
        <time>2011-10-02T15:39:24Z</time>
      </trkpt>
      <trkpt lat="43.79381" lon="3.76778">
        <ele>177.98</ele>
        <time>2011-10-02T15:39:25Z</time>
      </trkpt>
      <trkpt lat="43.7937" lon="3.7675">
        <ele>178.46</ele>
        <time>2011-10-02T15:39:26Z</time>
      </trkpt>
      <trkpt lat="43.79358" lon="3.76719">
        <ele>178.46</ele>
        <time>2011-10-02T15:39:27Z</time>
      </trkpt>
      <trkpt lat="43.79255" lon="3.76441">
        <ele>178.94</ele>
        <time>2011-10-02T15:39:35Z</time>
      </trkpt>
      <trkpt lat="43.79152" lon="3.76178">
        <ele>177.02</ele>
        <time>2011-10-02T15:39:43Z</time>
      </trkpt>
      <trkpt lat="43.79092" lon="3.76092">
        <ele>179.42</ele>
        <time>2011-10-02T15:39:47Z</time>
      </trkpt>
      <trkpt lat="43.79074" lon="3.76076">
        <ele>179.9</ele>
        <time>2011-10-02T15:39:48Z</time>
      </trkpt>
      <trkpt lat="43.79054" lon="3.76063">
        <ele>180.87</ele>
        <time>2011-10-02T15:39:49Z</time>
      </trkpt>
      <trkpt lat="43.79033" lon="3.76052">
        <ele>181.83</ele>
        <time>2011-10-02T15:39:50Z</time>
      </trkpt>
      <trkpt lat="43.79011" lon="3.7604">
        <ele>182.79</ele>
        <time>2011-10-02T15:39:51Z</time>
      </trkpt>
      <trkpt lat="43.78881" lon="3.7594">
        <ele>187.11</ele>
        <time>2011-10-02T15:39:58Z</time>
      </trkpt>
      <trkpt lat="43.78755" lon="3.75846">
        <ele>190.96</ele>
        <time>2011-10-02T15:40:06Z</time>
      </trkpt>
      <trkpt lat="43.78618" lon="3.75774">
        <ele>196.25</ele>
        <time>2011-10-02T15:40:15Z</time>
      </trkpt>
      <trkpt lat="43.78598" lon="3.75756">
        <ele>197.69</ele>
        <time>2011-10-02T15:40:17Z</time>
      </trkpt>
      <trkpt lat="43.78589" lon="3.75744">
        <ele>198.17</ele>
        <time>2011-10-02T15:40:18Z</time>
      </trkpt>
      <trkpt lat="43.78582" lon="3.7573">
        <ele>198.65</ele>
        <time>2011-10-02T15:40:19Z</time>
      </trkpt>
      <trkpt lat="43.78576" lon="3.75714">
        <ele>199.61</ele>
        <time>2011-10-02T15:40:20Z</time>
      </trkpt>
      <trkpt lat="43.7857" lon="3.75697">
        <ele>199.61</ele>
        <time>2011-10-02T15:40:21Z</time>
      </trkpt>
      <trkpt lat="43.78525" lon="3.7555">
        <ele>200.09</ele>
        <time>2011-10-02T15:40:29Z</time>
      </trkpt>
      <trkpt lat="43.78522" lon="3.7553">
        <ele>200.09</ele>
        <time>2011-10-02T15:40:30Z</time>
      </trkpt>
      <trkpt lat="43.78492" lon="3.7534">
        <ele>200.09</ele>
        <time>2011-10-02T15:40:39Z</time>
      </trkpt>
      <trkpt lat="43.78452" lon="3.75142">
        <ele>200.57</ele>
        <time>2011-10-02T15:40:46Z</time>
      </trkpt>
      <trkpt lat="43.78428" lon="3.75025">
        <ele>203.94</ele>
        <time>2011-10-02T15:40:50Z</time>
      </trkpt>
      <trkpt lat="43.78427" lon="3.74999">
        <ele>204.9</ele>
        <time>2011-10-02T15:40:51Z</time>
      </trkpt>
      <trkpt lat="43.7843" lon="3.74973">
        <ele>205.38</ele>
        <time>2011-10-02T15:40:52Z</time>
      </trkpt>
      <trkpt lat="43.78437" lon="3.74949">
        <ele>205.38</ele>
        <time>2011-10-02T15:40:53Z</time>
      </trkpt>
      <trkpt lat="43.78447" lon="3.74925">
        <ele>204.9</ele>
        <time>2011-10-02T15:40:54Z</time>
      </trkpt>
      <trkpt lat="43.78459" lon="3.74902">
        <ele>204.42</ele>
        <time>2011-10-02T15:40:55Z</time>
      </trkpt>
      <trkpt lat="43.78479" lon="3.74853">
        <ele>202.49</ele>
        <time>2011-10-02T15:40:57Z</time>
      </trkpt>
      <trkpt lat="43.78486" lon="3.74825">
        <ele>201.53</ele>
        <time>2011-10-02T15:40:58Z</time>
      </trkpt>
      <trkpt lat="43.78491" lon="3.74798">
        <ele>201.05</ele>
        <time>2011-10-02T15:40:59Z</time>
      </trkpt>
      <trkpt lat="43.78511" lon="3.74669">
        <ele>199.13</ele>
        <time>2011-10-02T15:41:05Z</time>
      </trkpt>
      <trkpt lat="43.78518" lon="3.74629">
        <ele>199.13</ele>
        <time>2011-10-02T15:41:07Z</time>
      </trkpt>
      <trkpt lat="43.78561" lon="3.74465">
        <ele>199.13</ele>
        <time>2011-10-02T15:41:13Z</time>
      </trkpt>
      <trkpt lat="43.78639" lon="3.74196">
        <ele>199.61</ele>
        <time>2011-10-02T15:41:22Z</time>
      </trkpt>
      <trkpt lat="43.78673" lon="3.74118">
        <ele>200.57</ele>
        <time>2011-10-02T15:41:25Z</time>
      </trkpt>
      <trkpt lat="43.78686" lon="3.74098">
        <ele>200.57</ele>
        <time>2011-10-02T15:41:26Z</time>
      </trkpt>
      <trkpt lat="43.787" lon="3.7408">
        <ele>200.09</ele>
        <time>2011-10-02T15:41:27Z</time>
      </trkpt>
      <trkpt lat="43.78747" lon="3.74035">
        <ele>199.13</ele>
        <time>2011-10-02T15:41:30Z</time>
      </trkpt>
      <trkpt lat="43.78765" lon="3.74024">
        <ele>199.13</ele>
        <time>2011-10-02T15:41:31Z</time>
      </trkpt>
      <trkpt lat="43.78823" lon="3.7399">
        <ele>197.21</ele>
        <time>2011-10-02T15:41:34Z</time>
      </trkpt>
      <trkpt lat="43.78841" lon="3.73975">
        <ele>196.25</ele>
        <time>2011-10-02T15:41:35Z</time>
      </trkpt>
      <trkpt lat="43.78915" lon="3.73896">
        <ele>192.88</ele>
        <time>2011-10-02T15:41:40Z</time>
      </trkpt>
      <trkpt lat="43.78924" lon="3.73878">
        <ele>192.4</ele>
        <time>2011-10-02T15:41:41Z</time>
      </trkpt>
      <trkpt lat="43.78931" lon="3.7386">
        <ele>191.92</ele>
        <time>2011-10-02T15:41:42Z</time>
      </trkpt>
      <trkpt lat="43.78936" lon="3.7384">
        <ele>191.44</ele>
        <time>2011-10-02T15:41:43Z</time>
      </trkpt>
      <trkpt lat="43.78939" lon="3.7382">
        <ele>191.44</ele>
        <time>2011-10-02T15:41:44Z</time>
      </trkpt>
      <trkpt lat="43.78941" lon="3.73801">
        <ele>190.96</ele>
        <time>2011-10-02T15:41:45Z</time>
      </trkpt>
      <trkpt lat="43.78942" lon="3.73782">
        <ele>190.96</ele>
        <time>2011-10-02T15:41:46Z</time>
      </trkpt>
      <trkpt lat="43.78951" lon="3.73696">
        <ele>190</ele>
        <time>2011-10-02T15:41:52Z</time>
      </trkpt>
      <trkpt lat="43.78955" lon="3.73687">
        <ele>190</ele>
        <time>2011-10-02T15:41:53Z</time>
      </trkpt>
      <trkpt lat="43.7896" lon="3.73679">
        <ele>190</ele>
        <time>2011-10-02T15:41:54Z</time>
      </trkpt>
      <trkpt lat="43.78967" lon="3.73673">
        <ele>189.52</ele>
        <time>2011-10-02T15:41:55Z</time>
      </trkpt>
      <trkpt lat="43.78975" lon="3.73669">
        <ele>189.52</ele>
        <time>2011-10-02T15:41:56Z</time>
      </trkpt>
      <trkpt lat="43.78985" lon="3.73667">
        <ele>189.52</ele>
        <time>2011-10-02T15:41:57Z</time>
      </trkpt>
      <trkpt lat="43.78995" lon="3.73667">
        <ele>189.04</ele>
        <time>2011-10-02T15:41:58Z</time>
      </trkpt>
      <trkpt lat="43.79005" lon="3.73668">
        <ele>189.04</ele>
        <time>2011-10-02T15:41:59Z</time>
      </trkpt>
      <trkpt lat="43.79037" lon="3.73672">
        <ele>188.56</ele>
        <time>2011-10-02T15:42:05Z</time>
      </trkpt>
      <trkpt lat="43.79038" lon="3.73674">
        <ele>188.56</ele>
        <time>2011-10-02T15:42:19Z</time>
      </trkpt>
      <trkpt lat="43.79037" lon="3.73678">
        <ele>189.52</ele>
        <time>2011-10-02T15:44:49Z</time>
      </trkpt>
      <trkpt lat="43.79063" lon="3.73675">
        <ele>190</ele>
        <time>2011-10-02T15:45:24Z</time>
      </trkpt>
      <trkpt lat="43.79147" lon="3.73681">
        <ele>190</ele>
        <time>2011-10-02T15:45:29Z</time>
      </trkpt>
      <trkpt lat="43.79282" lon="3.73739">
        <ele>188.08</ele>
        <time>2011-10-02T15:45:35Z</time>
      </trkpt>
      <trkpt lat="43.79435" lon="3.73883">
        <ele>185.19</ele>
        <time>2011-10-02T15:45:42Z</time>
      </trkpt>
      <trkpt lat="43.79567" lon="3.7398">
        <ele>182.79</ele>
        <time>2011-10-02T15:45:48Z</time>
      </trkpt>
      <trkpt lat="43.79715" lon="3.74003">
        <ele>183.27</ele>
        <time>2011-10-02T15:45:54Z</time>
      </trkpt>
      <trkpt lat="43.79859" lon="3.73946">
        <ele>190</ele>
        <time>2011-10-02T15:46:00Z</time>
      </trkpt>
      <trkpt lat="43.79954" lon="3.73887">
        <ele>195.28</ele>
        <time>2011-10-02T15:46:06Z</time>
      </trkpt>
      <trkpt lat="43.80002" lon="3.73854">
        <ele>197.69</ele>
        <time>2011-10-02T15:46:12Z</time>
      </trkpt>
      <trkpt lat="43.80007" lon="3.73849">
        <ele>197.21</ele>
        <time>2011-10-02T15:46:20Z</time>
      </trkpt>
      <trkpt lat="43.80006" lon="3.73846">
        <ele>196.73</ele>
        <time>2011-10-02T15:46:32Z</time>
      </trkpt>
      <trkpt lat="43.80006" lon="3.7384">
        <ele>196.73</ele>
        <time>2011-10-02T15:46:33Z</time>
      </trkpt>
      <trkpt lat="43.80003" lon="3.7383">
        <ele>196.73</ele>
        <time>2011-10-02T15:46:34Z</time>
      </trkpt>
      <trkpt lat="43.79999" lon="3.73819">
        <ele>196.73</ele>
        <time>2011-10-02T15:46:35Z</time>
      </trkpt>
      <trkpt lat="43.79993" lon="3.73808">
        <ele>197.21</ele>
        <time>2011-10-02T15:46:36Z</time>
      </trkpt>
      <trkpt lat="43.79986" lon="3.73796">
        <ele>197.21</ele>
        <time>2011-10-02T15:46:37Z</time>
      </trkpt>
      <trkpt lat="43.79976" lon="3.73785">
        <ele>197.69</ele>
        <time>2011-10-02T15:46:38Z</time>
      </trkpt>
      <trkpt lat="43.79963" lon="3.73774">
        <ele>199.13</ele>
        <time>2011-10-02T15:46:39Z</time>
      </trkpt>
      <trkpt lat="43.79948" lon="3.73765">
        <ele>200.57</ele>
        <time>2011-10-02T15:46:40Z</time>
      </trkpt>
      <trkpt lat="43.79932" lon="3.73757">
        <ele>201.05</ele>
        <time>2011-10-02T15:46:41Z</time>
      </trkpt>
      <trkpt lat="43.79872" lon="3.73716">
        <ele>201.05</ele>
        <time>2011-10-02T15:46:45Z</time>
      </trkpt>
      <trkpt lat="43.79858" lon="3.73701">
        <ele>200.57</ele>
        <time>2011-10-02T15:46:46Z</time>
      </trkpt>
      <trkpt lat="43.79846" lon="3.73685">
        <ele>200.09</ele>
        <time>2011-10-02T15:46:47Z</time>
      </trkpt>
      <trkpt lat="43.79834" lon="3.73667">
        <ele>199.61</ele>
        <time>2011-10-02T15:46:48Z</time>
      </trkpt>
      <trkpt lat="43.79824" lon="3.73647">
        <ele>199.13</ele>
        <time>2011-10-02T15:46:49Z</time>
      </trkpt>
      <trkpt lat="43.79814" lon="3.73627">
        <ele>198.65</ele>
        <time>2011-10-02T15:46:50Z</time>
      </trkpt>
      <trkpt lat="43.79805" lon="3.73607">
        <ele>198.17</ele>
        <time>2011-10-02T15:46:51Z</time>
      </trkpt>
      <trkpt lat="43.7976" lon="3.73473">
        <ele>195.28</ele>
        <time>2011-10-02T15:46:59Z</time>
      </trkpt>
      <trkpt lat="43.7974" lon="3.7342">
        <ele>194.32</ele>
        <time>2011-10-02T15:47:03Z</time>
      </trkpt>
      <trkpt lat="43.79732" lon="3.73409">
        <ele>194.32</ele>
        <time>2011-10-02T15:47:04Z</time>
      </trkpt>
      <trkpt lat="43.79723" lon="3.73399">
        <ele>193.36</ele>
        <time>2011-10-02T15:47:05Z</time>
      </trkpt>
      <trkpt lat="43.79713" lon="3.73392">
        <ele>193.36</ele>
        <time>2011-10-02T15:47:06Z</time>
      </trkpt>
      <trkpt lat="43.79702" lon="3.73387">
        <ele>192.88</ele>
        <time>2011-10-02T15:47:07Z</time>
      </trkpt>
      <trkpt lat="43.79691" lon="3.73383">
        <ele>192.4</ele>
        <time>2011-10-02T15:47:08Z</time>
      </trkpt>
      <trkpt lat="43.7968" lon="3.73381">
        <ele>192.4</ele>
        <time>2011-10-02T15:47:09Z</time>
      </trkpt>
      <trkpt lat="43.79669" lon="3.7338">
        <ele>192.4</ele>
        <time>2011-10-02T15:47:10Z</time>
      </trkpt>
      <trkpt lat="43.79657" lon="3.7338">
        <ele>191.92</ele>
        <time>2011-10-02T15:47:11Z</time>
      </trkpt>
      <trkpt lat="43.79556" lon="3.73371">
        <ele>190.96</ele>
        <time>2011-10-02T15:47:22Z</time>
      </trkpt>
      <trkpt lat="43.79468" lon="3.7336">
        <ele>190.96</ele>
        <time>2011-10-02T15:47:31Z</time>
      </trkpt>
      <trkpt lat="43.7945" lon="3.73355">
        <ele>190.96</ele>
        <time>2011-10-02T15:47:33Z</time>
      </trkpt>
      <trkpt lat="43.79443" lon="3.7335">
        <ele>190.96</ele>
        <time>2011-10-02T15:47:34Z</time>
      </trkpt>
      <trkpt lat="43.79437" lon="3.73341">
        <ele>190.96</ele>
        <time>2011-10-02T15:47:35Z</time>
      </trkpt>
      <trkpt lat="43.79428" lon="3.73332">
        <ele>190.96</ele>
        <time>2011-10-02T15:47:36Z</time>
      </trkpt>
      <trkpt lat="43.79417" lon="3.73322">
        <ele>191.92</ele>
        <time>2011-10-02T15:47:37Z</time>
      </trkpt>
      <trkpt lat="43.79404" lon="3.73314">
        <ele>192.88</ele>
        <time>2011-10-02T15:47:38Z</time>
      </trkpt>
      <trkpt lat="43.79391" lon="3.73308">
        <ele>193.84</ele>
        <time>2011-10-02T15:47:39Z</time>
      </trkpt>
      <trkpt lat="43.79291" lon="3.7323">
        <ele>197.69</ele>
        <time>2011-10-02T15:47:48Z</time>
      </trkpt>
      <trkpt lat="43.7927" lon="3.7321">
        <ele>198.17</ele>
        <time>2011-10-02T15:47:51Z</time>
      </trkpt>
      <trkpt lat="43.79265" lon="3.73202">
        <ele>198.65</ele>
        <time>2011-10-02T15:47:52Z</time>
      </trkpt>
      <trkpt lat="43.79261" lon="3.73192">
        <ele>198.65</ele>
        <time>2011-10-02T15:47:53Z</time>
      </trkpt>
      <trkpt lat="43.79259" lon="3.7318">
        <ele>199.13</ele>
        <time>2011-10-02T15:47:54Z</time>
      </trkpt>
      <trkpt lat="43.79257" lon="3.73167">
        <ele>199.61</ele>
        <time>2011-10-02T15:47:55Z</time>
      </trkpt>
      <trkpt lat="43.79255" lon="3.73153">
        <ele>200.57</ele>
        <time>2011-10-02T15:47:56Z</time>
      </trkpt>
      <trkpt lat="43.79247" lon="3.7307">
        <ele>203.94</ele>
        <time>2011-10-02T15:48:02Z</time>
      </trkpt>
      <trkpt lat="43.79249" lon="3.73058">
        <ele>204.42</ele>
        <time>2011-10-02T15:48:03Z</time>
      </trkpt>
      <trkpt lat="43.79253" lon="3.73046">
        <ele>204.9</ele>
        <time>2011-10-02T15:48:04Z</time>
      </trkpt>
      <trkpt lat="43.79259" lon="3.73037">
        <ele>205.86</ele>
        <time>2011-10-02T15:48:05Z</time>
      </trkpt>
      <trkpt lat="43.79266" lon="3.7303">
        <ele>206.82</ele>
        <time>2011-10-02T15:48:06Z</time>
      </trkpt>
      <trkpt lat="43.79278" lon="3.73029">
        <ele>207.78</ele>
        <time>2011-10-02T15:48:07Z</time>
      </trkpt>
      <trkpt lat="43.79291" lon="3.73031">
        <ele>207.78</ele>
        <time>2011-10-02T15:48:08Z</time>
      </trkpt>
      <trkpt lat="43.79304" lon="3.73032">
        <ele>208.74</ele>
        <time>2011-10-02T15:48:09Z</time>
      </trkpt>
      <trkpt lat="43.79318" lon="3.73029">
        <ele>208.74</ele>
        <time>2011-10-02T15:48:10Z</time>
      </trkpt>
      <trkpt lat="43.79332" lon="3.73024">
        <ele>210.19</ele>
        <time>2011-10-02T15:48:11Z</time>
      </trkpt>
      <trkpt lat="43.79443" lon="3.72968">
        <ele>218.36</ele>
        <time>2011-10-02T15:48:19Z</time>
      </trkpt>
      <trkpt lat="43.79519" lon="3.72923">
        <ele>225.09</ele>
        <time>2011-10-02T15:48:26Z</time>
      </trkpt>
      <trkpt lat="43.79645" lon="3.72845">
        <ele>234.22</ele>
        <time>2011-10-02T15:48:35Z</time>
      </trkpt>
      <trkpt lat="43.79722" lon="3.72813">
        <ele>239.02</ele>
        <time>2011-10-02T15:48:40Z</time>
      </trkpt>
      <trkpt lat="43.79735" lon="3.72803">
        <ele>239.99</ele>
        <time>2011-10-02T15:48:41Z</time>
      </trkpt>
      <trkpt lat="43.79747" lon="3.7279">
        <ele>240.95</ele>
        <time>2011-10-02T15:48:42Z</time>
      </trkpt>
      <trkpt lat="43.7976" lon="3.72773">
        <ele>241.43</ele>
        <time>2011-10-02T15:48:43Z</time>
      </trkpt>
      <trkpt lat="43.79772" lon="3.72754">
        <ele>242.87</ele>
        <time>2011-10-02T15:48:44Z</time>
      </trkpt>
      <trkpt lat="43.79903" lon="3.72579">
        <ele>251.04</ele>
        <time>2011-10-02T15:48:53Z</time>
      </trkpt>
      <trkpt lat="43.80066" lon="3.7239">
        <ele>256.81</ele>
        <time>2011-10-02T15:49:04Z</time>
      </trkpt>
      <trkpt lat="43.80083" lon="3.72382">
        <ele>257.77</ele>
        <time>2011-10-02T15:49:05Z</time>
      </trkpt>
      <trkpt lat="43.80102" lon="3.72379">
        <ele>258.73</ele>
        <time>2011-10-02T15:49:06Z</time>
      </trkpt>
      <trkpt lat="43.80122" lon="3.72378">
        <ele>259.69</ele>
        <time>2011-10-02T15:49:07Z</time>
      </trkpt>
      <trkpt lat="43.80141" lon="3.72378">
        <ele>260.65</ele>
        <time>2011-10-02T15:49:08Z</time>
      </trkpt>
      <trkpt lat="43.80192" lon="3.72376">
        <ele>264.02</ele>
        <time>2011-10-02T15:49:11Z</time>
      </trkpt>
      <trkpt lat="43.80205" lon="3.72381">
        <ele>265.46</ele>
        <time>2011-10-02T15:49:12Z</time>
      </trkpt>
      <trkpt lat="43.80217" lon="3.72392">
        <ele>266.9</ele>
        <time>2011-10-02T15:49:13Z</time>
      </trkpt>
      <trkpt lat="43.80229" lon="3.72406">
        <ele>267.86</ele>
        <time>2011-10-02T15:49:14Z</time>
      </trkpt>
      <trkpt lat="43.80242" lon="3.7242">
        <ele>268.83</ele>
        <time>2011-10-02T15:49:15Z</time>
      </trkpt>
      <trkpt lat="43.80257" lon="3.72433">
        <ele>269.79</ele>
        <time>2011-10-02T15:49:16Z</time>
      </trkpt>
      <trkpt lat="43.80273" lon="3.72444">
        <ele>270.75</ele>
        <time>2011-10-02T15:49:17Z</time>
      </trkpt>
      <trkpt lat="43.8029" lon="3.72452">
        <ele>271.71</ele>
        <time>2011-10-02T15:49:18Z</time>
      </trkpt>
      <trkpt lat="43.80307" lon="3.72458">
        <ele>273.15</ele>
        <time>2011-10-02T15:49:19Z</time>
      </trkpt>
      <trkpt lat="43.80323" lon="3.72461">
        <ele>274.11</ele>
        <time>2011-10-02T15:49:20Z</time>
      </trkpt>
      <trkpt lat="43.80336" lon="3.72459">
        <ele>275.56</ele>
        <time>2011-10-02T15:49:21Z</time>
      </trkpt>
      <trkpt lat="43.80349" lon="3.72451">
        <ele>276.52</ele>
        <time>2011-10-02T15:49:22Z</time>
      </trkpt>
      <trkpt lat="43.80361" lon="3.72439">
        <ele>277.48</ele>
        <time>2011-10-02T15:49:23Z</time>
      </trkpt>
      <trkpt lat="43.80372" lon="3.72425">
        <ele>277.96</ele>
        <time>2011-10-02T15:49:24Z</time>
      </trkpt>
      <trkpt lat="43.80382" lon="3.72408">
        <ele>278.92</ele>
        <time>2011-10-02T15:49:25Z</time>
      </trkpt>
      <trkpt lat="43.80392" lon="3.72391">
        <ele>279.88</ele>
        <time>2011-10-02T15:49:26Z</time>
      </trkpt>
      <trkpt lat="43.80402" lon="3.72376">
        <ele>281.32</ele>
        <time>2011-10-02T15:49:27Z</time>
      </trkpt>
      <trkpt lat="43.80415" lon="3.72363">
        <ele>282.28</ele>
        <time>2011-10-02T15:49:28Z</time>
      </trkpt>
      <trkpt lat="43.80428" lon="3.72354">
        <ele>283.73</ele>
        <time>2011-10-02T15:49:29Z</time>
      </trkpt>
      <trkpt lat="43.80442" lon="3.72348">
        <ele>284.69</ele>
        <time>2011-10-02T15:49:30Z</time>
      </trkpt>
      <trkpt lat="43.80455" lon="3.72341">
        <ele>286.13</ele>
        <time>2011-10-02T15:49:31Z</time>
      </trkpt>
      <trkpt lat="43.80467" lon="3.72335">
        <ele>287.09</ele>
        <time>2011-10-02T15:49:32Z</time>
      </trkpt>
      <trkpt lat="43.80476" lon="3.72324">
        <ele>287.57</ele>
        <time>2011-10-02T15:49:33Z</time>
      </trkpt>
      <trkpt lat="43.80483" lon="3.72311">
        <ele>288.53</ele>
        <time>2011-10-02T15:49:34Z</time>
      </trkpt>
      <trkpt lat="43.80488" lon="3.72296">
        <ele>289.01</ele>
        <time>2011-10-02T15:49:35Z</time>
      </trkpt>
      <trkpt lat="43.80491" lon="3.72279">
        <ele>289.97</ele>
        <time>2011-10-02T15:49:36Z</time>
      </trkpt>
      <trkpt lat="43.80491" lon="3.7226">
        <ele>291.42</ele>
        <time>2011-10-02T15:49:37Z</time>
      </trkpt>
      <trkpt lat="43.8049" lon="3.72238">
        <ele>292.38</ele>
        <time>2011-10-02T15:49:38Z</time>
      </trkpt>
      <trkpt lat="43.80488" lon="3.72215">
        <ele>293.34</ele>
        <time>2011-10-02T15:49:39Z</time>
      </trkpt>
      <trkpt lat="43.80479" lon="3.72124">
        <ele>296.7</ele>
        <time>2011-10-02T15:49:43Z</time>
      </trkpt>
      <trkpt lat="43.80474" lon="3.72104">
        <ele>297.67</ele>
        <time>2011-10-02T15:49:44Z</time>
      </trkpt>
      <trkpt lat="43.80468" lon="3.72086">
        <ele>298.15</ele>
        <time>2011-10-02T15:49:45Z</time>
      </trkpt>
      <trkpt lat="43.8046" lon="3.7207">
        <ele>299.11</ele>
        <time>2011-10-02T15:49:46Z</time>
      </trkpt>
      <trkpt lat="43.80454" lon="3.72055">
        <ele>299.59</ele>
        <time>2011-10-02T15:49:47Z</time>
      </trkpt>
      <trkpt lat="43.8045" lon="3.72038">
        <ele>300.55</ele>
        <time>2011-10-02T15:49:48Z</time>
      </trkpt>
      <trkpt lat="43.80449" lon="3.72021">
        <ele>301.51</ele>
        <time>2011-10-02T15:49:49Z</time>
      </trkpt>
      <trkpt lat="43.80451" lon="3.72002">
        <ele>302.47</ele>
        <time>2011-10-02T15:49:50Z</time>
      </trkpt>
      <trkpt lat="43.80456" lon="3.71983">
        <ele>303.91</ele>
        <time>2011-10-02T15:49:51Z</time>
      </trkpt>
      <trkpt lat="43.80463" lon="3.71966">
        <ele>304.88</ele>
        <time>2011-10-02T15:49:52Z</time>
      </trkpt>
      <trkpt lat="43.80471" lon="3.71951">
        <ele>305.84</ele>
        <time>2011-10-02T15:49:53Z</time>
      </trkpt>
      <trkpt lat="43.80482" lon="3.71942">
        <ele>306.8</ele>
        <time>2011-10-02T15:49:54Z</time>
      </trkpt>
      <trkpt lat="43.80496" lon="3.71939">
        <ele>307.76</ele>
        <time>2011-10-02T15:49:55Z</time>
      </trkpt>
      <trkpt lat="43.8051" lon="3.71938">
        <ele>308.72</ele>
        <time>2011-10-02T15:49:56Z</time>
      </trkpt>
      <trkpt lat="43.80524" lon="3.71942">
        <ele>309.68</ele>
        <time>2011-10-02T15:49:57Z</time>
      </trkpt>
      <trkpt lat="43.8054" lon="3.71949">
        <ele>310.64</ele>
        <time>2011-10-02T15:49:58Z</time>
      </trkpt>
      <trkpt lat="43.80556" lon="3.71956">
        <ele>312.09</ele>
        <time>2011-10-02T15:49:59Z</time>
      </trkpt>
      <trkpt lat="43.80572" lon="3.71965">
        <ele>313.53</ele>
        <time>2011-10-02T15:50:00Z</time>
      </trkpt>
      <trkpt lat="43.80586" lon="3.71975">
        <ele>314.97</ele>
        <time>2011-10-02T15:50:01Z</time>
      </trkpt>
      <trkpt lat="43.80599" lon="3.71988">
        <ele>316.41</ele>
        <time>2011-10-02T15:50:02Z</time>
      </trkpt>
      <trkpt lat="43.80611" lon="3.72002">
        <ele>317.85</ele>
        <time>2011-10-02T15:50:03Z</time>
      </trkpt>
      <trkpt lat="43.80624" lon="3.72016">
        <ele>318.81</ele>
        <time>2011-10-02T15:50:04Z</time>
      </trkpt>
      <trkpt lat="43.80638" lon="3.72029">
        <ele>320.26</ele>
        <time>2011-10-02T15:50:05Z</time>
      </trkpt>
      <trkpt lat="43.80653" lon="3.7204">
        <ele>321.22</ele>
        <time>2011-10-02T15:50:06Z</time>
      </trkpt>
      <trkpt lat="43.80668" lon="3.72049">
        <ele>322.66</ele>
        <time>2011-10-02T15:50:07Z</time>
      </trkpt>
      <trkpt lat="43.80682" lon="3.72055">
        <ele>323.62</ele>
        <time>2011-10-02T15:50:08Z</time>
      </trkpt>
      <trkpt lat="43.80695" lon="3.72058">
        <ele>325.06</ele>
        <time>2011-10-02T15:50:09Z</time>
      </trkpt>
      <trkpt lat="43.80708" lon="3.72058">
        <ele>326.5</ele>
        <time>2011-10-02T15:50:10Z</time>
      </trkpt>
      <trkpt lat="43.8072" lon="3.72054">
        <ele>327.47</ele>
        <time>2011-10-02T15:50:11Z</time>
      </trkpt>
      <trkpt lat="43.80731" lon="3.72042">
        <ele>328.43</ele>
        <time>2011-10-02T15:50:12Z</time>
      </trkpt>
      <trkpt lat="43.80744" lon="3.72027">
        <ele>329.39</ele>
        <time>2011-10-02T15:50:13Z</time>
      </trkpt>
      <trkpt lat="43.80757" lon="3.7201">
        <ele>330.35</ele>
        <time>2011-10-02T15:50:14Z</time>
      </trkpt>
      <trkpt lat="43.8077" lon="3.71991">
        <ele>332.27</ele>
        <time>2011-10-02T15:50:15Z</time>
      </trkpt>
      <trkpt lat="43.80839" lon="3.71895">
        <ele>338.52</ele>
        <time>2011-10-02T15:50:21Z</time>
      </trkpt>
      <trkpt lat="43.80846" lon="3.71881">
        <ele>338.52</ele>
        <time>2011-10-02T15:50:22Z</time>
      </trkpt>
      <trkpt lat="43.80852" lon="3.71867">
        <ele>338.52</ele>
        <time>2011-10-02T15:50:23Z</time>
      </trkpt>
      <trkpt lat="43.8091" lon="3.71764">
        <ele>333.71</ele>
        <time>2011-10-02T15:50:30Z</time>
      </trkpt>
      <trkpt lat="43.81004" lon="3.71682">
        <ele>327.47</ele>
        <time>2011-10-02T15:50:37Z</time>
      </trkpt>
      <trkpt lat="43.8112" lon="3.71646">
        <ele>321.22</ele>
        <time>2011-10-02T15:50:44Z</time>
      </trkpt>
      <trkpt lat="43.81132" lon="3.71638">
        <ele>319.78</ele>
        <time>2011-10-02T15:50:45Z</time>
      </trkpt>
      <trkpt lat="43.81141" lon="3.71626">
        <ele>318.81</ele>
        <time>2011-10-02T15:50:46Z</time>
      </trkpt>
      <trkpt lat="43.81147" lon="3.71611">
        <ele>317.85</ele>
        <time>2011-10-02T15:50:47Z</time>
      </trkpt>
      <trkpt lat="43.81148" lon="3.71595">
        <ele>316.89</ele>
        <time>2011-10-02T15:50:48Z</time>
      </trkpt>
      <trkpt lat="43.81143" lon="3.71578">
        <ele>315.93</ele>
        <time>2011-10-02T15:50:49Z</time>
      </trkpt>
      <trkpt lat="43.81137" lon="3.71563">
        <ele>314.97</ele>
        <time>2011-10-02T15:50:50Z</time>
      </trkpt>
      <trkpt lat="43.81129" lon="3.71548">
        <ele>314.01</ele>
        <time>2011-10-02T15:50:51Z</time>
      </trkpt>
      <trkpt lat="43.81123" lon="3.71533">
        <ele>313.05</ele>
        <time>2011-10-02T15:50:52Z</time>
      </trkpt>
      <trkpt lat="43.8112" lon="3.71516">
        <ele>312.09</ele>
        <time>2011-10-02T15:50:53Z</time>
      </trkpt>
      <trkpt lat="43.81119" lon="3.71495">
        <ele>311.12</ele>
        <time>2011-10-02T15:50:54Z</time>
      </trkpt>
      <trkpt lat="43.81118" lon="3.71447">
        <ele>309.2</ele>
        <time>2011-10-02T15:50:56Z</time>
      </trkpt>
      <trkpt lat="43.81115" lon="3.71422">
        <ele>308.24</ele>
        <time>2011-10-02T15:50:57Z</time>
      </trkpt>
      <trkpt lat="43.81095" lon="3.71332">
        <ele>303.91</ele>
        <time>2011-10-02T15:51:01Z</time>
      </trkpt>
      <trkpt lat="43.81087" lon="3.71316">
        <ele>302.95</ele>
        <time>2011-10-02T15:51:02Z</time>
      </trkpt>
      <trkpt lat="43.81077" lon="3.71302">
        <ele>301.99</ele>
        <time>2011-10-02T15:51:03Z</time>
      </trkpt>
      <trkpt lat="43.81066" lon="3.7129">
        <ele>301.03</ele>
        <time>2011-10-02T15:51:04Z</time>
      </trkpt>
      <trkpt lat="43.81055" lon="3.71278">
        <ele>300.07</ele>
        <time>2011-10-02T15:51:05Z</time>
      </trkpt>
      <trkpt lat="43.81044" lon="3.71266">
        <ele>299.11</ele>
        <time>2011-10-02T15:51:06Z</time>
      </trkpt>
      <trkpt lat="43.81035" lon="3.71251">
        <ele>298.15</ele>
        <time>2011-10-02T15:51:07Z</time>
      </trkpt>
      <trkpt lat="43.81026" lon="3.71235">
        <ele>297.18</ele>
        <time>2011-10-02T15:51:08Z</time>
      </trkpt>
      <trkpt lat="43.81018" lon="3.71217">
        <ele>296.22</ele>
        <time>2011-10-02T15:51:09Z</time>
      </trkpt>
      <trkpt lat="43.81012" lon="3.71196">
        <ele>295.26</ele>
        <time>2011-10-02T15:51:10Z</time>
      </trkpt>
      <trkpt lat="43.81006" lon="3.71174">
        <ele>294.3</ele>
        <time>2011-10-02T15:51:11Z</time>
      </trkpt>
      <trkpt lat="43.81001" lon="3.71151">
        <ele>293.34</ele>
        <time>2011-10-02T15:51:12Z</time>
      </trkpt>
      <trkpt lat="43.80997" lon="3.71128">
        <ele>292.38</ele>
        <time>2011-10-02T15:51:13Z</time>
      </trkpt>
      <trkpt lat="43.80995" lon="3.71104">
        <ele>291.42</ele>
        <time>2011-10-02T15:51:14Z</time>
      </trkpt>
      <trkpt lat="43.80993" lon="3.7108">
        <ele>290.46</ele>
        <time>2011-10-02T15:51:15Z</time>
      </trkpt>
      <trkpt lat="43.80992" lon="3.71056">
        <ele>289.49</ele>
        <time>2011-10-02T15:51:16Z</time>
      </trkpt>
      <trkpt lat="43.80993" lon="3.70996">
        <ele>287.09</ele>
        <time>2011-10-02T15:51:19Z</time>
      </trkpt>
      <trkpt lat="43.80996" lon="3.70978">
        <ele>286.13</ele>
        <time>2011-10-02T15:51:20Z</time>
      </trkpt>
      <trkpt lat="43.81" lon="3.70961">
        <ele>285.17</ele>
        <time>2011-10-02T15:51:21Z</time>
      </trkpt>
      <trkpt lat="43.81019" lon="3.70911">
        <ele>282.77</ele>
        <time>2011-10-02T15:51:24Z</time>
      </trkpt>
      <trkpt lat="43.81029" lon="3.70895">
        <ele>281.8</ele>
        <time>2011-10-02T15:51:25Z</time>
      </trkpt>
      <trkpt lat="43.81039" lon="3.70879">
        <ele>280.84</ele>
        <time>2011-10-02T15:51:26Z</time>
      </trkpt>
      <trkpt lat="43.81082" lon="3.7082">
        <ele>277.96</ele>
        <time>2011-10-02T15:51:30Z</time>
      </trkpt>
      <trkpt lat="43.81094" lon="3.70809">
        <ele>277.48</ele>
        <time>2011-10-02T15:51:31Z</time>
      </trkpt>
      <trkpt lat="43.81106" lon="3.708">
        <ele>277</ele>
        <time>2011-10-02T15:51:32Z</time>
      </trkpt>
      <trkpt lat="43.81119" lon="3.70794">
        <ele>276.52</ele>
        <time>2011-10-02T15:51:33Z</time>
      </trkpt>
      <trkpt lat="43.81134" lon="3.7079">
        <ele>276.04</ele>
        <time>2011-10-02T15:51:34Z</time>
      </trkpt>
      <trkpt lat="43.81149" lon="3.70789">
        <ele>274.59</ele>
        <time>2011-10-02T15:51:35Z</time>
      </trkpt>
      <trkpt lat="43.81165" lon="3.7079">
        <ele>273.15</ele>
        <time>2011-10-02T15:51:36Z</time>
      </trkpt>
      <trkpt lat="43.8118" lon="3.70795">
        <ele>271.71</ele>
        <time>2011-10-02T15:51:37Z</time>
      </trkpt>
      <trkpt lat="43.81195" lon="3.70802">
        <ele>270.75</ele>
        <time>2011-10-02T15:51:38Z</time>
      </trkpt>
      <trkpt lat="43.81209" lon="3.70809">
        <ele>269.79</ele>
        <time>2011-10-02T15:51:39Z</time>
      </trkpt>
      <trkpt lat="43.81247" lon="3.70824">
        <ele>267.38</ele>
        <time>2011-10-02T15:51:42Z</time>
      </trkpt>
      <trkpt lat="43.81257" lon="3.70822">
        <ele>266.9</ele>
        <time>2011-10-02T15:51:43Z</time>
      </trkpt>
      <trkpt lat="43.81267" lon="3.70814">
        <ele>265.94</ele>
        <time>2011-10-02T15:51:44Z</time>
      </trkpt>
      <trkpt lat="43.81274" lon="3.70802">
        <ele>265.46</ele>
        <time>2011-10-02T15:51:45Z</time>
      </trkpt>
      <trkpt lat="43.81277" lon="3.70787">
        <ele>264.98</ele>
        <time>2011-10-02T15:51:46Z</time>
      </trkpt>
      <trkpt lat="43.81278" lon="3.70769">
        <ele>264.5</ele>
        <time>2011-10-02T15:51:47Z</time>
      </trkpt>
      <trkpt lat="43.81281" lon="3.70752">
        <ele>264.02</ele>
        <time>2011-10-02T15:51:48Z</time>
      </trkpt>
      <trkpt lat="43.81284" lon="3.70736">
        <ele>263.06</ele>
        <time>2011-10-02T15:51:49Z</time>
      </trkpt>
      <trkpt lat="43.81289" lon="3.70721">
        <ele>262.58</ele>
        <time>2011-10-02T15:51:50Z</time>
      </trkpt>
      <trkpt lat="43.81296" lon="3.70704">
        <ele>261.62</ele>
        <time>2011-10-02T15:51:51Z</time>
      </trkpt>
      <trkpt lat="43.81305" lon="3.70688">
        <ele>260.65</ele>
        <time>2011-10-02T15:51:52Z</time>
      </trkpt>
      <trkpt lat="43.81315" lon="3.70672">
        <ele>260.17</ele>
        <time>2011-10-02T15:51:53Z</time>
      </trkpt>
      <trkpt lat="43.81342" lon="3.70619">
        <ele>257.77</ele>
        <time>2011-10-02T15:51:56Z</time>
      </trkpt>
      <trkpt lat="43.81349" lon="3.70598">
        <ele>256.81</ele>
        <time>2011-10-02T15:51:57Z</time>
      </trkpt>
      <trkpt lat="43.81355" lon="3.70575">
        <ele>255.85</ele>
        <time>2011-10-02T15:51:58Z</time>
      </trkpt>
      <trkpt lat="43.8136" lon="3.7055">
        <ele>254.89</ele>
        <time>2011-10-02T15:51:59Z</time>
      </trkpt>
      <trkpt lat="43.81363" lon="3.70523">
        <ele>253.93</ele>
        <time>2011-10-02T15:52:00Z</time>
      </trkpt>
      <trkpt lat="43.81402" lon="3.7027">
        <ele>242.39</ele>
        <time>2011-10-02T15:52:09Z</time>
      </trkpt>
      <trkpt lat="43.81474" lon="3.70003">
        <ele>233.74</ele>
        <time>2011-10-02T15:52:19Z</time>
      </trkpt>
      <trkpt lat="43.81531" lon="3.69859">
        <ele>227.97</ele>
        <time>2011-10-02T15:52:26Z</time>
      </trkpt>
      <trkpt lat="43.81536" lon="3.69839">
        <ele>227.49</ele>
        <time>2011-10-02T15:52:27Z</time>
      </trkpt>
      <trkpt lat="43.8154" lon="3.6982">
        <ele>226.53</ele>
        <time>2011-10-02T15:52:28Z</time>
      </trkpt>
      <trkpt lat="43.81548" lon="3.69737">
        <ele>223.64</ele>
        <time>2011-10-02T15:52:34Z</time>
      </trkpt>
      <trkpt lat="43.81576" lon="3.69602">
        <ele>219.32</ele>
        <time>2011-10-02T15:52:46Z</time>
      </trkpt>
      <trkpt lat="43.81607" lon="3.69435">
        <ele>214.99</ele>
        <time>2011-10-02T15:52:57Z</time>
      </trkpt>
      <trkpt lat="43.81619" lon="3.6932">
        <ele>214.51</ele>
        <time>2011-10-02T15:53:04Z</time>
      </trkpt>
      <trkpt lat="43.81619" lon="3.69303">
        <ele>214.99</ele>
        <time>2011-10-02T15:53:05Z</time>
      </trkpt>
      <trkpt lat="43.81617" lon="3.69286">
        <ele>215.47</ele>
        <time>2011-10-02T15:53:06Z</time>
      </trkpt>
      <trkpt lat="43.8161" lon="3.69232">
        <ele>217.4</ele>
        <time>2011-10-02T15:53:10Z</time>
      </trkpt>
      <trkpt lat="43.81611" lon="3.6922">
        <ele>217.88</ele>
        <time>2011-10-02T15:53:11Z</time>
      </trkpt>
      <trkpt lat="43.81613" lon="3.69209">
        <ele>218.84</ele>
        <time>2011-10-02T15:53:12Z</time>
      </trkpt>
      <trkpt lat="43.81618" lon="3.69174">
        <ele>220.28</ele>
        <time>2011-10-02T15:53:15Z</time>
      </trkpt>
      <trkpt lat="43.81618" lon="3.69161">
        <ele>220.76</ele>
        <time>2011-10-02T15:53:16Z</time>
      </trkpt>
      <trkpt lat="43.81617" lon="3.69147">
        <ele>220.76</ele>
        <time>2011-10-02T15:53:17Z</time>
      </trkpt>
      <trkpt lat="43.816" lon="3.68957">
        <ele>225.57</ele>
        <time>2011-10-02T15:53:28Z</time>
      </trkpt>
      <trkpt lat="43.81586" lon="3.68812">
        <ele>228.45</ele>
        <time>2011-10-02T15:53:35Z</time>
      </trkpt>
      <trkpt lat="43.8158" lon="3.68795">
        <ele>228.93</ele>
        <time>2011-10-02T15:53:36Z</time>
      </trkpt>
      <trkpt lat="43.81572" lon="3.68778">
        <ele>228.93</ele>
        <time>2011-10-02T15:53:37Z</time>
      </trkpt>
      <trkpt lat="43.81561" lon="3.68763">
        <ele>228.93</ele>
        <time>2011-10-02T15:53:38Z</time>
      </trkpt>
      <trkpt lat="43.81549" lon="3.68748">
        <ele>229.41</ele>
        <time>2011-10-02T15:53:39Z</time>
      </trkpt>
      <trkpt lat="43.81536" lon="3.68734">
        <ele>229.89</ele>
        <time>2011-10-02T15:53:40Z</time>
      </trkpt>
      <trkpt lat="43.81525" lon="3.68718">
        <ele>229.89</ele>
        <time>2011-10-02T15:53:41Z</time>
      </trkpt>
      <trkpt lat="43.81516" lon="3.68701">
        <ele>230.37</ele>
        <time>2011-10-02T15:53:42Z</time>
      </trkpt>
      <trkpt lat="43.81498" lon="3.68666">
        <ele>229.89</ele>
        <time>2011-10-02T15:53:44Z</time>
      </trkpt>
      <trkpt lat="43.81485" lon="3.68649">
        <ele>229.89</ele>
        <time>2011-10-02T15:53:45Z</time>
      </trkpt>
      <trkpt lat="43.81411" lon="3.68568">
        <ele>227.97</ele>
        <time>2011-10-02T15:53:50Z</time>
      </trkpt>
      <trkpt lat="43.81396" lon="3.6856">
        <ele>227.97</ele>
        <time>2011-10-02T15:53:51Z</time>
      </trkpt>
      <trkpt lat="43.81381" lon="3.68555">
        <ele>227.97</ele>
        <time>2011-10-02T15:53:52Z</time>
      </trkpt>
      <trkpt lat="43.81366" lon="3.68552">
        <ele>227.97</ele>
        <time>2011-10-02T15:53:53Z</time>
      </trkpt>
      <trkpt lat="43.81352" lon="3.6855">
        <ele>227.49</ele>
        <time>2011-10-02T15:53:54Z</time>
      </trkpt>
      <trkpt lat="43.81337" lon="3.68547">
        <ele>227.49</ele>
        <time>2011-10-02T15:53:55Z</time>
      </trkpt>
      <trkpt lat="43.81321" lon="3.68542">
        <ele>227.49</ele>
        <time>2011-10-02T15:53:56Z</time>
      </trkpt>
      <trkpt lat="43.8122" lon="3.68516">
        <ele>228.45</ele>
        <time>2011-10-02T15:54:02Z</time>
      </trkpt>
      <trkpt lat="43.81204" lon="3.68519">
        <ele>227.97</ele>
        <time>2011-10-02T15:54:03Z</time>
      </trkpt>
      <trkpt lat="43.81158" lon="3.68526">
        <ele>226.53</ele>
        <time>2011-10-02T15:54:06Z</time>
      </trkpt>
      <trkpt lat="43.81142" lon="3.68525">
        <ele>226.05</ele>
        <time>2011-10-02T15:54:07Z</time>
      </trkpt>
      <trkpt lat="43.81126" lon="3.68521">
        <ele>225.57</ele>
        <time>2011-10-02T15:54:08Z</time>
      </trkpt>
      <trkpt lat="43.8111" lon="3.68513">
        <ele>224.61</ele>
        <time>2011-10-02T15:54:09Z</time>
      </trkpt>
      <trkpt lat="43.81096" lon="3.685">
        <ele>223.64</ele>
        <time>2011-10-02T15:54:10Z</time>
      </trkpt>
      <trkpt lat="43.81084" lon="3.68481">
        <ele>222.68</ele>
        <time>2011-10-02T15:54:11Z</time>
      </trkpt>
      <trkpt lat="43.81074" lon="3.68463">
        <ele>221.72</ele>
        <time>2011-10-02T15:54:12Z</time>
      </trkpt>
      <trkpt lat="43.81067" lon="3.68443">
        <ele>221.24</ele>
        <time>2011-10-02T15:54:13Z</time>
      </trkpt>
      <trkpt lat="43.81063" lon="3.68421">
        <ele>220.76</ele>
        <time>2011-10-02T15:54:14Z</time>
      </trkpt>
      <trkpt lat="43.81061" lon="3.68398">
        <ele>220.28</ele>
        <time>2011-10-02T15:54:15Z</time>
      </trkpt>
      <trkpt lat="43.81062" lon="3.68376">
        <ele>219.8</ele>
        <time>2011-10-02T15:54:16Z</time>
      </trkpt>
      <trkpt lat="43.81065" lon="3.68354">
        <ele>219.32</ele>
        <time>2011-10-02T15:54:17Z</time>
      </trkpt>
      <trkpt lat="43.81071" lon="3.68333">
        <ele>218.36</ele>
        <time>2011-10-02T15:54:18Z</time>
      </trkpt>
      <trkpt lat="43.8108" lon="3.68313">
        <ele>217.4</ele>
        <time>2011-10-02T15:54:19Z</time>
      </trkpt>
      <trkpt lat="43.81091" lon="3.68295">
        <ele>216.91</ele>
        <time>2011-10-02T15:54:20Z</time>
      </trkpt>
      <trkpt lat="43.81105" lon="3.6828">
        <ele>215.95</ele>
        <time>2011-10-02T15:54:21Z</time>
      </trkpt>
      <trkpt lat="43.81123" lon="3.6827">
        <ele>215.47</ele>
        <time>2011-10-02T15:54:22Z</time>
      </trkpt>
      <trkpt lat="43.8114" lon="3.68262">
        <ele>214.99</ele>
        <time>2011-10-02T15:54:23Z</time>
      </trkpt>
      <trkpt lat="43.81158" lon="3.68256">
        <ele>214.51</ele>
        <time>2011-10-02T15:54:24Z</time>
      </trkpt>
      <trkpt lat="43.81178" lon="3.68252">
        <ele>214.03</ele>
        <time>2011-10-02T15:54:25Z</time>
      </trkpt>
      <trkpt lat="43.81261" lon="3.68219">
        <ele>209.7</ele>
        <time>2011-10-02T15:54:30Z</time>
      </trkpt>
      <trkpt lat="43.81273" lon="3.68207">
        <ele>208.74</ele>
        <time>2011-10-02T15:54:31Z</time>
      </trkpt>
      <trkpt lat="43.81283" lon="3.68192">
        <ele>207.78</ele>
        <time>2011-10-02T15:54:32Z</time>
      </trkpt>
      <trkpt lat="43.81292" lon="3.68175">
        <ele>207.3</ele>
        <time>2011-10-02T15:54:33Z</time>
      </trkpt>
      <trkpt lat="43.81301" lon="3.68157">
        <ele>207.3</ele>
        <time>2011-10-02T15:54:34Z</time>
      </trkpt>
      <trkpt lat="43.81352" lon="3.6808">
        <ele>203.94</ele>
        <time>2011-10-02T15:54:39Z</time>
      </trkpt>
      <trkpt lat="43.81359" lon="3.68063">
        <ele>202.98</ele>
        <time>2011-10-02T15:54:40Z</time>
      </trkpt>
      <trkpt lat="43.81365" lon="3.68046">
        <ele>202.49</ele>
        <time>2011-10-02T15:54:41Z</time>
      </trkpt>
      <trkpt lat="43.81369" lon="3.68028">
        <ele>201.53</ele>
        <time>2011-10-02T15:54:42Z</time>
      </trkpt>
      <trkpt lat="43.81371" lon="3.6801">
        <ele>201.05</ele>
        <time>2011-10-02T15:54:43Z</time>
      </trkpt>
      <trkpt lat="43.81373" lon="3.67993">
        <ele>200.57</ele>
        <time>2011-10-02T15:54:44Z</time>
      </trkpt>
      <trkpt lat="43.81377" lon="3.67979">
        <ele>200.09</ele>
        <time>2011-10-02T15:54:45Z</time>
      </trkpt>
      <trkpt lat="43.81383" lon="3.67967">
        <ele>199.61</ele>
        <time>2011-10-02T15:54:46Z</time>
      </trkpt>
      <trkpt lat="43.81389" lon="3.67955">
        <ele>198.65</ele>
        <time>2011-10-02T15:54:47Z</time>
      </trkpt>
      <trkpt lat="43.81396" lon="3.67943">
        <ele>198.17</ele>
        <time>2011-10-02T15:54:48Z</time>
      </trkpt>
      <trkpt lat="43.81403" lon="3.67928">
        <ele>197.69</ele>
        <time>2011-10-02T15:54:49Z</time>
      </trkpt>
      <trkpt lat="43.81409" lon="3.67913">
        <ele>197.21</ele>
        <time>2011-10-02T15:54:50Z</time>
      </trkpt>
      <trkpt lat="43.81418" lon="3.67889">
        <ele>196.25</ele>
        <time>2011-10-02T15:54:52Z</time>
      </trkpt>
      <trkpt lat="43.81423" lon="3.67882">
        <ele>195.28</ele>
        <time>2011-10-02T15:54:53Z</time>
      </trkpt>
      <trkpt lat="43.81427" lon="3.67878">
        <ele>195.28</ele>
        <time>2011-10-02T15:54:54Z</time>
      </trkpt>
      <trkpt lat="43.8143" lon="3.67877">
        <ele>195.28</ele>
        <time>2011-10-02T15:54:55Z</time>
      </trkpt>
      <trkpt lat="43.81432" lon="3.67876">
        <ele>194.8</ele>
        <time>2011-10-02T15:54:56Z</time>
      </trkpt>
      <trkpt lat="43.81438" lon="3.6787">
        <ele>194.32</ele>
        <time>2011-10-02T15:55:07Z</time>
      </trkpt>
      <trkpt lat="43.81436" lon="3.67875">
        <ele>194.8</ele>
        <time>2011-10-02T15:55:58Z</time>
      </trkpt>
      <trkpt lat="43.81437" lon="3.67872">
        <ele>194.8</ele>
        <time>2011-10-02T15:57:05Z</time>
      </trkpt>
      <trkpt lat="43.81437" lon="3.67869">
        <ele>194.8</ele>
        <time>2011-10-02T15:57:06Z</time>
      </trkpt>
      <trkpt lat="43.81437" lon="3.67865">
        <ele>194.32</ele>
        <time>2011-10-02T15:57:07Z</time>
      </trkpt>
      <trkpt lat="43.81428" lon="3.67796">
        <ele>191.92</ele>
        <time>2011-10-02T15:57:13Z</time>
      </trkpt>
      <trkpt lat="43.81424" lon="3.67739">
        <ele>189.52</ele>
        <time>2011-10-02T15:57:17Z</time>
      </trkpt>
      <trkpt lat="43.81422" lon="3.67727">
        <ele>188.56</ele>
        <time>2011-10-02T15:57:18Z</time>
      </trkpt>
      <trkpt lat="43.81418" lon="3.67716">
        <ele>187.59</ele>
        <time>2011-10-02T15:57:19Z</time>
      </trkpt>
      <trkpt lat="43.81412" lon="3.67708">
        <ele>186.63</ele>
        <time>2011-10-02T15:57:20Z</time>
      </trkpt>
      <trkpt lat="43.81405" lon="3.67702">
        <ele>186.15</ele>
        <time>2011-10-02T15:57:21Z</time>
      </trkpt>
      <trkpt lat="43.81395" lon="3.67699">
        <ele>185.19</ele>
        <time>2011-10-02T15:57:22Z</time>
      </trkpt>
      <trkpt lat="43.81383" lon="3.67696">
        <ele>184.71</ele>
        <time>2011-10-02T15:57:23Z</time>
      </trkpt>
      <trkpt lat="43.81371" lon="3.67694">
        <ele>184.23</ele>
        <time>2011-10-02T15:57:24Z</time>
      </trkpt>
      <trkpt lat="43.81336" lon="3.67685">
        <ele>181.35</ele>
        <time>2011-10-02T15:57:27Z</time>
      </trkpt>
      <trkpt lat="43.81325" lon="3.67677">
        <ele>180.87</ele>
        <time>2011-10-02T15:57:28Z</time>
      </trkpt>
      <trkpt lat="43.81302" lon="3.67658">
        <ele>179.42</ele>
        <time>2011-10-02T15:57:30Z</time>
      </trkpt>
      <trkpt lat="43.8129" lon="3.67651">
        <ele>178.94</ele>
        <time>2011-10-02T15:57:31Z</time>
      </trkpt>
      <trkpt lat="43.81271" lon="3.67639">
        <ele>177.98</ele>
        <time>2011-10-02T15:57:33Z</time>
      </trkpt>
      <trkpt lat="43.81263" lon="3.67632">
        <ele>177.02</ele>
        <time>2011-10-02T15:57:34Z</time>
      </trkpt>
      <trkpt lat="43.81257" lon="3.67623">
        <ele>176.06</ele>
        <time>2011-10-02T15:57:35Z</time>
      </trkpt>
      <trkpt lat="43.81254" lon="3.67613">
        <ele>175.58</ele>
        <time>2011-10-02T15:57:36Z</time>
      </trkpt>
      <trkpt lat="43.81253" lon="3.67604">
        <ele>175.58</ele>
        <time>2011-10-02T15:57:37Z</time>
      </trkpt>
      <trkpt lat="43.81256" lon="3.67594">
        <ele>175.58</ele>
        <time>2011-10-02T15:57:38Z</time>
      </trkpt>
      <trkpt lat="43.81261" lon="3.67583">
        <ele>175.1</ele>
        <time>2011-10-02T15:57:39Z</time>
      </trkpt>
      <trkpt lat="43.81266" lon="3.6757">
        <ele>175.1</ele>
        <time>2011-10-02T15:57:40Z</time>
      </trkpt>
      <trkpt lat="43.81288" lon="3.67509">
        <ele>173.66</ele>
        <time>2011-10-02T15:57:44Z</time>
      </trkpt>
      <trkpt lat="43.81291" lon="3.67493">
        <ele>173.17</ele>
        <time>2011-10-02T15:57:45Z</time>
      </trkpt>
      <trkpt lat="43.81292" lon="3.67477">
        <ele>172.69</ele>
        <time>2011-10-02T15:57:46Z</time>
      </trkpt>
      <trkpt lat="43.81292" lon="3.67461">
        <ele>172.21</ele>
        <time>2011-10-02T15:57:47Z</time>
      </trkpt>
      <trkpt lat="43.81291" lon="3.67446">
        <ele>171.73</ele>
        <time>2011-10-02T15:57:48Z</time>
      </trkpt>
      <trkpt lat="43.81287" lon="3.67418">
        <ele>170.77</ele>
        <time>2011-10-02T15:57:50Z</time>
      </trkpt>
      <trkpt lat="43.81281" lon="3.67406">
        <ele>169.81</ele>
        <time>2011-10-02T15:57:51Z</time>
      </trkpt>
      <trkpt lat="43.81274" lon="3.67396">
        <ele>168.85</ele>
        <time>2011-10-02T15:57:52Z</time>
      </trkpt>
      <trkpt lat="43.81264" lon="3.67385">
        <ele>167.89</ele>
        <time>2011-10-02T15:57:53Z</time>
      </trkpt>
      <trkpt lat="43.81253" lon="3.67374">
        <ele>167.41</ele>
        <time>2011-10-02T15:57:54Z</time>
      </trkpt>
      <trkpt lat="43.81193" lon="3.67329">
        <ele>163.56</ele>
        <time>2011-10-02T15:57:59Z</time>
      </trkpt>
      <trkpt lat="43.81181" lon="3.67325">
        <ele>163.08</ele>
        <time>2011-10-02T15:58:00Z</time>
      </trkpt>
      <trkpt lat="43.81168" lon="3.67323">
        <ele>162.12</ele>
        <time>2011-10-02T15:58:01Z</time>
      </trkpt>
      <trkpt lat="43.81094" lon="3.67313">
        <ele>157.79</ele>
        <time>2011-10-02T15:58:07Z</time>
      </trkpt>
      <trkpt lat="43.81083" lon="3.67316">
        <ele>157.31</ele>
        <time>2011-10-02T15:58:08Z</time>
      </trkpt>
      <trkpt lat="43.81073" lon="3.67323">
        <ele>156.83</ele>
        <time>2011-10-02T15:58:09Z</time>
      </trkpt>
      <trkpt lat="43.81062" lon="3.67331">
        <ele>156.35</ele>
        <time>2011-10-02T15:58:10Z</time>
      </trkpt>
      <trkpt lat="43.81052" lon="3.6734">
        <ele>155.87</ele>
        <time>2011-10-02T15:58:11Z</time>
      </trkpt>
      <trkpt lat="43.81033" lon="3.67355">
        <ele>154.43</ele>
        <time>2011-10-02T15:58:13Z</time>
      </trkpt>
      <trkpt lat="43.81022" lon="3.67359">
        <ele>153.95</ele>
        <time>2011-10-02T15:58:14Z</time>
      </trkpt>
      <trkpt lat="43.81011" lon="3.6736">
        <ele>153.47</ele>
        <time>2011-10-02T15:58:15Z</time>
      </trkpt>
      <trkpt lat="43.80961" lon="3.67357">
        <ele>150.58</ele>
        <time>2011-10-02T15:58:19Z</time>
      </trkpt>
      <trkpt lat="43.80948" lon="3.67354">
        <ele>150.1</ele>
        <time>2011-10-02T15:58:20Z</time>
      </trkpt>
      <trkpt lat="43.80924" lon="3.67346">
        <ele>148.66</ele>
        <time>2011-10-02T15:58:22Z</time>
      </trkpt>
      <trkpt lat="43.80912" lon="3.67344">
        <ele>148.66</ele>
        <time>2011-10-02T15:58:23Z</time>
      </trkpt>
      <trkpt lat="43.809" lon="3.67345">
        <ele>148.18</ele>
        <time>2011-10-02T15:58:24Z</time>
      </trkpt>
      <trkpt lat="43.80889" lon="3.67348">
        <ele>147.7</ele>
        <time>2011-10-02T15:58:25Z</time>
      </trkpt>
      <trkpt lat="43.8088" lon="3.67355">
        <ele>147.22</ele>
        <time>2011-10-02T15:58:26Z</time>
      </trkpt>
      <trkpt lat="43.80872" lon="3.67363">
        <ele>146.74</ele>
        <time>2011-10-02T15:58:27Z</time>
      </trkpt>
      <trkpt lat="43.80865" lon="3.67369">
        <ele>146.26</ele>
        <time>2011-10-02T15:58:28Z</time>
      </trkpt>
      <trkpt lat="43.80858" lon="3.67372">
        <ele>145.78</ele>
        <time>2011-10-02T15:58:29Z</time>
      </trkpt>
      <trkpt lat="43.80851" lon="3.67372">
        <ele>145.3</ele>
        <time>2011-10-02T15:58:30Z</time>
      </trkpt>
      <trkpt lat="43.80844" lon="3.67367">
        <ele>144.34</ele>
        <time>2011-10-02T15:58:31Z</time>
      </trkpt>
      <trkpt lat="43.80839" lon="3.67358">
        <ele>143.85</ele>
        <time>2011-10-02T15:58:32Z</time>
      </trkpt>
      <trkpt lat="43.80834" lon="3.67348">
        <ele>143.37</ele>
        <time>2011-10-02T15:58:33Z</time>
      </trkpt>
      <trkpt lat="43.80811" lon="3.67307">
        <ele>140.97</ele>
        <time>2011-10-02T15:58:37Z</time>
      </trkpt>
      <trkpt lat="43.8081" lon="3.67296">
        <ele>140.49</ele>
        <time>2011-10-02T15:58:38Z</time>
      </trkpt>
      <trkpt lat="43.80812" lon="3.67284">
        <ele>140.01</ele>
        <time>2011-10-02T15:58:39Z</time>
      </trkpt>
      <trkpt lat="43.80814" lon="3.67272">
        <ele>139.05</ele>
        <time>2011-10-02T15:58:40Z</time>
      </trkpt>
      <trkpt lat="43.80814" lon="3.67259">
        <ele>139.05</ele>
        <time>2011-10-02T15:58:41Z</time>
      </trkpt>
      <trkpt lat="43.80812" lon="3.67248">
        <ele>138.57</ele>
        <time>2011-10-02T15:58:42Z</time>
      </trkpt>
      <trkpt lat="43.80806" lon="3.67238">
        <ele>137.61</ele>
        <time>2011-10-02T15:58:43Z</time>
      </trkpt>
      <trkpt lat="43.808" lon="3.67228">
        <ele>136.64</ele>
        <time>2011-10-02T15:58:44Z</time>
      </trkpt>
      <trkpt lat="43.80795" lon="3.67218">
        <ele>137.13</ele>
        <time>2011-10-02T15:58:45Z</time>
      </trkpt>
      <trkpt lat="43.80793" lon="3.67206">
        <ele>136.64</ele>
        <time>2011-10-02T15:58:46Z</time>
      </trkpt>
      <trkpt lat="43.80792" lon="3.67193">
        <ele>136.64</ele>
        <time>2011-10-02T15:58:47Z</time>
      </trkpt>
      <trkpt lat="43.80791" lon="3.6718">
        <ele>136.16</ele>
        <time>2011-10-02T15:58:48Z</time>
      </trkpt>
      <trkpt lat="43.80788" lon="3.67167">
        <ele>135.2</ele>
        <time>2011-10-02T15:58:49Z</time>
      </trkpt>
      <trkpt lat="43.80783" lon="3.67154">
        <ele>134.72</ele>
        <time>2011-10-02T15:58:50Z</time>
      </trkpt>
      <trkpt lat="43.80777" lon="3.67141">
        <ele>134.24</ele>
        <time>2011-10-02T15:58:51Z</time>
      </trkpt>
      <trkpt lat="43.80771" lon="3.67128">
        <ele>134.72</ele>
        <time>2011-10-02T15:58:52Z</time>
      </trkpt>
      <trkpt lat="43.80769" lon="3.67113">
        <ele>133.76</ele>
        <time>2011-10-02T15:58:53Z</time>
      </trkpt>
      <trkpt lat="43.80763" lon="3.67079">
        <ele>133.28</ele>
        <time>2011-10-02T15:58:55Z</time>
      </trkpt>
      <trkpt lat="43.80734" lon="3.66952">
        <ele>127.99</ele>
        <time>2011-10-02T15:59:02Z</time>
      </trkpt>
      <trkpt lat="43.80735" lon="3.66934">
        <ele>127.03</ele>
        <time>2011-10-02T15:59:03Z</time>
      </trkpt>
      <trkpt lat="43.80737" lon="3.66916">
        <ele>126.07</ele>
        <time>2011-10-02T15:59:04Z</time>
      </trkpt>
      <trkpt lat="43.80746" lon="3.66872">
        <ele>124.15</ele>
        <time>2011-10-02T15:59:07Z</time>
      </trkpt>
      <trkpt lat="43.80752" lon="3.66863">
        <ele>124.15</ele>
        <time>2011-10-02T15:59:08Z</time>
      </trkpt>
      <trkpt lat="43.80758" lon="3.66855">
        <ele>124.15</ele>
        <time>2011-10-02T15:59:09Z</time>
      </trkpt>
      <trkpt lat="43.80764" lon="3.66846">
        <ele>123.67</ele>
        <time>2011-10-02T15:59:10Z</time>
      </trkpt>
      <trkpt lat="43.80769" lon="3.66835">
        <ele>123.19</ele>
        <time>2011-10-02T15:59:11Z</time>
      </trkpt>
      <trkpt lat="43.8077" lon="3.66823">
        <ele>123.19</ele>
        <time>2011-10-02T15:59:12Z</time>
      </trkpt>
      <trkpt lat="43.80769" lon="3.66809">
        <ele>122.71</ele>
        <time>2011-10-02T15:59:13Z</time>
      </trkpt>
      <trkpt lat="43.80766" lon="3.66795">
        <ele>122.71</ele>
        <time>2011-10-02T15:59:14Z</time>
      </trkpt>
      <trkpt lat="43.80761" lon="3.6678">
        <ele>122.71</ele>
        <time>2011-10-02T15:59:15Z</time>
      </trkpt>
      <trkpt lat="43.80758" lon="3.66765">
        <ele>122.22</ele>
        <time>2011-10-02T15:59:16Z</time>
      </trkpt>
      <trkpt lat="43.80756" lon="3.66748">
        <ele>121.26</ele>
        <time>2011-10-02T15:59:17Z</time>
      </trkpt>
      <trkpt lat="43.80751" lon="3.66671">
        <ele>117.9</ele>
        <time>2011-10-02T15:59:22Z</time>
      </trkpt>
      <trkpt lat="43.80747" lon="3.66659">
        <ele>117.42</ele>
        <time>2011-10-02T15:59:23Z</time>
      </trkpt>
      <trkpt lat="43.80741" lon="3.66647">
        <ele>115.98</ele>
        <time>2011-10-02T15:59:24Z</time>
      </trkpt>
      <trkpt lat="43.80734" lon="3.66635">
        <ele>115.01</ele>
        <time>2011-10-02T15:59:25Z</time>
      </trkpt>
      <trkpt lat="43.80727" lon="3.66623">
        <ele>114.05</ele>
        <time>2011-10-02T15:59:26Z</time>
      </trkpt>
      <trkpt lat="43.80719" lon="3.66611">
        <ele>113.09</ele>
        <time>2011-10-02T15:59:27Z</time>
      </trkpt>
      <trkpt lat="43.8071" lon="3.66601">
        <ele>111.65</ele>
        <time>2011-10-02T15:59:28Z</time>
      </trkpt>
      <trkpt lat="43.807" lon="3.6659">
        <ele>111.65</ele>
        <time>2011-10-02T15:59:29Z</time>
      </trkpt>
      <trkpt lat="43.80651" lon="3.66548">
        <ele>108.29</ele>
        <time>2011-10-02T15:59:34Z</time>
      </trkpt>
      <trkpt lat="43.8064" lon="3.66544">
        <ele>107.81</ele>
        <time>2011-10-02T15:59:35Z</time>
      </trkpt>
      <trkpt lat="43.80629" lon="3.6654">
        <ele>106.84</ele>
        <time>2011-10-02T15:59:36Z</time>
      </trkpt>
      <trkpt lat="43.80578" lon="3.66531">
        <ele>103.96</ele>
        <time>2011-10-02T15:59:40Z</time>
      </trkpt>
      <trkpt lat="43.80565" lon="3.66532">
        <ele>103</ele>
        <time>2011-10-02T15:59:41Z</time>
      </trkpt>
      <trkpt lat="43.80502" lon="3.66541">
        <ele>100.11</ele>
        <time>2011-10-02T15:59:47Z</time>
      </trkpt>
      <trkpt lat="43.80496" lon="3.66539">
        <ele>99.63</ele>
        <time>2011-10-02T15:59:48Z</time>
      </trkpt>
      <trkpt lat="43.80492" lon="3.66535">
        <ele>99.63</ele>
        <time>2011-10-02T15:59:49Z</time>
      </trkpt>
      <trkpt lat="43.8049" lon="3.6653">
        <ele>99.63</ele>
        <time>2011-10-02T15:59:50Z</time>
      </trkpt>
      <trkpt lat="43.80488" lon="3.66524">
        <ele>99.15</ele>
        <time>2011-10-02T15:59:51Z</time>
      </trkpt>
      <trkpt lat="43.80486" lon="3.66518">
        <ele>99.15</ele>
        <time>2011-10-02T15:59:52Z</time>
      </trkpt>
      <trkpt lat="43.80485" lon="3.66511">
        <ele>99.15</ele>
        <time>2011-10-02T15:59:53Z</time>
      </trkpt>
      <trkpt lat="43.80479" lon="3.66476">
        <ele>99.63</ele>
        <time>2011-10-02T16:00:04Z</time>
      </trkpt>
      <trkpt lat="43.80472" lon="3.6644">
        <ele>101.08</ele>
        <time>2011-10-02T16:00:44Z</time>
      </trkpt>
      <trkpt lat="43.80467" lon="3.66418">
        <ele>101.08</ele>
        <time>2011-10-02T16:00:47Z</time>
      </trkpt>
      <trkpt lat="43.80464" lon="3.66413">
        <ele>100.6</ele>
        <time>2011-10-02T16:00:48Z</time>
      </trkpt>
      <trkpt lat="43.80459" lon="3.66408">
        <ele>101.56</ele>
        <time>2011-10-02T16:00:49Z</time>
      </trkpt>
      <trkpt lat="43.80454" lon="3.66407">
        <ele>102.52</ele>
        <time>2011-10-02T16:00:50Z</time>
      </trkpt>
      <trkpt lat="43.80448" lon="3.66407">
        <ele>103</ele>
        <time>2011-10-02T16:00:51Z</time>
      </trkpt>
      <trkpt lat="43.80441" lon="3.6641">
        <ele>103.48</ele>
        <time>2011-10-02T16:00:52Z</time>
      </trkpt>
      <trkpt lat="43.80433" lon="3.66413">
        <ele>103.48</ele>
        <time>2011-10-02T16:00:53Z</time>
      </trkpt>
      <trkpt lat="43.80356" lon="3.66449">
        <ele>105.88</ele>
        <time>2011-10-02T16:00:59Z</time>
      </trkpt>
      <trkpt lat="43.80186" lon="3.66516">
        <ele>119.34</ele>
        <time>2011-10-02T16:01:09Z</time>
      </trkpt>
      <trkpt lat="43.80079" lon="3.66542">
        <ele>128.47</ele>
        <time>2011-10-02T16:01:16Z</time>
      </trkpt>
      <trkpt lat="43.80063" lon="3.66544">
        <ele>129.92</ele>
        <time>2011-10-02T16:01:17Z</time>
      </trkpt>
      <trkpt lat="43.80046" lon="3.6655">
        <ele>131.36</ele>
        <time>2011-10-02T16:01:18Z</time>
      </trkpt>
      <trkpt lat="43.8003" lon="3.66557">
        <ele>132.8</ele>
        <time>2011-10-02T16:01:19Z</time>
      </trkpt>
      <trkpt lat="43.80013" lon="3.66564">
        <ele>133.76</ele>
        <time>2011-10-02T16:01:20Z</time>
      </trkpt>
      <trkpt lat="43.79997" lon="3.66569">
        <ele>135.2</ele>
        <time>2011-10-02T16:01:21Z</time>
      </trkpt>
      <trkpt lat="43.79981" lon="3.66574">
        <ele>136.64</ele>
        <time>2011-10-02T16:01:22Z</time>
      </trkpt>
      <trkpt lat="43.79932" lon="3.66579">
        <ele>140.97</ele>
        <time>2011-10-02T16:01:26Z</time>
      </trkpt>
      <trkpt lat="43.79922" lon="3.66577">
        <ele>141.93</ele>
        <time>2011-10-02T16:01:27Z</time>
      </trkpt>
      <trkpt lat="43.79913" lon="3.66571">
        <ele>142.89</ele>
        <time>2011-10-02T16:01:28Z</time>
      </trkpt>
      <trkpt lat="43.79905" lon="3.66561">
        <ele>144.34</ele>
        <time>2011-10-02T16:01:29Z</time>
      </trkpt>
      <trkpt lat="43.79899" lon="3.66548">
        <ele>145.3</ele>
        <time>2011-10-02T16:01:30Z</time>
      </trkpt>
      <trkpt lat="43.79892" lon="3.66537">
        <ele>146.74</ele>
        <time>2011-10-02T16:01:31Z</time>
      </trkpt>
      <trkpt lat="43.79886" lon="3.66528">
        <ele>147.22</ele>
        <time>2011-10-02T16:01:32Z</time>
      </trkpt>
      <trkpt lat="43.79877" lon="3.66524">
        <ele>148.18</ele>
        <time>2011-10-02T16:01:33Z</time>
      </trkpt>
      <trkpt lat="43.79867" lon="3.66526">
        <ele>149.14</ele>
        <time>2011-10-02T16:01:34Z</time>
      </trkpt>
      <trkpt lat="43.79855" lon="3.66528">
        <ele>150.1</ele>
        <time>2011-10-02T16:01:35Z</time>
      </trkpt>
      <trkpt lat="43.79842" lon="3.66528">
        <ele>151.06</ele>
        <time>2011-10-02T16:01:36Z</time>
      </trkpt>
      <trkpt lat="43.79826" lon="3.66526">
        <ele>152.51</ele>
        <time>2011-10-02T16:01:37Z</time>
      </trkpt>
      <trkpt lat="43.79722" lon="3.66485">
        <ele>162.6</ele>
        <time>2011-10-02T16:01:44Z</time>
      </trkpt>
      <trkpt lat="43.7971" lon="3.66475">
        <ele>164.04</ele>
        <time>2011-10-02T16:01:45Z</time>
      </trkpt>
      <trkpt lat="43.79698" lon="3.66465">
        <ele>165.48</ele>
        <time>2011-10-02T16:01:46Z</time>
      </trkpt>
      <trkpt lat="43.79684" lon="3.66457">
        <ele>166.93</ele>
        <time>2011-10-02T16:01:47Z</time>
      </trkpt>
      <trkpt lat="43.7967" lon="3.66454">
        <ele>168.37</ele>
        <time>2011-10-02T16:01:48Z</time>
      </trkpt>
      <trkpt lat="43.79657" lon="3.66453">
        <ele>169.33</ele>
        <time>2011-10-02T16:01:49Z</time>
      </trkpt>
      <trkpt lat="43.79646" lon="3.66456">
        <ele>170.29</ele>
        <time>2011-10-02T16:01:50Z</time>
      </trkpt>
      <trkpt lat="43.79637" lon="3.66459">
        <ele>171.25</ele>
        <time>2011-10-02T16:01:51Z</time>
      </trkpt>
      <trkpt lat="43.7963" lon="3.6646">
        <ele>172.21</ele>
        <time>2011-10-02T16:01:52Z</time>
      </trkpt>
      <trkpt lat="43.79625" lon="3.66457">
        <ele>173.17</ele>
        <time>2011-10-02T16:01:53Z</time>
      </trkpt>
      <trkpt lat="43.79623" lon="3.66452">
        <ele>173.66</ele>
        <time>2011-10-02T16:01:54Z</time>
      </trkpt>
      <trkpt lat="43.79624" lon="3.66446">
        <ele>174.14</ele>
        <time>2011-10-02T16:01:55Z</time>
      </trkpt>
      <trkpt lat="43.79627" lon="3.66441">
        <ele>175.1</ele>
        <time>2011-10-02T16:01:56Z</time>
      </trkpt>
      <trkpt lat="43.79633" lon="3.66436">
        <ele>176.06</ele>
        <time>2011-10-02T16:01:57Z</time>
      </trkpt>
      <trkpt lat="43.79642" lon="3.66432">
        <ele>177.02</ele>
        <time>2011-10-02T16:01:58Z</time>
      </trkpt>
      <trkpt lat="43.79655" lon="3.66429">
        <ele>177.5</ele>
        <time>2011-10-02T16:01:59Z</time>
      </trkpt>
      <trkpt lat="43.79669" lon="3.66426">
        <ele>178.94</ele>
        <time>2011-10-02T16:02:00Z</time>
      </trkpt>
      <trkpt lat="43.79821" lon="3.66382">
        <ele>191.92</ele>
        <time>2011-10-02T16:02:09Z</time>
      </trkpt>
      <trkpt lat="43.79884" lon="3.66356">
        <ele>197.21</ele>
        <time>2011-10-02T16:02:13Z</time>
      </trkpt>
      <trkpt lat="43.79898" lon="3.66344">
        <ele>198.17</ele>
        <time>2011-10-02T16:02:14Z</time>
      </trkpt>
      <trkpt lat="43.79912" lon="3.66331">
        <ele>199.61</ele>
        <time>2011-10-02T16:02:15Z</time>
      </trkpt>
      <trkpt lat="43.79926" lon="3.66316">
        <ele>200.57</ele>
        <time>2011-10-02T16:02:16Z</time>
      </trkpt>
      <trkpt lat="43.79939" lon="3.66299">
        <ele>201.53</ele>
        <time>2011-10-02T16:02:17Z</time>
      </trkpt>
      <trkpt lat="43.79951" lon="3.6628">
        <ele>202.98</ele>
        <time>2011-10-02T16:02:18Z</time>
      </trkpt>
      <trkpt lat="43.8" lon="3.66196">
        <ele>207.78</ele>
        <time>2011-10-02T16:02:23Z</time>
      </trkpt>
      <trkpt lat="43.80005" lon="3.66179">
        <ele>208.74</ele>
        <time>2011-10-02T16:02:24Z</time>
      </trkpt>
      <trkpt lat="43.80008" lon="3.66161">
        <ele>209.7</ele>
        <time>2011-10-02T16:02:25Z</time>
      </trkpt>
      <trkpt lat="43.80009" lon="3.66143">
        <ele>210.67</ele>
        <time>2011-10-02T16:02:26Z</time>
      </trkpt>
      <trkpt lat="43.80006" lon="3.66126">
        <ele>212.11</ele>
        <time>2011-10-02T16:02:27Z</time>
      </trkpt>
      <trkpt lat="43.80002" lon="3.66111">
        <ele>213.07</ele>
        <time>2011-10-02T16:02:28Z</time>
      </trkpt>
      <trkpt lat="43.79995" lon="3.66096">
        <ele>213.55</ele>
        <time>2011-10-02T16:02:29Z</time>
      </trkpt>
      <trkpt lat="43.79988" lon="3.6608">
        <ele>214.51</ele>
        <time>2011-10-02T16:02:30Z</time>
      </trkpt>
      <trkpt lat="43.79982" lon="3.66062">
        <ele>215.47</ele>
        <time>2011-10-02T16:02:31Z</time>
      </trkpt>
      <trkpt lat="43.79977" lon="3.66043">
        <ele>215.95</ele>
        <time>2011-10-02T16:02:32Z</time>
      </trkpt>
      <trkpt lat="43.79972" lon="3.66023">
        <ele>216.91</ele>
        <time>2011-10-02T16:02:33Z</time>
      </trkpt>
      <trkpt lat="43.79944" lon="3.65864">
        <ele>221.24</ele>
        <time>2011-10-02T16:02:40Z</time>
      </trkpt>
      <trkpt lat="43.79944" lon="3.65846">
        <ele>221.24</ele>
        <time>2011-10-02T16:02:41Z</time>
      </trkpt>
      <trkpt lat="43.79946" lon="3.65831">
        <ele>221.24</ele>
        <time>2011-10-02T16:02:42Z</time>
      </trkpt>
      <trkpt lat="43.79951" lon="3.65818">
        <ele>221.24</ele>
        <time>2011-10-02T16:02:43Z</time>
      </trkpt>
      <trkpt lat="43.79958" lon="3.65806">
        <ele>221.24</ele>
        <time>2011-10-02T16:02:44Z</time>
      </trkpt>
      <trkpt lat="43.79967" lon="3.65795">
        <ele>221.24</ele>
        <time>2011-10-02T16:02:45Z</time>
      </trkpt>
      <trkpt lat="43.79977" lon="3.65785">
        <ele>221.24</ele>
        <time>2011-10-02T16:02:46Z</time>
      </trkpt>
      <trkpt lat="43.79988" lon="3.65775">
        <ele>221.72</ele>
        <time>2011-10-02T16:02:47Z</time>
      </trkpt>
      <trkpt lat="43.80086" lon="3.65686">
        <ele>222.2</ele>
        <time>2011-10-02T16:02:54Z</time>
      </trkpt>
      <trkpt lat="43.80138" lon="3.65633">
        <ele>224.12</ele>
        <time>2011-10-02T16:02:58Z</time>
      </trkpt>
      <trkpt lat="43.80149" lon="3.65617">
        <ele>224.61</ele>
        <time>2011-10-02T16:02:59Z</time>
      </trkpt>
      <trkpt lat="43.80158" lon="3.65598">
        <ele>225.09</ele>
        <time>2011-10-02T16:03:00Z</time>
      </trkpt>
      <trkpt lat="43.80165" lon="3.65578">
        <ele>226.05</ele>
        <time>2011-10-02T16:03:01Z</time>
      </trkpt>
      <trkpt lat="43.80171" lon="3.65557">
        <ele>226.53</ele>
        <time>2011-10-02T16:03:02Z</time>
      </trkpt>
      <trkpt lat="43.80177" lon="3.65536">
        <ele>227.49</ele>
        <time>2011-10-02T16:03:03Z</time>
      </trkpt>
      <trkpt lat="43.80212" lon="3.65447">
        <ele>231.33</ele>
        <time>2011-10-02T16:03:08Z</time>
      </trkpt>
      <trkpt lat="43.80221" lon="3.65433">
        <ele>232.3</ele>
        <time>2011-10-02T16:03:09Z</time>
      </trkpt>
      <trkpt lat="43.80231" lon="3.65421">
        <ele>232.78</ele>
        <time>2011-10-02T16:03:10Z</time>
      </trkpt>
      <trkpt lat="43.80242" lon="3.6541">
        <ele>233.74</ele>
        <time>2011-10-02T16:03:11Z</time>
      </trkpt>
      <trkpt lat="43.80254" lon="3.654">
        <ele>234.7</ele>
        <time>2011-10-02T16:03:12Z</time>
      </trkpt>
      <trkpt lat="43.80312" lon="3.65353">
        <ele>236.14</ele>
        <time>2011-10-02T16:03:19Z</time>
      </trkpt>
      <trkpt lat="43.80354" lon="3.65314">
        <ele>235.66</ele>
        <time>2011-10-02T16:03:26Z</time>
      </trkpt>
      <trkpt lat="43.8036" lon="3.65306">
        <ele>235.66</ele>
        <time>2011-10-02T16:03:27Z</time>
      </trkpt>
      <trkpt lat="43.80366" lon="3.65295">
        <ele>235.66</ele>
        <time>2011-10-02T16:03:28Z</time>
      </trkpt>
      <trkpt lat="43.80372" lon="3.65283">
        <ele>235.66</ele>
        <time>2011-10-02T16:03:29Z</time>
      </trkpt>
      <trkpt lat="43.80377" lon="3.65269">
        <ele>236.14</ele>
        <time>2011-10-02T16:03:30Z</time>
      </trkpt>
      <trkpt lat="43.80381" lon="3.65255">
        <ele>236.14</ele>
        <time>2011-10-02T16:03:31Z</time>
      </trkpt>
      <trkpt lat="43.80385" lon="3.65241">
        <ele>236.62</ele>
        <time>2011-10-02T16:03:32Z</time>
      </trkpt>
      <trkpt lat="43.80414" lon="3.65122">
        <ele>240.95</ele>
        <time>2011-10-02T16:03:43Z</time>
      </trkpt>
      <trkpt lat="43.80442" lon="3.65042">
        <ele>243.35</ele>
        <time>2011-10-02T16:03:53Z</time>
      </trkpt>
      <trkpt lat="43.80454" lon="3.65026">
        <ele>244.31</ele>
        <time>2011-10-02T16:03:55Z</time>
      </trkpt>
      <trkpt lat="43.80462" lon="3.65019">
        <ele>244.31</ele>
        <time>2011-10-02T16:03:56Z</time>
      </trkpt>
      <trkpt lat="43.80504" lon="3.64986">
        <ele>244.79</ele>
        <time>2011-10-02T16:04:01Z</time>
      </trkpt>
      <trkpt lat="43.80511" lon="3.64978">
        <ele>244.79</ele>
        <time>2011-10-02T16:04:02Z</time>
      </trkpt>
      <trkpt lat="43.8056" lon="3.64913">
        <ele>245.27</ele>
        <time>2011-10-02T16:04:10Z</time>
      </trkpt>
      <trkpt lat="43.80577" lon="3.64892">
        <ele>245.27</ele>
        <time>2011-10-02T16:04:13Z</time>
      </trkpt>
      <trkpt lat="43.80582" lon="3.64888">
        <ele>245.27</ele>
        <time>2011-10-02T16:04:14Z</time>
      </trkpt>
      <trkpt lat="43.80587" lon="3.64886">
        <ele>245.27</ele>
        <time>2011-10-02T16:04:15Z</time>
      </trkpt>
      <trkpt lat="43.80592" lon="3.64884">
        <ele>245.27</ele>
        <time>2011-10-02T16:04:16Z</time>
      </trkpt>
      <trkpt lat="43.80595" lon="3.64879">
        <ele>245.27</ele>
        <time>2011-10-02T16:04:17Z</time>
      </trkpt>
      <trkpt lat="43.80596" lon="3.64873">
        <ele>244.79</ele>
        <time>2011-10-02T16:04:18Z</time>
      </trkpt>
      <trkpt lat="43.80594" lon="3.64867">
        <ele>244.79</ele>
        <time>2011-10-02T16:04:19Z</time>
      </trkpt>
      <trkpt lat="43.8059" lon="3.64863">
        <ele>244.79</ele>
        <time>2011-10-02T16:04:20Z</time>
      </trkpt>
      <trkpt lat="43.80585" lon="3.6486">
        <ele>244.79</ele>
        <time>2011-10-02T16:04:21Z</time>
      </trkpt>
      <trkpt lat="43.80578" lon="3.64856">
        <ele>244.31</ele>
        <time>2011-10-02T16:04:22Z</time>
      </trkpt>
      <trkpt lat="43.80571" lon="3.64849">
        <ele>244.31</ele>
        <time>2011-10-02T16:04:23Z</time>
      </trkpt>
      <trkpt lat="43.80563" lon="3.64839">
        <ele>243.83</ele>
        <time>2011-10-02T16:04:24Z</time>
      </trkpt>
      <trkpt lat="43.80556" lon="3.64829">
        <ele>243.83</ele>
        <time>2011-10-02T16:04:25Z</time>
      </trkpt>
      <trkpt lat="43.80509" lon="3.64759">
        <ele>242.87</ele>
        <time>2011-10-02T16:04:33Z</time>
      </trkpt>
      <trkpt lat="43.80466" lon="3.64645">
        <ele>243.35</ele>
        <time>2011-10-02T16:04:41Z</time>
      </trkpt>
      <trkpt lat="43.8044" lon="3.64528">
        <ele>245.27</ele>
        <time>2011-10-02T16:04:49Z</time>
      </trkpt>
      <trkpt lat="43.80397" lon="3.64355">
        <ele>239.99</ele>
        <time>2011-10-02T16:05:00Z</time>
      </trkpt>
      <trkpt lat="43.80389" lon="3.64341">
        <ele>239.99</ele>
        <time>2011-10-02T16:05:01Z</time>
      </trkpt>
      <trkpt lat="43.8038" lon="3.64328">
        <ele>239.51</ele>
        <time>2011-10-02T16:05:02Z</time>
      </trkpt>
      <trkpt lat="43.80369" lon="3.64315">
        <ele>240.95</ele>
        <time>2011-10-02T16:05:03Z</time>
      </trkpt>
      <trkpt lat="43.80357" lon="3.64304">
        <ele>241.91</ele>
        <time>2011-10-02T16:05:04Z</time>
      </trkpt>
      <trkpt lat="43.80346" lon="3.64294">
        <ele>242.39</ele>
        <time>2011-10-02T16:05:05Z</time>
      </trkpt>
      <trkpt lat="43.80324" lon="3.64272">
        <ele>242.87</ele>
        <time>2011-10-02T16:05:07Z</time>
      </trkpt>
      <trkpt lat="43.80315" lon="3.6426">
        <ele>242.87</ele>
        <time>2011-10-02T16:05:08Z</time>
      </trkpt>
      <trkpt lat="43.80307" lon="3.64246">
        <ele>242.87</ele>
        <time>2011-10-02T16:05:09Z</time>
      </trkpt>
      <trkpt lat="43.80301" lon="3.64231">
        <ele>242.39</ele>
        <time>2011-10-02T16:05:10Z</time>
      </trkpt>
      <trkpt lat="43.80297" lon="3.64214">
        <ele>242.39</ele>
        <time>2011-10-02T16:05:11Z</time>
      </trkpt>
      <trkpt lat="43.80295" lon="3.64194">
        <ele>242.39</ele>
        <time>2011-10-02T16:05:12Z</time>
      </trkpt>
      <trkpt lat="43.80294" lon="3.64172">
        <ele>242.39</ele>
        <time>2011-10-02T16:05:13Z</time>
      </trkpt>
      <trkpt lat="43.80293" lon="3.64149">
        <ele>242.39</ele>
        <time>2011-10-02T16:05:14Z</time>
      </trkpt>
      <trkpt lat="43.80291" lon="3.64104">
        <ele>242.39</ele>
        <time>2011-10-02T16:05:16Z</time>
      </trkpt>
      <trkpt lat="43.80287" lon="3.64084">
        <ele>242.39</ele>
        <time>2011-10-02T16:05:17Z</time>
      </trkpt>
      <trkpt lat="43.80282" lon="3.64066">
        <ele>242.87</ele>
        <time>2011-10-02T16:05:18Z</time>
      </trkpt>
      <trkpt lat="43.80275" lon="3.64048">
        <ele>243.35</ele>
        <time>2011-10-02T16:05:19Z</time>
      </trkpt>
      <trkpt lat="43.80265" lon="3.64033">
        <ele>244.31</ele>
        <time>2011-10-02T16:05:20Z</time>
      </trkpt>
      <trkpt lat="43.80253" lon="3.64019">
        <ele>244.79</ele>
        <time>2011-10-02T16:05:21Z</time>
      </trkpt>
      <trkpt lat="43.80239" lon="3.64006">
        <ele>245.75</ele>
        <time>2011-10-02T16:05:22Z</time>
      </trkpt>
      <trkpt lat="43.80225" lon="3.63993">
        <ele>246.72</ele>
        <time>2011-10-02T16:05:23Z</time>
      </trkpt>
      <trkpt lat="43.80209" lon="3.63981">
        <ele>247.68</ele>
        <time>2011-10-02T16:05:24Z</time>
      </trkpt>
      <trkpt lat="43.80166" lon="3.63939">
        <ele>251.04</ele>
        <time>2011-10-02T16:05:27Z</time>
      </trkpt>
      <trkpt lat="43.80156" lon="3.63922">
        <ele>252</ele>
        <time>2011-10-02T16:05:28Z</time>
      </trkpt>
      <trkpt lat="43.80147" lon="3.63903">
        <ele>252.96</ele>
        <time>2011-10-02T16:05:29Z</time>
      </trkpt>
      <trkpt lat="43.8014" lon="3.63882">
        <ele>253.44</ele>
        <time>2011-10-02T16:05:30Z</time>
      </trkpt>
      <trkpt lat="43.80134" lon="3.63859">
        <ele>254.41</ele>
        <time>2011-10-02T16:05:31Z</time>
      </trkpt>
      <trkpt lat="43.8013" lon="3.63835">
        <ele>254.89</ele>
        <time>2011-10-02T16:05:32Z</time>
      </trkpt>
      <trkpt lat="43.80105" lon="3.63669">
        <ele>260.65</ele>
        <time>2011-10-02T16:05:39Z</time>
      </trkpt>
      <trkpt lat="43.80106" lon="3.63647">
        <ele>261.62</ele>
        <time>2011-10-02T16:05:40Z</time>
      </trkpt>
      <trkpt lat="43.80114" lon="3.63556">
        <ele>265.46</ele>
        <time>2011-10-02T16:05:44Z</time>
      </trkpt>
      <trkpt lat="43.80113" lon="3.63533">
        <ele>265.94</ele>
        <time>2011-10-02T16:05:45Z</time>
      </trkpt>
      <trkpt lat="43.80109" lon="3.63509">
        <ele>266.9</ele>
        <time>2011-10-02T16:05:46Z</time>
      </trkpt>
      <trkpt lat="43.80104" lon="3.63485">
        <ele>267.38</ele>
        <time>2011-10-02T16:05:47Z</time>
      </trkpt>
      <trkpt lat="43.80098" lon="3.63461">
        <ele>268.35</ele>
        <time>2011-10-02T16:05:48Z</time>
      </trkpt>
      <trkpt lat="43.80058" lon="3.63347">
        <ele>273.15</ele>
        <time>2011-10-02T16:05:54Z</time>
      </trkpt>
      <trkpt lat="43.79979" lon="3.63186">
        <ele>279.88</ele>
        <time>2011-10-02T16:06:01Z</time>
      </trkpt>
      <trkpt lat="43.79845" lon="3.62924">
        <ele>281.32</ele>
        <time>2011-10-02T16:06:11Z</time>
      </trkpt>
      <trkpt lat="43.7968" lon="3.62657">
        <ele>273.63</ele>
        <time>2011-10-02T16:06:23Z</time>
      </trkpt>
      <trkpt lat="43.79472" lon="3.62316">
        <ele>271.23</ele>
        <time>2011-10-02T16:06:37Z</time>
      </trkpt>
      <trkpt lat="43.79337" lon="3.62145">
        <ele>272.19</ele>
        <time>2011-10-02T16:06:45Z</time>
      </trkpt>
      <trkpt lat="43.79076" lon="3.61878">
        <ele>279.88</ele>
        <time>2011-10-02T16:06:59Z</time>
      </trkpt>
      <trkpt lat="43.79036" lon="3.61814">
        <ele>280.84</ele>
        <time>2011-10-02T16:07:02Z</time>
      </trkpt>
      <trkpt lat="43.79026" lon="3.61786">
        <ele>281.32</ele>
        <time>2011-10-02T16:07:03Z</time>
      </trkpt>
      <trkpt lat="43.78951" lon="3.61612">
        <ele>287.57</ele>
        <time>2011-10-02T16:07:10Z</time>
      </trkpt>
      <trkpt lat="43.78935" lon="3.61598">
        <ele>289.01</ele>
        <time>2011-10-02T16:07:11Z</time>
      </trkpt>
      <trkpt lat="43.7882" lon="3.61453">
        <ele>296.7</ele>
        <time>2011-10-02T16:07:18Z</time>
      </trkpt>
      <trkpt lat="43.78551" lon="3.61083">
        <ele>303.43</ele>
        <time>2011-10-02T16:07:34Z</time>
      </trkpt>
      <trkpt lat="43.78393" lon="3.60871">
        <ele>299.11</ele>
        <time>2011-10-02T16:07:44Z</time>
      </trkpt>
      <trkpt lat="43.78377" lon="3.60857">
        <ele>298.63</ele>
        <time>2011-10-02T16:07:45Z</time>
      </trkpt>
      <trkpt lat="43.7836" lon="3.60846">
        <ele>298.15</ele>
        <time>2011-10-02T16:07:46Z</time>
      </trkpt>
      <trkpt lat="43.78342" lon="3.60836">
        <ele>297.67</ele>
        <time>2011-10-02T16:07:47Z</time>
      </trkpt>
      <trkpt lat="43.78226" lon="3.60783">
        <ele>293.82</ele>
        <time>2011-10-02T16:07:54Z</time>
      </trkpt>
      <trkpt lat="43.78213" lon="3.60773">
        <ele>292.86</ele>
        <time>2011-10-02T16:07:55Z</time>
      </trkpt>
      <trkpt lat="43.78201" lon="3.60761">
        <ele>292.38</ele>
        <time>2011-10-02T16:07:56Z</time>
      </trkpt>
      <trkpt lat="43.78191" lon="3.60746">
        <ele>291.42</ele>
        <time>2011-10-02T16:07:57Z</time>
      </trkpt>
      <trkpt lat="43.78183" lon="3.6073">
        <ele>290.94</ele>
        <time>2011-10-02T16:07:58Z</time>
      </trkpt>
      <trkpt lat="43.78177" lon="3.60715">
        <ele>290.94</ele>
        <time>2011-10-02T16:07:59Z</time>
      </trkpt>
      <trkpt lat="43.78173" lon="3.60701">
        <ele>290.46</ele>
        <time>2011-10-02T16:08:00Z</time>
      </trkpt>
      <trkpt lat="43.78172" lon="3.60688">
        <ele>289.49</ele>
        <time>2011-10-02T16:08:01Z</time>
      </trkpt>
      <trkpt lat="43.78174" lon="3.60674">
        <ele>289.01</ele>
        <time>2011-10-02T16:08:02Z</time>
      </trkpt>
      <trkpt lat="43.78179" lon="3.60661">
        <ele>288.05</ele>
        <time>2011-10-02T16:08:03Z</time>
      </trkpt>
      <trkpt lat="43.78183" lon="3.60647">
        <ele>287.57</ele>
        <time>2011-10-02T16:08:04Z</time>
      </trkpt>
      <trkpt lat="43.78186" lon="3.60634">
        <ele>286.61</ele>
        <time>2011-10-02T16:08:05Z</time>
      </trkpt>
      <trkpt lat="43.78187" lon="3.60622">
        <ele>285.65</ele>
        <time>2011-10-02T16:08:06Z</time>
      </trkpt>
      <trkpt lat="43.78186" lon="3.60612">
        <ele>284.69</ele>
        <time>2011-10-02T16:08:07Z</time>
      </trkpt>
      <trkpt lat="43.78182" lon="3.60601">
        <ele>283.25</ele>
        <time>2011-10-02T16:08:08Z</time>
      </trkpt>
      <trkpt lat="43.78175" lon="3.60592">
        <ele>281.8</ele>
        <time>2011-10-02T16:08:09Z</time>
      </trkpt>
      <trkpt lat="43.78168" lon="3.60582">
        <ele>282.28</ele>
        <time>2011-10-02T16:08:10Z</time>
      </trkpt>
      <trkpt lat="43.78162" lon="3.6057">
        <ele>281.8</ele>
        <time>2011-10-02T16:08:11Z</time>
      </trkpt>
      <trkpt lat="43.78157" lon="3.60557">
        <ele>280.84</ele>
        <time>2011-10-02T16:08:12Z</time>
      </trkpt>
      <trkpt lat="43.7813" lon="3.60484">
        <ele>276.04</ele>
        <time>2011-10-02T16:08:17Z</time>
      </trkpt>
      <trkpt lat="43.78125" lon="3.60474">
        <ele>275.07</ele>
        <time>2011-10-02T16:08:18Z</time>
      </trkpt>
      <trkpt lat="43.78118" lon="3.60465">
        <ele>276.52</ele>
        <time>2011-10-02T16:08:19Z</time>
      </trkpt>
      <trkpt lat="43.78111" lon="3.6046">
        <ele>276.52</ele>
        <time>2011-10-02T16:08:20Z</time>
      </trkpt>
      <trkpt lat="43.78102" lon="3.60458">
        <ele>276.52</ele>
        <time>2011-10-02T16:08:21Z</time>
      </trkpt>
      <trkpt lat="43.78094" lon="3.60459">
        <ele>275.56</ele>
        <time>2011-10-02T16:08:22Z</time>
      </trkpt>
      <trkpt lat="43.78085" lon="3.60461">
        <ele>275.07</ele>
        <time>2011-10-02T16:08:23Z</time>
      </trkpt>
      <trkpt lat="43.78079" lon="3.6046">
        <ele>274.59</ele>
        <time>2011-10-02T16:08:24Z</time>
      </trkpt>
      <trkpt lat="43.78074" lon="3.60457">
        <ele>274.11</ele>
        <time>2011-10-02T16:08:25Z</time>
      </trkpt>
      <trkpt lat="43.7807" lon="3.60453">
        <ele>273.63</ele>
        <time>2011-10-02T16:08:26Z</time>
      </trkpt>
      <trkpt lat="43.78068" lon="3.60446">
        <ele>273.15</ele>
        <time>2011-10-02T16:08:27Z</time>
      </trkpt>
      <trkpt lat="43.78067" lon="3.60437">
        <ele>273.15</ele>
        <time>2011-10-02T16:08:28Z</time>
      </trkpt>
      <trkpt lat="43.78066" lon="3.60426">
        <ele>272.67</ele>
        <time>2011-10-02T16:08:29Z</time>
      </trkpt>
      <trkpt lat="43.78065" lon="3.60416">
        <ele>272.19</ele>
        <time>2011-10-02T16:08:30Z</time>
      </trkpt>
      <trkpt lat="43.78061" lon="3.60407">
        <ele>271.71</ele>
        <time>2011-10-02T16:08:31Z</time>
      </trkpt>
      <trkpt lat="43.78056" lon="3.60399">
        <ele>271.23</ele>
        <time>2011-10-02T16:08:32Z</time>
      </trkpt>
      <trkpt lat="43.78047" lon="3.60394">
        <ele>271.23</ele>
        <time>2011-10-02T16:08:33Z</time>
      </trkpt>
      <trkpt lat="43.78038" lon="3.6039">
        <ele>270.27</ele>
        <time>2011-10-02T16:08:34Z</time>
      </trkpt>
      <trkpt lat="43.78027" lon="3.6039">
        <ele>269.31</ele>
        <time>2011-10-02T16:08:35Z</time>
      </trkpt>
      <trkpt lat="43.78014" lon="3.60391">
        <ele>268.83</ele>
        <time>2011-10-02T16:08:36Z</time>
      </trkpt>
      <trkpt lat="43.78001" lon="3.60392">
        <ele>268.35</ele>
        <time>2011-10-02T16:08:37Z</time>
      </trkpt>
      <trkpt lat="43.77947" lon="3.60385">
        <ele>269.31</ele>
        <time>2011-10-02T16:08:41Z</time>
      </trkpt>
      <trkpt lat="43.77933" lon="3.60378">
        <ele>269.31</ele>
        <time>2011-10-02T16:08:42Z</time>
      </trkpt>
      <trkpt lat="43.77921" lon="3.6037">
        <ele>269.31</ele>
        <time>2011-10-02T16:08:43Z</time>
      </trkpt>
      <trkpt lat="43.77908" lon="3.60359">
        <ele>269.31</ele>
        <time>2011-10-02T16:08:44Z</time>
      </trkpt>
      <trkpt lat="43.77897" lon="3.60344">
        <ele>269.31</ele>
        <time>2011-10-02T16:08:45Z</time>
      </trkpt>
      <trkpt lat="43.77886" lon="3.60326">
        <ele>268.35</ele>
        <time>2011-10-02T16:08:46Z</time>
      </trkpt>
      <trkpt lat="43.77875" lon="3.60309">
        <ele>267.86</ele>
        <time>2011-10-02T16:08:47Z</time>
      </trkpt>
      <trkpt lat="43.7783" lon="3.60252">
        <ele>266.42</ele>
        <time>2011-10-02T16:08:51Z</time>
      </trkpt>
      <trkpt lat="43.77822" lon="3.60239">
        <ele>265.94</ele>
        <time>2011-10-02T16:08:52Z</time>
      </trkpt>
      <trkpt lat="43.77807" lon="3.60213">
        <ele>264.98</ele>
        <time>2011-10-02T16:08:54Z</time>
      </trkpt>
      <trkpt lat="43.77798" lon="3.60204">
        <ele>264.5</ele>
        <time>2011-10-02T16:08:55Z</time>
      </trkpt>
      <trkpt lat="43.77787" lon="3.60196">
        <ele>264.5</ele>
        <time>2011-10-02T16:08:56Z</time>
      </trkpt>
      <trkpt lat="43.77775" lon="3.60191">
        <ele>264.02</ele>
        <time>2011-10-02T16:08:57Z</time>
      </trkpt>
      <trkpt lat="43.77761" lon="3.6019">
        <ele>263.54</ele>
        <time>2011-10-02T16:08:58Z</time>
      </trkpt>
      <trkpt lat="43.77748" lon="3.6019">
        <ele>262.58</ele>
        <time>2011-10-02T16:08:59Z</time>
      </trkpt>
      <trkpt lat="43.77736" lon="3.60192">
        <ele>262.58</ele>
        <time>2011-10-02T16:09:00Z</time>
      </trkpt>
      <trkpt lat="43.77726" lon="3.60191">
        <ele>262.1</ele>
        <time>2011-10-02T16:09:01Z</time>
      </trkpt>
      <trkpt lat="43.77717" lon="3.60189">
        <ele>261.62</ele>
        <time>2011-10-02T16:09:02Z</time>
      </trkpt>
      <trkpt lat="43.7771" lon="3.60184">
        <ele>261.14</ele>
        <time>2011-10-02T16:09:03Z</time>
      </trkpt>
      <trkpt lat="43.77703" lon="3.60177">
        <ele>260.65</ele>
        <time>2011-10-02T16:09:04Z</time>
      </trkpt>
      <trkpt lat="43.77699" lon="3.60168">
        <ele>260.17</ele>
        <time>2011-10-02T16:09:05Z</time>
      </trkpt>
      <trkpt lat="43.77696" lon="3.60156">
        <ele>259.69</ele>
        <time>2011-10-02T16:09:06Z</time>
      </trkpt>
      <trkpt lat="43.77694" lon="3.60143">
        <ele>259.69</ele>
        <time>2011-10-02T16:09:07Z</time>
      </trkpt>
      <trkpt lat="43.77691" lon="3.60131">
        <ele>259.21</ele>
        <time>2011-10-02T16:09:08Z</time>
      </trkpt>
      <trkpt lat="43.77686" lon="3.6012">
        <ele>258.25</ele>
        <time>2011-10-02T16:09:09Z</time>
      </trkpt>
      <trkpt lat="43.77678" lon="3.60111">
        <ele>258.25</ele>
        <time>2011-10-02T16:09:10Z</time>
      </trkpt>
      <trkpt lat="43.77668" lon="3.60104">
        <ele>257.77</ele>
        <time>2011-10-02T16:09:11Z</time>
      </trkpt>
      <trkpt lat="43.77658" lon="3.601">
        <ele>257.29</ele>
        <time>2011-10-02T16:09:12Z</time>
      </trkpt>
      <trkpt lat="43.77646" lon="3.60096">
        <ele>257.29</ele>
        <time>2011-10-02T16:09:13Z</time>
      </trkpt>
      <trkpt lat="43.77636" lon="3.60095">
        <ele>256.81</ele>
        <time>2011-10-02T16:09:14Z</time>
      </trkpt>
      <trkpt lat="43.77625" lon="3.60097">
        <ele>256.81</ele>
        <time>2011-10-02T16:09:15Z</time>
      </trkpt>
      <trkpt lat="43.77616" lon="3.60098">
        <ele>256.33</ele>
        <time>2011-10-02T16:09:16Z</time>
      </trkpt>
      <trkpt lat="43.77601" lon="3.60099">
        <ele>255.85</ele>
        <time>2011-10-02T16:09:18Z</time>
      </trkpt>
      <trkpt lat="43.77596" lon="3.60097">
        <ele>255.37</ele>
        <time>2011-10-02T16:09:19Z</time>
      </trkpt>
      <trkpt lat="43.77594" lon="3.60093">
        <ele>255.37</ele>
        <time>2011-10-02T16:09:20Z</time>
      </trkpt>
      <trkpt lat="43.77593" lon="3.60085">
        <ele>255.37</ele>
        <time>2011-10-02T16:09:21Z</time>
      </trkpt>
      <trkpt lat="43.77595" lon="3.60076">
        <ele>255.37</ele>
        <time>2011-10-02T16:09:22Z</time>
      </trkpt>
      <trkpt lat="43.77599" lon="3.60065">
        <ele>254.89</ele>
        <time>2011-10-02T16:09:23Z</time>
      </trkpt>
      <trkpt lat="43.77604" lon="3.60053">
        <ele>254.89</ele>
        <time>2011-10-02T16:09:24Z</time>
      </trkpt>
      <trkpt lat="43.77609" lon="3.60041">
        <ele>254.41</ele>
        <time>2011-10-02T16:09:25Z</time>
      </trkpt>
      <trkpt lat="43.77611" lon="3.60027">
        <ele>253.93</ele>
        <time>2011-10-02T16:09:26Z</time>
      </trkpt>
      <trkpt lat="43.77612" lon="3.60013">
        <ele>253.44</ele>
        <time>2011-10-02T16:09:27Z</time>
      </trkpt>
      <trkpt lat="43.7761" lon="3.59998">
        <ele>252.96</ele>
        <time>2011-10-02T16:09:28Z</time>
      </trkpt>
      <trkpt lat="43.77607" lon="3.59985">
        <ele>252.48</ele>
        <time>2011-10-02T16:09:29Z</time>
      </trkpt>
      <trkpt lat="43.77602" lon="3.59972">
        <ele>252</ele>
        <time>2011-10-02T16:09:30Z</time>
      </trkpt>
      <trkpt lat="43.77596" lon="3.59961">
        <ele>251.04</ele>
        <time>2011-10-02T16:09:31Z</time>
      </trkpt>
      <trkpt lat="43.77587" lon="3.5995">
        <ele>251.04</ele>
        <time>2011-10-02T16:09:32Z</time>
      </trkpt>
      <trkpt lat="43.77576" lon="3.5994">
        <ele>251.04</ele>
        <time>2011-10-02T16:09:33Z</time>
      </trkpt>
      <trkpt lat="43.77565" lon="3.59932">
        <ele>251.52</ele>
        <time>2011-10-02T16:09:34Z</time>
      </trkpt>
      <trkpt lat="43.77543" lon="3.59917">
        <ele>251.52</ele>
        <time>2011-10-02T16:09:36Z</time>
      </trkpt>
      <trkpt lat="43.77531" lon="3.59913">
        <ele>251.52</ele>
        <time>2011-10-02T16:09:37Z</time>
      </trkpt>
      <trkpt lat="43.77519" lon="3.59911">
        <ele>251.52</ele>
        <time>2011-10-02T16:09:38Z</time>
      </trkpt>
      <trkpt lat="43.77505" lon="3.59912">
        <ele>251.04</ele>
        <time>2011-10-02T16:09:39Z</time>
      </trkpt>
      <trkpt lat="43.7749" lon="3.59915">
        <ele>250.56</ele>
        <time>2011-10-02T16:09:40Z</time>
      </trkpt>
      <trkpt lat="43.77475" lon="3.59918">
        <ele>250.08</ele>
        <time>2011-10-02T16:09:41Z</time>
      </trkpt>
      <trkpt lat="43.77423" lon="3.59926">
        <ele>248.64</ele>
        <time>2011-10-02T16:09:45Z</time>
      </trkpt>
      <trkpt lat="43.77411" lon="3.59924">
        <ele>248.16</ele>
        <time>2011-10-02T16:09:46Z</time>
      </trkpt>
      <trkpt lat="43.77398" lon="3.59918">
        <ele>247.68</ele>
        <time>2011-10-02T16:09:47Z</time>
      </trkpt>
      <trkpt lat="43.77385" lon="3.5991">
        <ele>246.72</ele>
        <time>2011-10-02T16:09:48Z</time>
      </trkpt>
      <trkpt lat="43.77373" lon="3.599">
        <ele>245.75</ele>
        <time>2011-10-02T16:09:49Z</time>
      </trkpt>
      <trkpt lat="43.77362" lon="3.59891">
        <ele>245.27</ele>
        <time>2011-10-02T16:09:50Z</time>
      </trkpt>
      <trkpt lat="43.77352" lon="3.59884">
        <ele>244.79</ele>
        <time>2011-10-02T16:09:51Z</time>
      </trkpt>
      <trkpt lat="43.77343" lon="3.5988">
        <ele>244.79</ele>
        <time>2011-10-02T16:09:52Z</time>
      </trkpt>
      <trkpt lat="43.77334" lon="3.59879">
        <ele>244.31</ele>
        <time>2011-10-02T16:09:53Z</time>
      </trkpt>
      <trkpt lat="43.7732" lon="3.5988">
        <ele>243.35</ele>
        <time>2011-10-02T16:09:55Z</time>
      </trkpt>
      <trkpt lat="43.77316" lon="3.59877">
        <ele>242.87</ele>
        <time>2011-10-02T16:09:56Z</time>
      </trkpt>
      <trkpt lat="43.77313" lon="3.59871">
        <ele>242.39</ele>
        <time>2011-10-02T16:09:57Z</time>
      </trkpt>
      <trkpt lat="43.77313" lon="3.59861">
        <ele>241.43</ele>
        <time>2011-10-02T16:09:58Z</time>
      </trkpt>
      <trkpt lat="43.77314" lon="3.59849">
        <ele>240.95</ele>
        <time>2011-10-02T16:09:59Z</time>
      </trkpt>
      <trkpt lat="43.77316" lon="3.59836">
        <ele>240.47</ele>
        <time>2011-10-02T16:10:00Z</time>
      </trkpt>
      <trkpt lat="43.77317" lon="3.59824">
        <ele>239.51</ele>
        <time>2011-10-02T16:10:01Z</time>
      </trkpt>
      <trkpt lat="43.77315" lon="3.59811">
        <ele>239.02</ele>
        <time>2011-10-02T16:10:02Z</time>
      </trkpt>
      <trkpt lat="43.7731" lon="3.59799">
        <ele>238.06</ele>
        <time>2011-10-02T16:10:03Z</time>
      </trkpt>
      <trkpt lat="43.77303" lon="3.5979">
        <ele>237.58</ele>
        <time>2011-10-02T16:10:04Z</time>
      </trkpt>
      <trkpt lat="43.77295" lon="3.59786">
        <ele>237.1</ele>
        <time>2011-10-02T16:10:05Z</time>
      </trkpt>
      <trkpt lat="43.77284" lon="3.59786">
        <ele>236.14</ele>
        <time>2011-10-02T16:10:06Z</time>
      </trkpt>
      <trkpt lat="43.77274" lon="3.59788">
        <ele>235.66</ele>
        <time>2011-10-02T16:10:07Z</time>
      </trkpt>
      <trkpt lat="43.77262" lon="3.59793">
        <ele>235.18</ele>
        <time>2011-10-02T16:10:08Z</time>
      </trkpt>
      <trkpt lat="43.7725" lon="3.59799">
        <ele>234.22</ele>
        <time>2011-10-02T16:10:09Z</time>
      </trkpt>
      <trkpt lat="43.77175" lon="3.59829">
        <ele>229.41</ele>
        <time>2011-10-02T16:10:16Z</time>
      </trkpt>
      <trkpt lat="43.77168" lon="3.59829">
        <ele>228.93</ele>
        <time>2011-10-02T16:10:17Z</time>
      </trkpt>
      <trkpt lat="43.77162" lon="3.59827">
        <ele>228.45</ele>
        <time>2011-10-02T16:10:18Z</time>
      </trkpt>
      <trkpt lat="43.77157" lon="3.59822">
        <ele>227.97</ele>
        <time>2011-10-02T16:10:19Z</time>
      </trkpt>
      <trkpt lat="43.77153" lon="3.59814">
        <ele>227.01</ele>
        <time>2011-10-02T16:10:20Z</time>
      </trkpt>
      <trkpt lat="43.77152" lon="3.59801">
        <ele>226.53</ele>
        <time>2011-10-02T16:10:21Z</time>
      </trkpt>
      <trkpt lat="43.77152" lon="3.59787">
        <ele>226.05</ele>
        <time>2011-10-02T16:10:22Z</time>
      </trkpt>
      <trkpt lat="43.77154" lon="3.59774">
        <ele>225.57</ele>
        <time>2011-10-02T16:10:23Z</time>
      </trkpt>
      <trkpt lat="43.77157" lon="3.59761">
        <ele>225.57</ele>
        <time>2011-10-02T16:10:24Z</time>
      </trkpt>
      <trkpt lat="43.77162" lon="3.5975">
        <ele>225.09</ele>
        <time>2011-10-02T16:10:25Z</time>
      </trkpt>
      <trkpt lat="43.7717" lon="3.59741">
        <ele>224.61</ele>
        <time>2011-10-02T16:10:26Z</time>
      </trkpt>
      <trkpt lat="43.77176" lon="3.59731">
        <ele>224.61</ele>
        <time>2011-10-02T16:10:27Z</time>
      </trkpt>
      <trkpt lat="43.77181" lon="3.5972">
        <ele>224.12</ele>
        <time>2011-10-02T16:10:28Z</time>
      </trkpt>
      <trkpt lat="43.77184" lon="3.59707">
        <ele>223.64</ele>
        <time>2011-10-02T16:10:29Z</time>
      </trkpt>
      <trkpt lat="43.77185" lon="3.59694">
        <ele>223.64</ele>
        <time>2011-10-02T16:10:30Z</time>
      </trkpt>
      <trkpt lat="43.77185" lon="3.59682">
        <ele>223.16</ele>
        <time>2011-10-02T16:10:31Z</time>
      </trkpt>
      <trkpt lat="43.77184" lon="3.5967">
        <ele>222.68</ele>
        <time>2011-10-02T16:10:32Z</time>
      </trkpt>
      <trkpt lat="43.77182" lon="3.59659">
        <ele>222.68</ele>
        <time>2011-10-02T16:10:33Z</time>
      </trkpt>
      <trkpt lat="43.77178" lon="3.59649">
        <ele>222.2</ele>
        <time>2011-10-02T16:10:34Z</time>
      </trkpt>
      <trkpt lat="43.77171" lon="3.5964">
        <ele>221.72</ele>
        <time>2011-10-02T16:10:35Z</time>
      </trkpt>
      <trkpt lat="43.77163" lon="3.59632">
        <ele>221.24</ele>
        <time>2011-10-02T16:10:36Z</time>
      </trkpt>
      <trkpt lat="43.77152" lon="3.59626">
        <ele>221.24</ele>
        <time>2011-10-02T16:10:37Z</time>
      </trkpt>
      <trkpt lat="43.77138" lon="3.59625">
        <ele>220.28</ele>
        <time>2011-10-02T16:10:38Z</time>
      </trkpt>
      <trkpt lat="43.77124" lon="3.59622">
        <ele>219.8</ele>
        <time>2011-10-02T16:10:39Z</time>
      </trkpt>
      <trkpt lat="43.77109" lon="3.59621">
        <ele>218.84</ele>
        <time>2011-10-02T16:10:40Z</time>
      </trkpt>
      <trkpt lat="43.77095" lon="3.5962">
        <ele>217.88</ele>
        <time>2011-10-02T16:10:41Z</time>
      </trkpt>
      <trkpt lat="43.77082" lon="3.59622">
        <ele>217.4</ele>
        <time>2011-10-02T16:10:42Z</time>
      </trkpt>
      <trkpt lat="43.77069" lon="3.59626">
        <ele>216.43</ele>
        <time>2011-10-02T16:10:43Z</time>
      </trkpt>
      <trkpt lat="43.7704" lon="3.59636">
        <ele>214.51</ele>
        <time>2011-10-02T16:10:46Z</time>
      </trkpt>
      <trkpt lat="43.77033" lon="3.59635">
        <ele>214.03</ele>
        <time>2011-10-02T16:10:47Z</time>
      </trkpt>
      <trkpt lat="43.77027" lon="3.5963">
        <ele>213.55</ele>
        <time>2011-10-02T16:10:48Z</time>
      </trkpt>
      <trkpt lat="43.77023" lon="3.59621">
        <ele>212.59</ele>
        <time>2011-10-02T16:10:49Z</time>
      </trkpt>
      <trkpt lat="43.77017" lon="3.59612">
        <ele>212.11</ele>
        <time>2011-10-02T16:10:50Z</time>
      </trkpt>
      <trkpt lat="43.77011" lon="3.59603">
        <ele>211.63</ele>
        <time>2011-10-02T16:10:51Z</time>
      </trkpt>
      <trkpt lat="43.77002" lon="3.59598">
        <ele>211.63</ele>
        <time>2011-10-02T16:10:52Z</time>
      </trkpt>
      <trkpt lat="43.76992" lon="3.59598">
        <ele>211.15</ele>
        <time>2011-10-02T16:10:53Z</time>
      </trkpt>
      <trkpt lat="43.76982" lon="3.59602">
        <ele>210.67</ele>
        <time>2011-10-02T16:10:54Z</time>
      </trkpt>
      <trkpt lat="43.76972" lon="3.59606">
        <ele>210.19</ele>
        <time>2011-10-02T16:10:55Z</time>
      </trkpt>
      <trkpt lat="43.76962" lon="3.5961">
        <ele>209.7</ele>
        <time>2011-10-02T16:10:56Z</time>
      </trkpt>
      <trkpt lat="43.76952" lon="3.5961">
        <ele>209.22</ele>
        <time>2011-10-02T16:10:57Z</time>
      </trkpt>
      <trkpt lat="43.76941" lon="3.59606">
        <ele>210.19</ele>
        <time>2011-10-02T16:10:58Z</time>
      </trkpt>
      <trkpt lat="43.76931" lon="3.596">
        <ele>209.7</ele>
        <time>2011-10-02T16:10:59Z</time>
      </trkpt>
      <trkpt lat="43.76921" lon="3.59592">
        <ele>208.74</ele>
        <time>2011-10-02T16:11:00Z</time>
      </trkpt>
      <trkpt lat="43.76912" lon="3.59584">
        <ele>207.78</ele>
        <time>2011-10-02T16:11:01Z</time>
      </trkpt>
      <trkpt lat="43.76903" lon="3.59575">
        <ele>206.82</ele>
        <time>2011-10-02T16:11:02Z</time>
      </trkpt>
      <trkpt lat="43.76897" lon="3.59565">
        <ele>206.34</ele>
        <time>2011-10-02T16:11:03Z</time>
      </trkpt>
      <trkpt lat="43.76892" lon="3.59555">
        <ele>205.86</ele>
        <time>2011-10-02T16:11:04Z</time>
      </trkpt>
      <trkpt lat="43.7689" lon="3.59544">
        <ele>204.9</ele>
        <time>2011-10-02T16:11:05Z</time>
      </trkpt>
      <trkpt lat="43.7689" lon="3.59532">
        <ele>204.42</ele>
        <time>2011-10-02T16:11:06Z</time>
      </trkpt>
      <trkpt lat="43.76889" lon="3.59521">
        <ele>204.42</ele>
        <time>2011-10-02T16:11:07Z</time>
      </trkpt>
      <trkpt lat="43.76888" lon="3.59512">
        <ele>203.46</ele>
        <time>2011-10-02T16:11:08Z</time>
      </trkpt>
      <trkpt lat="43.76882" lon="3.59502">
        <ele>202.98</ele>
        <time>2011-10-02T16:11:09Z</time>
      </trkpt>
      <trkpt lat="43.76872" lon="3.59493">
        <ele>202.49</ele>
        <time>2011-10-02T16:11:10Z</time>
      </trkpt>
      <trkpt lat="43.76861" lon="3.59485">
        <ele>202.01</ele>
        <time>2011-10-02T16:11:11Z</time>
      </trkpt>
      <trkpt lat="43.7685" lon="3.59478">
        <ele>201.05</ele>
        <time>2011-10-02T16:11:12Z</time>
      </trkpt>
      <trkpt lat="43.76831" lon="3.59472">
        <ele>199.61</ele>
        <time>2011-10-02T16:11:14Z</time>
      </trkpt>
      <trkpt lat="43.76822" lon="3.59473">
        <ele>199.13</ele>
        <time>2011-10-02T16:11:15Z</time>
      </trkpt>
      <trkpt lat="43.76815" lon="3.59478">
        <ele>198.65</ele>
        <time>2011-10-02T16:11:16Z</time>
      </trkpt>
      <trkpt lat="43.76808" lon="3.59486">
        <ele>198.65</ele>
        <time>2011-10-02T16:11:17Z</time>
      </trkpt>
      <trkpt lat="43.76801" lon="3.59492">
        <ele>197.69</ele>
        <time>2011-10-02T16:11:18Z</time>
      </trkpt>
      <trkpt lat="43.76791" lon="3.59496">
        <ele>197.21</ele>
        <time>2011-10-02T16:11:19Z</time>
      </trkpt>
      <trkpt lat="43.76781" lon="3.59497">
        <ele>196.25</ele>
        <time>2011-10-02T16:11:20Z</time>
      </trkpt>
      <trkpt lat="43.7677" lon="3.59497">
        <ele>195.77</ele>
        <time>2011-10-02T16:11:21Z</time>
      </trkpt>
      <trkpt lat="43.7676" lon="3.59498">
        <ele>195.77</ele>
        <time>2011-10-02T16:11:22Z</time>
      </trkpt>
      <trkpt lat="43.76752" lon="3.59495">
        <ele>195.77</ele>
        <time>2011-10-02T16:11:23Z</time>
      </trkpt>
      <trkpt lat="43.76747" lon="3.59491">
        <ele>195.28</ele>
        <time>2011-10-02T16:11:24Z</time>
      </trkpt>
      <trkpt lat="43.76745" lon="3.59484">
        <ele>194.8</ele>
        <time>2011-10-02T16:11:25Z</time>
      </trkpt>
      <trkpt lat="43.76745" lon="3.59476">
        <ele>194.32</ele>
        <time>2011-10-02T16:11:26Z</time>
      </trkpt>
      <trkpt lat="43.76746" lon="3.59467">
        <ele>194.32</ele>
        <time>2011-10-02T16:11:27Z</time>
      </trkpt>
      <trkpt lat="43.76748" lon="3.59456">
        <ele>193.84</ele>
        <time>2011-10-02T16:11:28Z</time>
      </trkpt>
      <trkpt lat="43.76748" lon="3.59446">
        <ele>192.88</ele>
        <time>2011-10-02T16:11:29Z</time>
      </trkpt>
      <trkpt lat="43.76745" lon="3.59436">
        <ele>191.92</ele>
        <time>2011-10-02T16:11:30Z</time>
      </trkpt>
      <trkpt lat="43.76737" lon="3.59426">
        <ele>191.44</ele>
        <time>2011-10-02T16:11:31Z</time>
      </trkpt>
      <trkpt lat="43.76727" lon="3.59421">
        <ele>190.48</ele>
        <time>2011-10-02T16:11:32Z</time>
      </trkpt>
      <trkpt lat="43.76716" lon="3.59421">
        <ele>190.48</ele>
        <time>2011-10-02T16:11:33Z</time>
      </trkpt>
      <trkpt lat="43.76703" lon="3.59421">
        <ele>189.52</ele>
        <time>2011-10-02T16:11:34Z</time>
      </trkpt>
      <trkpt lat="43.76688" lon="3.59423">
        <ele>188.56</ele>
        <time>2011-10-02T16:11:35Z</time>
      </trkpt>
      <trkpt lat="43.76671" lon="3.59426">
        <ele>187.11</ele>
        <time>2011-10-02T16:11:36Z</time>
      </trkpt>
      <trkpt lat="43.76653" lon="3.5943">
        <ele>185.67</ele>
        <time>2011-10-02T16:11:37Z</time>
      </trkpt>
      <trkpt lat="43.76535" lon="3.59454">
        <ele>175.58</ele>
        <time>2011-10-02T16:11:44Z</time>
      </trkpt>
      <trkpt lat="43.76521" lon="3.59462">
        <ele>174.62</ele>
        <time>2011-10-02T16:11:45Z</time>
      </trkpt>
      <trkpt lat="43.76508" lon="3.59474">
        <ele>173.66</ele>
        <time>2011-10-02T16:11:46Z</time>
      </trkpt>
      <trkpt lat="43.76498" lon="3.59489">
        <ele>172.21</ele>
        <time>2011-10-02T16:11:47Z</time>
      </trkpt>
      <trkpt lat="43.76488" lon="3.59505">
        <ele>171.25</ele>
        <time>2011-10-02T16:11:48Z</time>
      </trkpt>
      <trkpt lat="43.76478" lon="3.5952">
        <ele>170.29</ele>
        <time>2011-10-02T16:11:49Z</time>
      </trkpt>
      <trkpt lat="43.76453" lon="3.59555">
        <ele>166.45</ele>
        <time>2011-10-02T16:11:52Z</time>
      </trkpt>
      <trkpt lat="43.76446" lon="3.59561">
        <ele>165.48</ele>
        <time>2011-10-02T16:11:53Z</time>
      </trkpt>
      <trkpt lat="43.76439" lon="3.59564">
        <ele>165</ele>
        <time>2011-10-02T16:11:54Z</time>
      </trkpt>
      <trkpt lat="43.76431" lon="3.59564">
        <ele>164.04</ele>
        <time>2011-10-02T16:11:55Z</time>
      </trkpt>
      <trkpt lat="43.76423" lon="3.5956">
        <ele>163.08</ele>
        <time>2011-10-02T16:11:56Z</time>
      </trkpt>
      <trkpt lat="43.76414" lon="3.59554">
        <ele>162.6</ele>
        <time>2011-10-02T16:11:57Z</time>
      </trkpt>
      <trkpt lat="43.76404" lon="3.5955">
        <ele>163.08</ele>
        <time>2011-10-02T16:11:58Z</time>
      </trkpt>
      <trkpt lat="43.76393" lon="3.59548">
        <ele>162.6</ele>
        <time>2011-10-02T16:11:59Z</time>
      </trkpt>
      <trkpt lat="43.76382" lon="3.59549">
        <ele>161.64</ele>
        <time>2011-10-02T16:12:00Z</time>
      </trkpt>
      <trkpt lat="43.7637" lon="3.59554">
        <ele>160.68</ele>
        <time>2011-10-02T16:12:01Z</time>
      </trkpt>
      <trkpt lat="43.76358" lon="3.59558">
        <ele>160.2</ele>
        <time>2011-10-02T16:12:02Z</time>
      </trkpt>
      <trkpt lat="43.76346" lon="3.59558">
        <ele>159.72</ele>
        <time>2011-10-02T16:12:03Z</time>
      </trkpt>
      <trkpt lat="43.76334" lon="3.59559">
        <ele>159.24</ele>
        <time>2011-10-02T16:12:04Z</time>
      </trkpt>
      <trkpt lat="43.76323" lon="3.5956">
        <ele>158.27</ele>
        <time>2011-10-02T16:12:05Z</time>
      </trkpt>
      <trkpt lat="43.76312" lon="3.59566">
        <ele>157.79</ele>
        <time>2011-10-02T16:12:06Z</time>
      </trkpt>
      <trkpt lat="43.76302" lon="3.59578">
        <ele>156.83</ele>
        <time>2011-10-02T16:12:07Z</time>
      </trkpt>
      <trkpt lat="43.76292" lon="3.59592">
        <ele>155.39</ele>
        <time>2011-10-02T16:12:08Z</time>
      </trkpt>
      <trkpt lat="43.76282" lon="3.59608">
        <ele>153.95</ele>
        <time>2011-10-02T16:12:09Z</time>
      </trkpt>
      <trkpt lat="43.76273" lon="3.59626">
        <ele>153.47</ele>
        <time>2011-10-02T16:12:10Z</time>
      </trkpt>
      <trkpt lat="43.76237" lon="3.59693">
        <ele>150.58</ele>
        <time>2011-10-02T16:12:14Z</time>
      </trkpt>
      <trkpt lat="43.76227" lon="3.59706">
        <ele>149.62</ele>
        <time>2011-10-02T16:12:15Z</time>
      </trkpt>
      <trkpt lat="43.76217" lon="3.59718">
        <ele>149.14</ele>
        <time>2011-10-02T16:12:16Z</time>
      </trkpt>
      <trkpt lat="43.76207" lon="3.59728">
        <ele>148.66</ele>
        <time>2011-10-02T16:12:17Z</time>
      </trkpt>
      <trkpt lat="43.76199" lon="3.59739">
        <ele>147.22</ele>
        <time>2011-10-02T16:12:18Z</time>
      </trkpt>
      <trkpt lat="43.76193" lon="3.5975">
        <ele>146.26</ele>
        <time>2011-10-02T16:12:19Z</time>
      </trkpt>
      <trkpt lat="43.7619" lon="3.59764">
        <ele>145.78</ele>
        <time>2011-10-02T16:12:20Z</time>
      </trkpt>
      <trkpt lat="43.7619" lon="3.59778">
        <ele>144.82</ele>
        <time>2011-10-02T16:12:21Z</time>
      </trkpt>
      <trkpt lat="43.76189" lon="3.59792">
        <ele>143.85</ele>
        <time>2011-10-02T16:12:22Z</time>
      </trkpt>
      <trkpt lat="43.76186" lon="3.59805">
        <ele>142.89</ele>
        <time>2011-10-02T16:12:23Z</time>
      </trkpt>
      <trkpt lat="43.76182" lon="3.59819">
        <ele>141.93</ele>
        <time>2011-10-02T16:12:24Z</time>
      </trkpt>
      <trkpt lat="43.76175" lon="3.59834">
        <ele>141.45</ele>
        <time>2011-10-02T16:12:25Z</time>
      </trkpt>
      <trkpt lat="43.76167" lon="3.59849">
        <ele>140.97</ele>
        <time>2011-10-02T16:12:26Z</time>
      </trkpt>
      <trkpt lat="43.76136" lon="3.59899">
        <ele>137.13</ele>
        <time>2011-10-02T16:12:30Z</time>
      </trkpt>
      <trkpt lat="43.76129" lon="3.59906">
        <ele>136.64</ele>
        <time>2011-10-02T16:12:31Z</time>
      </trkpt>
      <trkpt lat="43.7612" lon="3.59911">
        <ele>136.16</ele>
        <time>2011-10-02T16:12:32Z</time>
      </trkpt>
      <trkpt lat="43.76111" lon="3.59915">
        <ele>136.16</ele>
        <time>2011-10-02T16:12:33Z</time>
      </trkpt>
      <trkpt lat="43.761" lon="3.59915">
        <ele>136.64</ele>
        <time>2011-10-02T16:12:34Z</time>
      </trkpt>
      <trkpt lat="43.76089" lon="3.5991">
        <ele>135.68</ele>
        <time>2011-10-02T16:12:35Z</time>
      </trkpt>
      <trkpt lat="43.76076" lon="3.59903">
        <ele>135.2</ele>
        <time>2011-10-02T16:12:36Z</time>
      </trkpt>
      <trkpt lat="43.76019" lon="3.59866">
        <ele>132.32</ele>
        <time>2011-10-02T16:12:41Z</time>
      </trkpt>
      <trkpt lat="43.7601" lon="3.59865">
        <ele>131.84</ele>
        <time>2011-10-02T16:12:42Z</time>
      </trkpt>
      <trkpt lat="43.76001" lon="3.59867">
        <ele>130.88</ele>
        <time>2011-10-02T16:12:43Z</time>
      </trkpt>
      <trkpt lat="43.75991" lon="3.59872">
        <ele>130.4</ele>
        <time>2011-10-02T16:12:44Z</time>
      </trkpt>
      <trkpt lat="43.75981" lon="3.59877">
        <ele>129.92</ele>
        <time>2011-10-02T16:12:45Z</time>
      </trkpt>
      <trkpt lat="43.75972" lon="3.59879">
        <ele>128.47</ele>
        <time>2011-10-02T16:12:46Z</time>
      </trkpt>
      <trkpt lat="43.7596" lon="3.59877">
        <ele>127.99</ele>
        <time>2011-10-02T16:12:47Z</time>
      </trkpt>
      <trkpt lat="43.75947" lon="3.59871">
        <ele>127.03</ele>
        <time>2011-10-02T16:12:48Z</time>
      </trkpt>
      <trkpt lat="43.75932" lon="3.59865">
        <ele>126.07</ele>
        <time>2011-10-02T16:12:49Z</time>
      </trkpt>
      <trkpt lat="43.75852" lon="3.5984">
        <ele>121.74</ele>
        <time>2011-10-02T16:12:54Z</time>
      </trkpt>
      <trkpt lat="43.75825" lon="3.59829">
        <ele>120.78</ele>
        <time>2011-10-02T16:12:56Z</time>
      </trkpt>
      <trkpt lat="43.75811" lon="3.59827">
        <ele>119.82</ele>
        <time>2011-10-02T16:12:57Z</time>
      </trkpt>
      <trkpt lat="43.75795" lon="3.59829">
        <ele>119.34</ele>
        <time>2011-10-02T16:12:58Z</time>
      </trkpt>
      <trkpt lat="43.75779" lon="3.5983">
        <ele>118.38</ele>
        <time>2011-10-02T16:12:59Z</time>
      </trkpt>
      <trkpt lat="43.75763" lon="3.59829">
        <ele>117.9</ele>
        <time>2011-10-02T16:13:00Z</time>
      </trkpt>
      <trkpt lat="43.75747" lon="3.59828">
        <ele>117.9</ele>
        <time>2011-10-02T16:13:01Z</time>
      </trkpt>
      <trkpt lat="43.75732" lon="3.59828">
        <ele>116.94</ele>
        <time>2011-10-02T16:13:02Z</time>
      </trkpt>
      <trkpt lat="43.75717" lon="3.59833">
        <ele>116.94</ele>
        <time>2011-10-02T16:13:03Z</time>
      </trkpt>
      <trkpt lat="43.75703" lon="3.59839">
        <ele>115.98</ele>
        <time>2011-10-02T16:13:04Z</time>
      </trkpt>
      <trkpt lat="43.75689" lon="3.59845">
        <ele>115.5</ele>
        <time>2011-10-02T16:13:05Z</time>
      </trkpt>
      <trkpt lat="43.75676" lon="3.59849">
        <ele>115.01</ele>
        <time>2011-10-02T16:13:06Z</time>
      </trkpt>
      <trkpt lat="43.75662" lon="3.5985">
        <ele>114.05</ele>
        <time>2011-10-02T16:13:07Z</time>
      </trkpt>
      <trkpt lat="43.75648" lon="3.59848">
        <ele>113.09</ele>
        <time>2011-10-02T16:13:08Z</time>
      </trkpt>
      <trkpt lat="43.75635" lon="3.59845">
        <ele>112.61</ele>
        <time>2011-10-02T16:13:09Z</time>
      </trkpt>
      <trkpt lat="43.75622" lon="3.59839">
        <ele>112.13</ele>
        <time>2011-10-02T16:13:10Z</time>
      </trkpt>
      <trkpt lat="43.75609" lon="3.59832">
        <ele>111.17</ele>
        <time>2011-10-02T16:13:11Z</time>
      </trkpt>
      <trkpt lat="43.75596" lon="3.59828">
        <ele>111.65</ele>
        <time>2011-10-02T16:13:12Z</time>
      </trkpt>
      <trkpt lat="43.75582" lon="3.59826">
        <ele>111.65</ele>
        <time>2011-10-02T16:13:13Z</time>
      </trkpt>
      <trkpt lat="43.75569" lon="3.59827">
        <ele>111.17</ele>
        <time>2011-10-02T16:13:14Z</time>
      </trkpt>
      <trkpt lat="43.75555" lon="3.5983">
        <ele>110.69</ele>
        <time>2011-10-02T16:13:15Z</time>
      </trkpt>
      <trkpt lat="43.7554" lon="3.59832">
        <ele>110.21</ele>
        <time>2011-10-02T16:13:16Z</time>
      </trkpt>
      <trkpt lat="43.75527" lon="3.59833">
        <ele>109.73</ele>
        <time>2011-10-02T16:13:17Z</time>
      </trkpt>
      <trkpt lat="43.75515" lon="3.59831">
        <ele>109.25</ele>
        <time>2011-10-02T16:13:18Z</time>
      </trkpt>
      <trkpt lat="43.75503" lon="3.59825">
        <ele>108.77</ele>
        <time>2011-10-02T16:13:19Z</time>
      </trkpt>
      <trkpt lat="43.75492" lon="3.59818">
        <ele>108.77</ele>
        <time>2011-10-02T16:13:20Z</time>
      </trkpt>
      <trkpt lat="43.75481" lon="3.59812">
        <ele>108.29</ele>
        <time>2011-10-02T16:13:21Z</time>
      </trkpt>
      <trkpt lat="43.75471" lon="3.59808">
        <ele>107.81</ele>
        <time>2011-10-02T16:13:22Z</time>
      </trkpt>
      <trkpt lat="43.75459" lon="3.59807">
        <ele>107.81</ele>
        <time>2011-10-02T16:13:23Z</time>
      </trkpt>
      <trkpt lat="43.75448" lon="3.59808">
        <ele>106.84</ele>
        <time>2011-10-02T16:13:24Z</time>
      </trkpt>
      <trkpt lat="43.75435" lon="3.59817">
        <ele>106.36</ele>
        <time>2011-10-02T16:13:25Z</time>
      </trkpt>
      <trkpt lat="43.75423" lon="3.59828">
        <ele>105.88</ele>
        <time>2011-10-02T16:13:26Z</time>
      </trkpt>
      <trkpt lat="43.75414" lon="3.5984">
        <ele>105.4</ele>
        <time>2011-10-02T16:13:27Z</time>
      </trkpt>
      <trkpt lat="43.75406" lon="3.59854">
        <ele>105.4</ele>
        <time>2011-10-02T16:13:28Z</time>
      </trkpt>
      <trkpt lat="43.75401" lon="3.59868">
        <ele>105.4</ele>
        <time>2011-10-02T16:13:29Z</time>
      </trkpt>
      <trkpt lat="43.75396" lon="3.5988">
        <ele>104.92</ele>
        <time>2011-10-02T16:13:30Z</time>
      </trkpt>
      <trkpt lat="43.75391" lon="3.5989">
        <ele>104.44</ele>
        <time>2011-10-02T16:13:31Z</time>
      </trkpt>
      <trkpt lat="43.75388" lon="3.59896">
        <ele>104.44</ele>
        <time>2011-10-02T16:13:32Z</time>
      </trkpt>
      <trkpt lat="43.75382" lon="3.59897">
        <ele>103.96</ele>
        <time>2011-10-02T16:13:33Z</time>
      </trkpt>
      <trkpt lat="43.75374" lon="3.59897">
        <ele>103.48</ele>
        <time>2011-10-02T16:13:34Z</time>
      </trkpt>
      <trkpt lat="43.75365" lon="3.59894">
        <ele>103.48</ele>
        <time>2011-10-02T16:13:35Z</time>
      </trkpt>
      <trkpt lat="43.75357" lon="3.59891">
        <ele>103.48</ele>
        <time>2011-10-02T16:13:36Z</time>
      </trkpt>
      <trkpt lat="43.75348" lon="3.59891">
        <ele>103</ele>
        <time>2011-10-02T16:13:37Z</time>
      </trkpt>
      <trkpt lat="43.75339" lon="3.59894">
        <ele>102.52</ele>
        <time>2011-10-02T16:13:38Z</time>
      </trkpt>
      <trkpt lat="43.75329" lon="3.59902">
        <ele>102.04</ele>
        <time>2011-10-02T16:13:39Z</time>
      </trkpt>
      <trkpt lat="43.75319" lon="3.59914">
        <ele>101.56</ele>
        <time>2011-10-02T16:13:40Z</time>
      </trkpt>
      <trkpt lat="43.75309" lon="3.59928">
        <ele>100.6</ele>
        <time>2011-10-02T16:13:41Z</time>
      </trkpt>
      <trkpt lat="43.75299" lon="3.59943">
        <ele>99.63</ele>
        <time>2011-10-02T16:13:42Z</time>
      </trkpt>
      <trkpt lat="43.75231" lon="3.60026">
        <ele>96.75</ele>
        <time>2011-10-02T16:13:48Z</time>
      </trkpt>
      <trkpt lat="43.75218" lon="3.60036">
        <ele>95.79</ele>
        <time>2011-10-02T16:13:49Z</time>
      </trkpt>
      <trkpt lat="43.75204" lon="3.60043">
        <ele>94.83</ele>
        <time>2011-10-02T16:13:50Z</time>
      </trkpt>
      <trkpt lat="43.75189" lon="3.60049">
        <ele>94.35</ele>
        <time>2011-10-02T16:13:51Z</time>
      </trkpt>
      <trkpt lat="43.75174" lon="3.60053">
        <ele>93.39</ele>
        <time>2011-10-02T16:13:52Z</time>
      </trkpt>
      <trkpt lat="43.75158" lon="3.60054">
        <ele>92.9</ele>
        <time>2011-10-02T16:13:53Z</time>
      </trkpt>
      <trkpt lat="43.75142" lon="3.60054">
        <ele>92.9</ele>
        <time>2011-10-02T16:13:54Z</time>
      </trkpt>
      <trkpt lat="43.75106" lon="3.60051">
        <ele>91.94</ele>
        <time>2011-10-02T16:13:57Z</time>
      </trkpt>
      <trkpt lat="43.75097" lon="3.60047">
        <ele>91.46</ele>
        <time>2011-10-02T16:13:58Z</time>
      </trkpt>
      <trkpt lat="43.75087" lon="3.60041">
        <ele>91.46</ele>
        <time>2011-10-02T16:13:59Z</time>
      </trkpt>
      <trkpt lat="43.75078" lon="3.60032">
        <ele>91.46</ele>
        <time>2011-10-02T16:14:00Z</time>
      </trkpt>
      <trkpt lat="43.75068" lon="3.60021">
        <ele>91.46</ele>
        <time>2011-10-02T16:14:01Z</time>
      </trkpt>
      <trkpt lat="43.74982" lon="3.59952">
        <ele>89.06</ele>
        <time>2011-10-02T16:14:10Z</time>
      </trkpt>
      <trkpt lat="43.74975" lon="3.59946">
        <ele>89.06</ele>
        <time>2011-10-02T16:14:11Z</time>
      </trkpt>
      <trkpt lat="43.74969" lon="3.59939">
        <ele>88.58</ele>
        <time>2011-10-02T16:14:12Z</time>
      </trkpt>
      <trkpt lat="43.74965" lon="3.59931">
        <ele>88.58</ele>
        <time>2011-10-02T16:14:13Z</time>
      </trkpt>
      <trkpt lat="43.74962" lon="3.59922">
        <ele>88.1</ele>
        <time>2011-10-02T16:14:14Z</time>
      </trkpt>
      <trkpt lat="43.74962" lon="3.59912">
        <ele>88.58</ele>
        <time>2011-10-02T16:14:15Z</time>
      </trkpt>
      <trkpt lat="43.74963" lon="3.59899">
        <ele>88.1</ele>
        <time>2011-10-02T16:14:16Z</time>
      </trkpt>
      <trkpt lat="43.74966" lon="3.59884">
        <ele>88.1</ele>
        <time>2011-10-02T16:14:17Z</time>
      </trkpt>
      <trkpt lat="43.74969" lon="3.59866">
        <ele>87.62</ele>
        <time>2011-10-02T16:14:18Z</time>
      </trkpt>
      <trkpt lat="43.75009" lon="3.59672">
        <ele>85.21</ele>
        <time>2011-10-02T16:14:27Z</time>
      </trkpt>
      <trkpt lat="43.75043" lon="3.59393">
        <ele>82.33</ele>
        <time>2011-10-02T16:14:39Z</time>
      </trkpt>
      <trkpt lat="43.75046" lon="3.59309">
        <ele>81.37</ele>
        <time>2011-10-02T16:14:43Z</time>
      </trkpt>
      <trkpt lat="43.75044" lon="3.59287">
        <ele>81.37</ele>
        <time>2011-10-02T16:14:44Z</time>
      </trkpt>
      <trkpt lat="43.75041" lon="3.59265">
        <ele>80.89</ele>
        <time>2011-10-02T16:14:45Z</time>
      </trkpt>
      <trkpt lat="43.75036" lon="3.59243">
        <ele>81.37</ele>
        <time>2011-10-02T16:14:46Z</time>
      </trkpt>
      <trkpt lat="43.75029" lon="3.59222">
        <ele>81.37</ele>
        <time>2011-10-02T16:14:47Z</time>
      </trkpt>
      <trkpt lat="43.75021" lon="3.592">
        <ele>81.85</ele>
        <time>2011-10-02T16:14:48Z</time>
      </trkpt>
      <trkpt lat="43.75012" lon="3.59178">
        <ele>81.85</ele>
        <time>2011-10-02T16:14:49Z</time>
      </trkpt>
      <trkpt lat="43.75001" lon="3.59157">
        <ele>81.85</ele>
        <time>2011-10-02T16:14:50Z</time>
      </trkpt>
      <trkpt lat="43.74989" lon="3.59137">
        <ele>81.85</ele>
        <time>2011-10-02T16:14:51Z</time>
      </trkpt>
      <trkpt lat="43.74975" lon="3.59117">
        <ele>81.85</ele>
        <time>2011-10-02T16:14:52Z</time>
      </trkpt>
      <trkpt lat="43.74961" lon="3.591">
        <ele>81.85</ele>
        <time>2011-10-02T16:14:53Z</time>
      </trkpt>
      <trkpt lat="43.74945" lon="3.59083">
        <ele>82.33</ele>
        <time>2011-10-02T16:14:54Z</time>
      </trkpt>
      <trkpt lat="43.74927" lon="3.59068">
        <ele>82.81</ele>
        <time>2011-10-02T16:14:55Z</time>
      </trkpt>
      <trkpt lat="43.74908" lon="3.59055">
        <ele>82.81</ele>
        <time>2011-10-02T16:14:56Z</time>
      </trkpt>
      <trkpt lat="43.74888" lon="3.59042">
        <ele>82.81</ele>
        <time>2011-10-02T16:14:57Z</time>
      </trkpt>
      <trkpt lat="43.74714" lon="3.58947">
        <ele>81.85</ele>
        <time>2011-10-02T16:15:06Z</time>
      </trkpt>
      <trkpt lat="43.74634" lon="3.58903">
        <ele>80.89</ele>
        <time>2011-10-02T16:15:13Z</time>
      </trkpt>
      <trkpt lat="43.74627" lon="3.58895">
        <ele>80.89</ele>
        <time>2011-10-02T16:15:14Z</time>
      </trkpt>
      <trkpt lat="43.74621" lon="3.58885">
        <ele>80.41</ele>
        <time>2011-10-02T16:15:15Z</time>
      </trkpt>
      <trkpt lat="43.74617" lon="3.58872">
        <ele>80.41</ele>
        <time>2011-10-02T16:15:16Z</time>
      </trkpt>
      <trkpt lat="43.74615" lon="3.58858">
        <ele>80.89</ele>
        <time>2011-10-02T16:15:17Z</time>
      </trkpt>
      <trkpt lat="43.74615" lon="3.58844">
        <ele>81.37</ele>
        <time>2011-10-02T16:15:18Z</time>
      </trkpt>
      <trkpt lat="43.74616" lon="3.58828">
        <ele>81.85</ele>
        <time>2011-10-02T16:15:19Z</time>
      </trkpt>
      <trkpt lat="43.74618" lon="3.58813">
        <ele>81.85</ele>
        <time>2011-10-02T16:15:20Z</time>
      </trkpt>
      <trkpt lat="43.74621" lon="3.58798">
        <ele>81.85</ele>
        <time>2011-10-02T16:15:21Z</time>
      </trkpt>
      <trkpt lat="43.74626" lon="3.58783">
        <ele>82.33</ele>
        <time>2011-10-02T16:15:22Z</time>
      </trkpt>
      <trkpt lat="43.74631" lon="3.5877">
        <ele>82.33</ele>
        <time>2011-10-02T16:15:23Z</time>
      </trkpt>
      <trkpt lat="43.74636" lon="3.58757">
        <ele>82.33</ele>
        <time>2011-10-02T16:15:24Z</time>
      </trkpt>
      <trkpt lat="43.74655" lon="3.587">
        <ele>81.37</ele>
        <time>2011-10-02T16:15:31Z</time>
      </trkpt>
      <trkpt lat="43.74658" lon="3.58695">
        <ele>80.41</ele>
        <time>2011-10-02T16:15:44Z</time>
      </trkpt>
      <trkpt lat="43.74668" lon="3.58666">
        <ele>79.45</ele>
        <time>2011-10-02T16:16:15Z</time>
      </trkpt>
      <trkpt lat="43.74683" lon="3.58603">
        <ele>78.97</ele>
        <time>2011-10-02T16:16:21Z</time>
      </trkpt>
      <trkpt lat="43.74719" lon="3.58479">
        <ele>78</ele>
        <time>2011-10-02T16:16:27Z</time>
      </trkpt>
      <trkpt lat="43.7477" lon="3.58319">
        <ele>77.52</ele>
        <time>2011-10-02T16:16:34Z</time>
      </trkpt>
      <trkpt lat="43.74796" lon="3.58241">
        <ele>77.52</ele>
        <time>2011-10-02T16:16:38Z</time>
      </trkpt>
      <trkpt lat="43.74804" lon="3.58225">
        <ele>77.52</ele>
        <time>2011-10-02T16:16:39Z</time>
      </trkpt>
      <trkpt lat="43.74813" lon="3.5821">
        <ele>78</ele>
        <time>2011-10-02T16:16:40Z</time>
      </trkpt>
      <trkpt lat="43.74831" lon="3.58184">
        <ele>78</ele>
        <time>2011-10-02T16:16:42Z</time>
      </trkpt>
      <trkpt lat="43.7484" lon="3.58174">
        <ele>78</ele>
        <time>2011-10-02T16:16:43Z</time>
      </trkpt>
      <trkpt lat="43.74859" lon="3.58154">
        <ele>78</ele>
        <time>2011-10-02T16:16:45Z</time>
      </trkpt>
      <trkpt lat="43.74866" lon="3.58141">
        <ele>78</ele>
        <time>2011-10-02T16:16:46Z</time>
      </trkpt>
      <trkpt lat="43.74871" lon="3.58125">
        <ele>77.52</ele>
        <time>2011-10-02T16:16:47Z</time>
      </trkpt>
      <trkpt lat="43.74916" lon="3.57996">
        <ele>77.52</ele>
        <time>2011-10-02T16:16:53Z</time>
      </trkpt>
      <trkpt lat="43.74954" lon="3.57846">
        <ele>78</ele>
        <time>2011-10-02T16:17:00Z</time>
      </trkpt>
      <trkpt lat="43.74958" lon="3.57813">
        <ele>78</ele>
        <time>2011-10-02T16:17:02Z</time>
      </trkpt>
      <trkpt lat="43.74957" lon="3.57797">
        <ele>78</ele>
        <time>2011-10-02T16:17:03Z</time>
      </trkpt>
      <trkpt lat="43.74955" lon="3.5778">
        <ele>77.52</ele>
        <time>2011-10-02T16:17:04Z</time>
      </trkpt>
      <trkpt lat="43.74924" lon="3.57645">
        <ele>77.04</ele>
        <time>2011-10-02T16:17:11Z</time>
      </trkpt>
      <trkpt lat="43.74916" lon="3.57628">
        <ele>77.04</ele>
        <time>2011-10-02T16:17:12Z</time>
      </trkpt>
      <trkpt lat="43.74906" lon="3.57611">
        <ele>77.52</ele>
        <time>2011-10-02T16:17:13Z</time>
      </trkpt>
      <trkpt lat="43.748" lon="3.57479">
        <ele>78.97</ele>
        <time>2011-10-02T16:17:22Z</time>
      </trkpt>
      <trkpt lat="43.74787" lon="3.57465">
        <ele>78.97</ele>
        <time>2011-10-02T16:17:23Z</time>
      </trkpt>
      <trkpt lat="43.74775" lon="3.57448">
        <ele>79.45</ele>
        <time>2011-10-02T16:17:24Z</time>
      </trkpt>
      <trkpt lat="43.74695" lon="3.57337">
        <ele>79.45</ele>
        <time>2011-10-02T16:17:31Z</time>
      </trkpt>
      <trkpt lat="43.74687" lon="3.57321">
        <ele>79.45</ele>
        <time>2011-10-02T16:17:32Z</time>
      </trkpt>
      <trkpt lat="43.74681" lon="3.57304">
        <ele>79.45</ele>
        <time>2011-10-02T16:17:33Z</time>
      </trkpt>
      <trkpt lat="43.74674" lon="3.57285">
        <ele>78.97</ele>
        <time>2011-10-02T16:17:34Z</time>
      </trkpt>
      <trkpt lat="43.74668" lon="3.57264">
        <ele>78.48</ele>
        <time>2011-10-02T16:17:35Z</time>
      </trkpt>
      <trkpt lat="43.74623" lon="3.57107">
        <ele>76.08</ele>
        <time>2011-10-02T16:17:42Z</time>
      </trkpt>
      <trkpt lat="43.74614" lon="3.57087">
        <ele>75.6</ele>
        <time>2011-10-02T16:17:43Z</time>
      </trkpt>
      <trkpt lat="43.74528" lon="3.56904">
        <ele>75.12</ele>
        <time>2011-10-02T16:17:52Z</time>
      </trkpt>
      <trkpt lat="43.74436" lon="3.5675">
        <ele>75.12</ele>
        <time>2011-10-02T16:18:00Z</time>
      </trkpt>
      <trkpt lat="43.74397" lon="3.56696">
        <ele>75.12</ele>
        <time>2011-10-02T16:18:04Z</time>
      </trkpt>
      <trkpt lat="43.74391" lon="3.56681">
        <ele>75.12</ele>
        <time>2011-10-02T16:18:05Z</time>
      </trkpt>
      <trkpt lat="43.74347" lon="3.56554">
        <ele>76.08</ele>
        <time>2011-10-02T16:18:14Z</time>
      </trkpt>
      <trkpt lat="43.74345" lon="3.56542">
        <ele>76.08</ele>
        <time>2011-10-02T16:18:15Z</time>
      </trkpt>
      <trkpt lat="43.74346" lon="3.5653">
        <ele>76.08</ele>
        <time>2011-10-02T16:18:16Z</time>
      </trkpt>
      <trkpt lat="43.74347" lon="3.5652">
        <ele>76.08</ele>
        <time>2011-10-02T16:18:17Z</time>
      </trkpt>
      <trkpt lat="43.74351" lon="3.56511">
        <ele>76.08</ele>
        <time>2011-10-02T16:18:18Z</time>
      </trkpt>
      <trkpt lat="43.74356" lon="3.56504">
        <ele>76.08</ele>
        <time>2011-10-02T16:18:19Z</time>
      </trkpt>
      <trkpt lat="43.74364" lon="3.56498">
        <ele>76.08</ele>
        <time>2011-10-02T16:18:20Z</time>
      </trkpt>
      <trkpt lat="43.74374" lon="3.56491">
        <ele>76.56</ele>
        <time>2011-10-02T16:18:21Z</time>
      </trkpt>
      <trkpt lat="43.74394" lon="3.56477">
        <ele>76.56</ele>
        <time>2011-10-02T16:18:23Z</time>
      </trkpt>
      <trkpt lat="43.74402" lon="3.56468">
        <ele>76.56</ele>
        <time>2011-10-02T16:18:24Z</time>
      </trkpt>
      <trkpt lat="43.7441" lon="3.56458">
        <ele>76.56</ele>
        <time>2011-10-02T16:18:25Z</time>
      </trkpt>
      <trkpt lat="43.74416" lon="3.56446">
        <ele>76.08</ele>
        <time>2011-10-02T16:18:26Z</time>
      </trkpt>
      <trkpt lat="43.74421" lon="3.56433">
        <ele>76.08</ele>
        <time>2011-10-02T16:18:27Z</time>
      </trkpt>
      <trkpt lat="43.74424" lon="3.56418">
        <ele>75.6</ele>
        <time>2011-10-02T16:18:28Z</time>
      </trkpt>
      <trkpt lat="43.74426" lon="3.56401">
        <ele>75.6</ele>
        <time>2011-10-02T16:18:29Z</time>
      </trkpt>
      <trkpt lat="43.74428" lon="3.56383">
        <ele>75.6</ele>
        <time>2011-10-02T16:18:30Z</time>
      </trkpt>
      <trkpt lat="43.7443" lon="3.5621">
        <ele>74.16</ele>
        <time>2011-10-02T16:18:40Z</time>
      </trkpt>
      <trkpt lat="43.74427" lon="3.56194">
        <ele>74.16</ele>
        <time>2011-10-02T16:18:41Z</time>
      </trkpt>
      <trkpt lat="43.74423" lon="3.56177">
        <ele>74.16</ele>
        <time>2011-10-02T16:18:42Z</time>
      </trkpt>
      <trkpt lat="43.74418" lon="3.56161">
        <ele>74.16</ele>
        <time>2011-10-02T16:18:43Z</time>
      </trkpt>
      <trkpt lat="43.74345" lon="3.56029">
        <ele>75.12</ele>
        <time>2011-10-02T16:18:51Z</time>
      </trkpt>
      <trkpt lat="43.74248" lon="3.55926">
        <ele>76.56</ele>
        <time>2011-10-02T16:18:58Z</time>
      </trkpt>
      <trkpt lat="43.74219" lon="3.55909">
        <ele>76.56</ele>
        <time>2011-10-02T16:19:00Z</time>
      </trkpt>
      <trkpt lat="43.74202" lon="3.55904">
        <ele>76.56</ele>
        <time>2011-10-02T16:19:01Z</time>
      </trkpt>
      <trkpt lat="43.74184" lon="3.55901">
        <ele>76.56</ele>
        <time>2011-10-02T16:19:02Z</time>
      </trkpt>
      <trkpt lat="43.74165" lon="3.55901">
        <ele>76.56</ele>
        <time>2011-10-02T16:19:03Z</time>
      </trkpt>
      <trkpt lat="43.74145" lon="3.55902">
        <ele>76.56</ele>
        <time>2011-10-02T16:19:04Z</time>
      </trkpt>
      <trkpt lat="43.74036" lon="3.5591">
        <ele>74.64</ele>
        <time>2011-10-02T16:19:10Z</time>
      </trkpt>
      <trkpt lat="43.74023" lon="3.55908">
        <ele>74.64</ele>
        <time>2011-10-02T16:19:11Z</time>
      </trkpt>
      <trkpt lat="43.74011" lon="3.55903">
        <ele>74.64</ele>
        <time>2011-10-02T16:19:12Z</time>
      </trkpt>
      <trkpt lat="43.73998" lon="3.55894">
        <ele>74.64</ele>
        <time>2011-10-02T16:19:13Z</time>
      </trkpt>
      <trkpt lat="43.73983" lon="3.55883">
        <ele>74.64</ele>
        <time>2011-10-02T16:19:14Z</time>
      </trkpt>
      <trkpt lat="43.73881" lon="3.55791">
        <ele>75.6</ele>
        <time>2011-10-02T16:19:20Z</time>
      </trkpt>
      <trkpt lat="43.73835" lon="3.55748">
        <ele>75.12</ele>
        <time>2011-10-02T16:19:23Z</time>
      </trkpt>
      <trkpt lat="43.73818" lon="3.55738">
        <ele>74.64</ele>
        <time>2011-10-02T16:19:24Z</time>
      </trkpt>
      <trkpt lat="43.73666" lon="3.55657">
        <ele>74.16</ele>
        <time>2011-10-02T16:19:32Z</time>
      </trkpt>
      <trkpt lat="43.73568" lon="3.55582">
        <ele>75.6</ele>
        <time>2011-10-02T16:19:39Z</time>
      </trkpt>
      <trkpt lat="43.73496" lon="3.55509">
        <ele>76.08</ele>
        <time>2011-10-02T16:19:47Z</time>
      </trkpt>
      <trkpt lat="43.73405" lon="3.55442">
        <ele>78</ele>
        <time>2011-10-02T16:19:59Z</time>
      </trkpt>
      <trkpt lat="43.73339" lon="3.55396">
        <ele>79.45</ele>
        <time>2011-10-02T16:20:11Z</time>
      </trkpt>
      <trkpt lat="43.73298" lon="3.55376">
        <ele>80.89</ele>
        <time>2011-10-02T16:20:21Z</time>
      </trkpt>
      <trkpt lat="43.73288" lon="3.55358">
        <ele>81.85</ele>
        <time>2011-10-02T16:20:29Z</time>
      </trkpt>
      <trkpt lat="43.73289" lon="3.55359">
        <ele>83.29</ele>
        <time>2011-10-02T16:20:46Z</time>
      </trkpt>
      <trkpt lat="43.73291" lon="3.55368">
        <ele>93.87</ele>
        <time>2011-10-02T16:22:41Z</time>
      </trkpt>
      <trkpt lat="43.73292" lon="3.55361">
        <ele>88.1</ele>
        <time>2011-10-02T16:25:09Z</time>
      </trkpt>
      <trkpt lat="43.73292" lon="3.5538">
        <ele>102.04</ele>
        <time>2011-10-02T16:25:45Z</time>
      </trkpt>
      <trkpt lat="43.7329" lon="3.55379">
        <ele>102.52</ele>
        <time>2011-10-02T16:26:35Z</time>
      </trkpt>
      <trkpt lat="43.7329" lon="3.55385">
        <ele>106.36</ele>
        <time>2011-10-02T16:27:55Z</time>
      </trkpt>
      <trkpt lat="43.73291" lon="3.55377">
        <ele>101.56</ele>
        <time>2011-10-02T16:28:30Z</time>
      </trkpt>
      <trkpt lat="43.73293" lon="3.55375">
        <ele>102.04</ele>
        <time>2011-10-02T16:28:59Z</time>
      </trkpt>
      <trkpt lat="43.73293" lon="3.55384">
        <ele>110.69</ele>
        <time>2011-10-02T16:29:26Z</time>
      </trkpt>
      <trkpt lat="43.73292" lon="3.55357">
        <ele>84.73</ele>
        <time>2011-10-02T16:32:04Z</time>
      </trkpt>
      <trkpt lat="43.73293" lon="3.5536">
        <ele>85.69</ele>
        <time>2011-10-02T16:33:11Z</time>
      </trkpt>
      <trkpt lat="43.73293" lon="3.5536">
        <ele>85.21</ele>
        <time>2011-10-02T16:33:15Z</time>
      </trkpt>
      <trkpt lat="43.73299" lon="3.55344">
        <ele>85.21</ele>
        <time>2011-10-02T16:33:20Z</time>
      </trkpt>
      <trkpt lat="43.733" lon="3.55338">
        <ele>85.21</ele>
        <time>2011-10-02T16:33:21Z</time>
      </trkpt>
      <trkpt lat="43.73303" lon="3.55331">
        <ele>85.21</ele>
        <time>2011-10-02T16:33:22Z</time>
      </trkpt>
      <trkpt lat="43.73307" lon="3.55322">
        <ele>85.69</ele>
        <time>2011-10-02T16:33:23Z</time>
      </trkpt>
      <trkpt lat="43.73312" lon="3.55315">
        <ele>85.69</ele>
        <time>2011-10-02T16:33:24Z</time>
      </trkpt>
      <trkpt lat="43.73317" lon="3.55308">
        <ele>85.69</ele>
        <time>2011-10-02T16:33:25Z</time>
      </trkpt>
      <trkpt lat="43.73321" lon="3.553">
        <ele>86.18</ele>
        <time>2011-10-02T16:33:26Z</time>
      </trkpt>
      <trkpt lat="43.73325" lon="3.55291">
        <ele>86.18</ele>
        <time>2011-10-02T16:33:27Z</time>
      </trkpt>
      <trkpt lat="43.73349" lon="3.55223">
        <ele>88.58</ele>
        <time>2011-10-02T16:33:36Z</time>
      </trkpt>
      <trkpt lat="43.7335" lon="3.55216">
        <ele>88.58</ele>
        <time>2011-10-02T16:33:37Z</time>
      </trkpt>
      <trkpt lat="43.73351" lon="3.55208">
        <ele>89.06</ele>
        <time>2011-10-02T16:33:38Z</time>
      </trkpt>
      <trkpt lat="43.7335" lon="3.552">
        <ele>89.06</ele>
        <time>2011-10-02T16:33:39Z</time>
      </trkpt>
      <trkpt lat="43.73348" lon="3.55192">
        <ele>89.54</ele>
        <time>2011-10-02T16:33:40Z</time>
      </trkpt>
      <trkpt lat="43.73346" lon="3.55184">
        <ele>89.54</ele>
        <time>2011-10-02T16:33:41Z</time>
      </trkpt>
      <trkpt lat="43.73343" lon="3.55176">
        <ele>90.02</ele>
        <time>2011-10-02T16:33:42Z</time>
      </trkpt>
      <trkpt lat="43.7334" lon="3.55168">
        <ele>90.02</ele>
        <time>2011-10-02T16:33:43Z</time>
      </trkpt>
      <trkpt lat="43.73328" lon="3.55134">
        <ele>90.98</ele>
        <time>2011-10-02T16:33:47Z</time>
      </trkpt>
      <trkpt lat="43.73326" lon="3.55125">
        <ele>90.98</ele>
        <time>2011-10-02T16:33:48Z</time>
      </trkpt>
      <trkpt lat="43.73325" lon="3.55117">
        <ele>91.46</ele>
        <time>2011-10-02T16:33:49Z</time>
      </trkpt>
      <trkpt lat="43.73325" lon="3.55107">
        <ele>91.46</ele>
        <time>2011-10-02T16:33:50Z</time>
      </trkpt>
      <trkpt lat="43.73324" lon="3.55098">
        <ele>91.94</ele>
        <time>2011-10-02T16:33:51Z</time>
      </trkpt>
      <trkpt lat="43.7332" lon="3.55013">
        <ele>95.79</ele>
        <time>2011-10-02T16:34:01Z</time>
      </trkpt>
      <trkpt lat="43.73317" lon="3.55006">
        <ele>96.27</ele>
        <time>2011-10-02T16:34:02Z</time>
      </trkpt>
      <trkpt lat="43.73315" lon="3.54999">
        <ele>96.75</ele>
        <time>2011-10-02T16:34:03Z</time>
      </trkpt>
      <trkpt lat="43.73311" lon="3.54993">
        <ele>97.23</ele>
        <time>2011-10-02T16:34:04Z</time>
      </trkpt>
      <trkpt lat="43.73307" lon="3.54986">
        <ele>97.71</ele>
        <time>2011-10-02T16:34:05Z</time>
      </trkpt>
      <trkpt lat="43.73297" lon="3.54964">
        <ele>98.19</ele>
        <time>2011-10-02T16:34:08Z</time>
      </trkpt>
      <trkpt lat="43.73295" lon="3.54956">
        <ele>98.67</ele>
        <time>2011-10-02T16:34:09Z</time>
      </trkpt>
      <trkpt lat="43.73295" lon="3.54947">
        <ele>98.67</ele>
        <time>2011-10-02T16:34:10Z</time>
      </trkpt>
      <trkpt lat="43.73297" lon="3.54938">
        <ele>99.15</ele>
        <time>2011-10-02T16:34:11Z</time>
      </trkpt>
      <trkpt lat="43.73299" lon="3.54928">
        <ele>99.15</ele>
        <time>2011-10-02T16:34:12Z</time>
      </trkpt>
      <trkpt lat="43.73317" lon="3.54854">
        <ele>100.6</ele>
        <time>2011-10-02T16:34:19Z</time>
      </trkpt>
      <trkpt lat="43.73321" lon="3.54845">
        <ele>101.08</ele>
        <time>2011-10-02T16:34:20Z</time>
      </trkpt>
      <trkpt lat="43.73325" lon="3.54838">
        <ele>101.56</ele>
        <time>2011-10-02T16:34:21Z</time>
      </trkpt>
      <trkpt lat="43.73331" lon="3.54831">
        <ele>101.56</ele>
        <time>2011-10-02T16:34:22Z</time>
      </trkpt>
      <trkpt lat="43.73336" lon="3.54827">
        <ele>101.56</ele>
        <time>2011-10-02T16:34:23Z</time>
      </trkpt>
      <trkpt lat="43.73342" lon="3.54824">
        <ele>102.04</ele>
        <time>2011-10-02T16:34:24Z</time>
      </trkpt>
      <trkpt lat="43.73348" lon="3.54823">
        <ele>102.52</ele>
        <time>2011-10-02T16:34:25Z</time>
      </trkpt>
      <trkpt lat="43.73353" lon="3.54823">
        <ele>102.52</ele>
        <time>2011-10-02T16:34:26Z</time>
      </trkpt>
      <trkpt lat="43.73358" lon="3.54826">
        <ele>102.52</ele>
        <time>2011-10-02T16:34:27Z</time>
      </trkpt>
      <trkpt lat="43.73362" lon="3.54829">
        <ele>103</ele>
        <time>2011-10-02T16:34:28Z</time>
      </trkpt>
      <trkpt lat="43.73365" lon="3.54832">
        <ele>103</ele>
        <time>2011-10-02T16:34:29Z</time>
      </trkpt>
      <trkpt lat="43.73368" lon="3.54833">
        <ele>102.52</ele>
        <time>2011-10-02T16:34:30Z</time>
      </trkpt>
      <trkpt lat="43.73371" lon="3.54833">
        <ele>103</ele>
        <time>2011-10-02T16:34:31Z</time>
      </trkpt>
      <trkpt lat="43.73373" lon="3.54831">
        <ele>103</ele>
        <time>2011-10-02T16:34:32Z</time>
      </trkpt>
      <trkpt lat="43.73378" lon="3.54823">
        <ele>102.52</ele>
        <time>2011-10-02T16:34:35Z</time>
      </trkpt>
      <trkpt lat="43.73385" lon="3.5481">
        <ele>101.56</ele>
        <time>2011-10-02T16:34:41Z</time>
      </trkpt>
      <trkpt lat="43.73394" lon="3.54817">
        <ele>101.56</ele>
        <time>2011-10-02T16:34:52Z</time>
      </trkpt>
      <trkpt lat="43.73395" lon="3.54818">
        <ele>102.04</ele>
        <time>2011-10-02T16:34:56Z</time>
      </trkpt>
      <trkpt lat="43.73403" lon="3.54819">
        <ele>103</ele>
        <time>2011-10-02T16:35:00Z</time>
      </trkpt>
      <trkpt lat="43.73405" lon="3.54816">
        <ele>104.44</ele>
        <time>2011-10-02T16:35:13Z</time>
      </trkpt>
      <trkpt lat="43.7341" lon="3.54813">
        <ele>104.92</ele>
        <time>2011-10-02T16:35:18Z</time>
      </trkpt>
      <trkpt lat="43.73413" lon="3.548">
        <ele>104.92</ele>
        <time>2011-10-02T16:35:22Z</time>
      </trkpt>
      <trkpt lat="43.73407" lon="3.54784">
        <ele>104.44</ele>
        <time>2011-10-02T16:35:32Z</time>
      </trkpt>
      <trkpt lat="43.73405" lon="3.54785">
        <ele>106.36</ele>
        <time>2011-10-02T16:35:37Z</time>
      </trkpt>
      <trkpt lat="43.73397" lon="3.54788">
        <ele>107.32</ele>
        <time>2011-10-02T16:35:41Z</time>
      </trkpt>
      <trkpt lat="43.73384" lon="3.54792">
        <ele>107.81</ele>
        <time>2011-10-02T16:35:56Z</time>
      </trkpt>
      <trkpt lat="43.73383" lon="3.54796">
        <ele>103.96</ele>
        <time>2011-10-02T16:36:09Z</time>
      </trkpt>
      <trkpt lat="43.73384" lon="3.54803">
        <ele>101.56</ele>
        <time>2011-10-02T16:36:21Z</time>
      </trkpt>
      <trkpt lat="43.73382" lon="3.54809">
        <ele>101.08</ele>
        <time>2011-10-02T16:36:25Z</time>
      </trkpt>
      <trkpt lat="43.7337" lon="3.5483">
        <ele>102.52</ele>
        <time>2011-10-02T16:36:32Z</time>
      </trkpt>
      <trkpt lat="43.73357" lon="3.54827">
        <ele>103</ele>
        <time>2011-10-02T16:36:37Z</time>
      </trkpt>
      <trkpt lat="43.73353" lon="3.54824">
        <ele>103</ele>
        <time>2011-10-02T16:36:38Z</time>
      </trkpt>
      <trkpt lat="43.73348" lon="3.54822">
        <ele>102.52</ele>
        <time>2011-10-02T16:36:39Z</time>
      </trkpt>
      <trkpt lat="43.73342" lon="3.54822">
        <ele>102.52</ele>
        <time>2011-10-02T16:36:40Z</time>
      </trkpt>
      <trkpt lat="43.73336" lon="3.54824">
        <ele>103</ele>
        <time>2011-10-02T16:36:41Z</time>
      </trkpt>
      <trkpt lat="43.7333" lon="3.54828">
        <ele>103</ele>
        <time>2011-10-02T16:36:42Z</time>
      </trkpt>
      <trkpt lat="43.73324" lon="3.54834">
        <ele>102.52</ele>
        <time>2011-10-02T16:36:43Z</time>
      </trkpt>
      <trkpt lat="43.73319" lon="3.5484">
        <ele>102.52</ele>
        <time>2011-10-02T16:36:44Z</time>
      </trkpt>
      <trkpt lat="43.73315" lon="3.54849">
        <ele>102.04</ele>
        <time>2011-10-02T16:36:45Z</time>
      </trkpt>
      <trkpt lat="43.73312" lon="3.54859">
        <ele>102.04</ele>
        <time>2011-10-02T16:36:46Z</time>
      </trkpt>
      <trkpt lat="43.73308" lon="3.5487">
        <ele>101.56</ele>
        <time>2011-10-02T16:36:47Z</time>
      </trkpt>
      <trkpt lat="43.73291" lon="3.5495">
        <ele>100.11</ele>
        <time>2011-10-02T16:36:54Z</time>
      </trkpt>
      <trkpt lat="43.7329" lon="3.54959">
        <ele>100.11</ele>
        <time>2011-10-02T16:36:55Z</time>
      </trkpt>
      <trkpt lat="43.73291" lon="3.54968">
        <ele>99.63</ele>
        <time>2011-10-02T16:36:56Z</time>
      </trkpt>
      <trkpt lat="43.73296" lon="3.54977">
        <ele>99.15</ele>
        <time>2011-10-02T16:36:57Z</time>
      </trkpt>
      <trkpt lat="43.73301" lon="3.54985">
        <ele>99.15</ele>
        <time>2011-10-02T16:36:58Z</time>
      </trkpt>
      <trkpt lat="43.73306" lon="3.54993">
        <ele>98.19</ele>
        <time>2011-10-02T16:36:59Z</time>
      </trkpt>
      <trkpt lat="43.73311" lon="3.55001">
        <ele>98.19</ele>
        <time>2011-10-02T16:37:00Z</time>
      </trkpt>
      <trkpt lat="43.73316" lon="3.5501">
        <ele>98.67</ele>
        <time>2011-10-02T16:37:01Z</time>
      </trkpt>
      <trkpt lat="43.7332" lon="3.5502">
        <ele>98.19</ele>
        <time>2011-10-02T16:37:02Z</time>
      </trkpt>
      <trkpt lat="43.73322" lon="3.55032">
        <ele>98.19</ele>
        <time>2011-10-02T16:37:03Z</time>
      </trkpt>
      <trkpt lat="43.73322" lon="3.55045">
        <ele>97.23</ele>
        <time>2011-10-02T16:37:04Z</time>
      </trkpt>
      <trkpt lat="43.73323" lon="3.55058">
        <ele>96.75</ele>
        <time>2011-10-02T16:37:05Z</time>
      </trkpt>
      <trkpt lat="43.73329" lon="3.55136">
        <ele>95.31</ele>
        <time>2011-10-02T16:37:11Z</time>
      </trkpt>
      <trkpt lat="43.73332" lon="3.55148">
        <ele>94.35</ele>
        <time>2011-10-02T16:37:12Z</time>
      </trkpt>
      <trkpt lat="43.73336" lon="3.55159">
        <ele>94.35</ele>
        <time>2011-10-02T16:37:13Z</time>
      </trkpt>
      <trkpt lat="43.7335" lon="3.55198">
        <ele>92.9</ele>
        <time>2011-10-02T16:37:17Z</time>
      </trkpt>
      <trkpt lat="43.73351" lon="3.55207">
        <ele>92.42</ele>
        <time>2011-10-02T16:37:18Z</time>
      </trkpt>
      <trkpt lat="43.7335" lon="3.55217">
        <ele>90.98</ele>
        <time>2011-10-02T16:37:19Z</time>
      </trkpt>
      <trkpt lat="43.73348" lon="3.55226">
        <ele>90.02</ele>
        <time>2011-10-02T16:37:20Z</time>
      </trkpt>
      <trkpt lat="43.73345" lon="3.55235">
        <ele>89.54</ele>
        <time>2011-10-02T16:37:21Z</time>
      </trkpt>
      <trkpt lat="43.73342" lon="3.55244">
        <ele>89.54</ele>
        <time>2011-10-02T16:37:22Z</time>
      </trkpt>
      <trkpt lat="43.7332" lon="3.55303">
        <ele>86.18</ele>
        <time>2011-10-02T16:37:29Z</time>
      </trkpt>
      <trkpt lat="43.73315" lon="3.55311">
        <ele>85.69</ele>
        <time>2011-10-02T16:37:30Z</time>
      </trkpt>
      <trkpt lat="43.73302" lon="3.55333">
        <ele>85.21</ele>
        <time>2011-10-02T16:37:33Z</time>
      </trkpt>
      <trkpt lat="43.73299" lon="3.55341">
        <ele>83.77</ele>
        <time>2011-10-02T16:37:34Z</time>
      </trkpt>
      <trkpt lat="43.73296" lon="3.55349">
        <ele>82.81</ele>
        <time>2011-10-02T16:37:35Z</time>
      </trkpt>
      <trkpt lat="43.73288" lon="3.55375">
        <ele>79.93</ele>
        <time>2011-10-02T16:37:41Z</time>
      </trkpt>
      <trkpt lat="43.73286" lon="3.55376">
        <ele>79.45</ele>
        <time>2011-10-02T16:37:42Z</time>
      </trkpt>
      <trkpt lat="43.73283" lon="3.55375">
        <ele>78.97</ele>
        <time>2011-10-02T16:37:43Z</time>
      </trkpt>
      <trkpt lat="43.73239" lon="3.55365">
        <ele>76.08</ele>
        <time>2011-10-02T16:37:50Z</time>
      </trkpt>
      <trkpt lat="43.73146" lon="3.5532">
        <ele>73.68</ele>
        <time>2011-10-02T16:37:59Z</time>
      </trkpt>
      <trkpt lat="43.73061" lon="3.55289">
        <ele>71.27</ele>
        <time>2011-10-02T16:38:07Z</time>
      </trkpt>
      <trkpt lat="43.72933" lon="3.55202">
        <ele>70.31</ele>
        <time>2011-10-02T16:38:17Z</time>
      </trkpt>
      <trkpt lat="43.72803" lon="3.55085">
        <ele>71.27</ele>
        <time>2011-10-02T16:38:26Z</time>
      </trkpt>
      <trkpt lat="43.72738" lon="3.55033">
        <ele>72.24</ele>
        <time>2011-10-02T16:38:31Z</time>
      </trkpt>
      <trkpt lat="43.72724" lon="3.55025">
        <ele>72.24</ele>
        <time>2011-10-02T16:38:32Z</time>
      </trkpt>
      <trkpt lat="43.72709" lon="3.55019">
        <ele>72.24</ele>
        <time>2011-10-02T16:38:33Z</time>
      </trkpt>
      <trkpt lat="43.72585" lon="3.55006">
        <ele>69.83</ele>
        <time>2011-10-02T16:38:40Z</time>
      </trkpt>
      <trkpt lat="43.72441" lon="3.55051">
        <ele>68.39</ele>
        <time>2011-10-02T16:38:48Z</time>
      </trkpt>
      <trkpt lat="43.72428" lon="3.55061">
        <ele>68.39</ele>
        <time>2011-10-02T16:38:49Z</time>
      </trkpt>
      <trkpt lat="43.72417" lon="3.55073">
        <ele>67.91</ele>
        <time>2011-10-02T16:38:50Z</time>
      </trkpt>
      <trkpt lat="43.72407" lon="3.55086">
        <ele>67.91</ele>
        <time>2011-10-02T16:38:51Z</time>
      </trkpt>
      <trkpt lat="43.72397" lon="3.551">
        <ele>67.91</ele>
        <time>2011-10-02T16:38:52Z</time>
      </trkpt>
      <trkpt lat="43.72389" lon="3.55116">
        <ele>67.91</ele>
        <time>2011-10-02T16:38:53Z</time>
      </trkpt>
      <trkpt lat="43.7238" lon="3.55132">
        <ele>68.39</ele>
        <time>2011-10-02T16:38:54Z</time>
      </trkpt>
      <trkpt lat="43.72311" lon="3.55251">
        <ele>69.83</ele>
        <time>2011-10-02T16:39:02Z</time>
      </trkpt>
      <trkpt lat="43.72289" lon="3.55273">
        <ele>70.31</ele>
        <time>2011-10-02T16:39:04Z</time>
      </trkpt>
      <trkpt lat="43.72276" lon="3.55281">
        <ele>70.31</ele>
        <time>2011-10-02T16:39:05Z</time>
      </trkpt>
      <trkpt lat="43.72264" lon="3.55288">
        <ele>70.79</ele>
        <time>2011-10-02T16:39:06Z</time>
      </trkpt>
      <trkpt lat="43.72252" lon="3.55293">
        <ele>70.31</ele>
        <time>2011-10-02T16:39:07Z</time>
      </trkpt>
      <trkpt lat="43.72241" lon="3.55296">
        <ele>70.79</ele>
        <time>2011-10-02T16:39:08Z</time>
      </trkpt>
      <trkpt lat="43.7223" lon="3.55298">
        <ele>70.79</ele>
        <time>2011-10-02T16:39:09Z</time>
      </trkpt>
      <trkpt lat="43.7222" lon="3.55299">
        <ele>71.27</ele>
        <time>2011-10-02T16:39:10Z</time>
      </trkpt>
      <trkpt lat="43.72163" lon="3.55312">
        <ele>73.2</ele>
        <time>2011-10-02T16:39:18Z</time>
      </trkpt>
      <trkpt lat="43.72094" lon="3.5534">
        <ele>71.76</ele>
        <time>2011-10-02T16:39:26Z</time>
      </trkpt>
      <trkpt lat="43.71995" lon="3.55351">
        <ele>70.79</ele>
        <time>2011-10-02T16:39:33Z</time>
      </trkpt>
      <trkpt lat="43.71823" lon="3.55338">
        <ele>68.39</ele>
        <time>2011-10-02T16:39:43Z</time>
      </trkpt>
      <trkpt lat="43.7174" lon="3.55301">
        <ele>68.87</ele>
        <time>2011-10-02T16:39:49Z</time>
      </trkpt>
      <trkpt lat="43.7164" lon="3.55249">
        <ele>69.35</ele>
        <time>2011-10-02T16:39:57Z</time>
      </trkpt>
      <trkpt lat="43.71464" lon="3.55246">
        <ele>66.95</ele>
        <time>2011-10-02T16:40:08Z</time>
      </trkpt>
      <trkpt lat="43.71334" lon="3.55265">
        <ele>65.99</ele>
        <time>2011-10-02T16:40:17Z</time>
      </trkpt>
      <trkpt lat="43.7132" lon="3.55263">
        <ele>66.47</ele>
        <time>2011-10-02T16:40:18Z</time>
      </trkpt>
      <trkpt lat="43.71307" lon="3.55257">
        <ele>66.95</ele>
        <time>2011-10-02T16:40:19Z</time>
      </trkpt>
      <trkpt lat="43.7127" lon="3.55241">
        <ele>68.39</ele>
        <time>2011-10-02T16:40:22Z</time>
      </trkpt>
      <trkpt lat="43.71257" lon="3.55238">
        <ele>68.39</ele>
        <time>2011-10-02T16:40:23Z</time>
      </trkpt>
      <trkpt lat="43.71147" lon="3.55235">
        <ele>66.95</ele>
        <time>2011-10-02T16:40:31Z</time>
      </trkpt>
      <trkpt lat="43.71133" lon="3.55239">
        <ele>66.47</ele>
        <time>2011-10-02T16:40:32Z</time>
      </trkpt>
      <trkpt lat="43.7112" lon="3.55245">
        <ele>66.47</ele>
        <time>2011-10-02T16:40:33Z</time>
      </trkpt>
      <trkpt lat="43.70998" lon="3.55306">
        <ele>66.47</ele>
        <time>2011-10-02T16:40:43Z</time>
      </trkpt>
      <trkpt lat="43.70987" lon="3.55316">
        <ele>66.47</ele>
        <time>2011-10-02T16:40:44Z</time>
      </trkpt>
      <trkpt lat="43.70977" lon="3.55327">
        <ele>65.99</ele>
        <time>2011-10-02T16:40:45Z</time>
      </trkpt>
      <trkpt lat="43.70969" lon="3.55342">
        <ele>65.99</ele>
        <time>2011-10-02T16:40:46Z</time>
      </trkpt>
      <trkpt lat="43.7096" lon="3.55359">
        <ele>65.51</ele>
        <time>2011-10-02T16:40:47Z</time>
      </trkpt>
      <trkpt lat="43.70952" lon="3.55377">
        <ele>65.03</ele>
        <time>2011-10-02T16:40:48Z</time>
      </trkpt>
      <trkpt lat="43.70896" lon="3.55526">
        <ele>63.58</ele>
        <time>2011-10-02T16:40:57Z</time>
      </trkpt>
      <trkpt lat="43.70839" lon="3.55628">
        <ele>65.99</ele>
        <time>2011-10-02T16:41:04Z</time>
      </trkpt>
      <trkpt lat="43.70797" lon="3.55674">
        <ele>67.91</ele>
        <time>2011-10-02T16:41:11Z</time>
      </trkpt>
      <trkpt lat="43.70777" lon="3.55691">
        <ele>67.91</ele>
        <time>2011-10-02T16:41:17Z</time>
      </trkpt>
      <trkpt lat="43.70772" lon="3.55692">
        <ele>68.39</ele>
        <time>2011-10-02T16:41:18Z</time>
      </trkpt>
      <trkpt lat="43.70766" lon="3.55691">
        <ele>68.87</ele>
        <time>2011-10-02T16:41:19Z</time>
      </trkpt>
      <trkpt lat="43.70759" lon="3.55687">
        <ele>68.87</ele>
        <time>2011-10-02T16:41:20Z</time>
      </trkpt>
      <trkpt lat="43.70752" lon="3.55679">
        <ele>68.87</ele>
        <time>2011-10-02T16:41:21Z</time>
      </trkpt>
      <trkpt lat="43.70744" lon="3.55667">
        <ele>68.87</ele>
        <time>2011-10-02T16:41:22Z</time>
      </trkpt>
      <trkpt lat="43.70736" lon="3.55649">
        <ele>68.87</ele>
        <time>2011-10-02T16:41:23Z</time>
      </trkpt>
      <trkpt lat="43.70727" lon="3.55632">
        <ele>69.35</ele>
        <time>2011-10-02T16:41:24Z</time>
      </trkpt>
      <trkpt lat="43.70715" lon="3.55617">
        <ele>69.35</ele>
        <time>2011-10-02T16:41:25Z</time>
      </trkpt>
      <trkpt lat="43.707" lon="3.55603">
        <ele>69.83</ele>
        <time>2011-10-02T16:41:26Z</time>
      </trkpt>
      <trkpt lat="43.70682" lon="3.5559">
        <ele>70.79</ele>
        <time>2011-10-02T16:41:27Z</time>
      </trkpt>
      <trkpt lat="43.70665" lon="3.55577">
        <ele>71.76</ele>
        <time>2011-10-02T16:41:28Z</time>
      </trkpt>
      <trkpt lat="43.70622" lon="3.55546">
        <ele>74.16</ele>
        <time>2011-10-02T16:41:31Z</time>
      </trkpt>
      <trkpt lat="43.7061" lon="3.55541">
        <ele>75.12</ele>
        <time>2011-10-02T16:41:32Z</time>
      </trkpt>
      <trkpt lat="43.70598" lon="3.5554">
        <ele>75.6</ele>
        <time>2011-10-02T16:41:33Z</time>
      </trkpt>
      <trkpt lat="43.70586" lon="3.55541">
        <ele>76.56</ele>
        <time>2011-10-02T16:41:34Z</time>
      </trkpt>
      <trkpt lat="43.70574" lon="3.55542">
        <ele>77.04</ele>
        <time>2011-10-02T16:41:35Z</time>
      </trkpt>
      <trkpt lat="43.70551" lon="3.55541">
        <ele>78.48</ele>
        <time>2011-10-02T16:41:37Z</time>
      </trkpt>
      <trkpt lat="43.70541" lon="3.55538">
        <ele>78.97</ele>
        <time>2011-10-02T16:41:38Z</time>
      </trkpt>
      <trkpt lat="43.70531" lon="3.55533">
        <ele>79.93</ele>
        <time>2011-10-02T16:41:39Z</time>
      </trkpt>
      <trkpt lat="43.70521" lon="3.55526">
        <ele>80.41</ele>
        <time>2011-10-02T16:41:40Z</time>
      </trkpt>
      <trkpt lat="43.70512" lon="3.55518">
        <ele>80.89</ele>
        <time>2011-10-02T16:41:41Z</time>
      </trkpt>
      <trkpt lat="43.70388" lon="3.55388">
        <ele>90.5</ele>
        <time>2011-10-02T16:41:56Z</time>
      </trkpt>
      <trkpt lat="43.7028" lon="3.553">
        <ele>93.39</ele>
        <time>2011-10-02T16:42:08Z</time>
      </trkpt>
      <trkpt lat="43.70238" lon="3.55269">
        <ele>95.31</ele>
        <time>2011-10-02T16:42:14Z</time>
      </trkpt>
      <trkpt lat="43.70235" lon="3.55264">
        <ele>95.79</ele>
        <time>2011-10-02T16:42:15Z</time>
      </trkpt>
      <trkpt lat="43.70233" lon="3.55259">
        <ele>95.31</ele>
        <time>2011-10-02T16:42:16Z</time>
      </trkpt>
      <trkpt lat="43.70232" lon="3.55256">
        <ele>95.79</ele>
        <time>2011-10-02T16:42:17Z</time>
      </trkpt>
      <trkpt lat="43.70231" lon="3.55253">
        <ele>95.79</ele>
        <time>2011-10-02T16:42:18Z</time>
      </trkpt>
      <trkpt lat="43.70223" lon="3.55207">
        <ele>97.23</ele>
        <time>2011-10-02T16:42:28Z</time>
      </trkpt>
      <trkpt lat="43.70194" lon="3.55128">
        <ele>99.63</ele>
        <time>2011-10-02T16:42:36Z</time>
      </trkpt>
      <trkpt lat="43.70152" lon="3.55019">
        <ele>102.52</ele>
        <time>2011-10-02T16:42:46Z</time>
      </trkpt>
      <trkpt lat="43.70149" lon="3.55006">
        <ele>103</ele>
        <time>2011-10-02T16:42:47Z</time>
      </trkpt>
      <trkpt lat="43.70131" lon="3.54903">
        <ele>105.88</ele>
        <time>2011-10-02T16:42:56Z</time>
      </trkpt>
      <trkpt lat="43.70128" lon="3.54897">
        <ele>106.36</ele>
        <time>2011-10-02T16:42:57Z</time>
      </trkpt>
      <trkpt lat="43.70122" lon="3.54892">
        <ele>106.84</ele>
        <time>2011-10-02T16:42:58Z</time>
      </trkpt>
      <trkpt lat="43.70114" lon="3.54888">
        <ele>107.32</ele>
        <time>2011-10-02T16:42:59Z</time>
      </trkpt>
      <trkpt lat="43.70104" lon="3.54884">
        <ele>106.84</ele>
        <time>2011-10-02T16:43:00Z</time>
      </trkpt>
      <trkpt lat="43.70093" lon="3.5488">
        <ele>106.84</ele>
        <time>2011-10-02T16:43:01Z</time>
      </trkpt>
      <trkpt lat="43.69938" lon="3.54818">
        <ele>105.4</ele>
        <time>2011-10-02T16:43:13Z</time>
      </trkpt>
      <trkpt lat="43.69769" lon="3.54749">
        <ele>104.92</ele>
        <time>2011-10-02T16:43:28Z</time>
      </trkpt>
      <trkpt lat="43.696" lon="3.5468">
        <ele>103</ele>
        <time>2011-10-02T16:43:42Z</time>
      </trkpt>
      <trkpt lat="43.69566" lon="3.54666">
        <ele>102.52</ele>
        <time>2011-10-02T16:43:48Z</time>
      </trkpt>
      <trkpt lat="43.69554" lon="3.54662">
        <ele>102.52</ele>
        <time>2011-10-02T16:43:53Z</time>
      </trkpt>
      <trkpt lat="43.69483" lon="3.54632">
        <ele>102.52</ele>
        <time>2011-10-02T16:43:59Z</time>
      </trkpt>
      <trkpt lat="43.69251" lon="3.54539">
        <ele>103</ele>
        <time>2011-10-02T16:44:13Z</time>
      </trkpt>
      <trkpt lat="43.69191" lon="3.54509">
        <ele>104.44</ele>
        <time>2011-10-02T16:44:17Z</time>
      </trkpt>
      <trkpt lat="43.69178" lon="3.54498">
        <ele>104.92</ele>
        <time>2011-10-02T16:44:18Z</time>
      </trkpt>
      <trkpt lat="43.69165" lon="3.54486">
        <ele>105.88</ele>
        <time>2011-10-02T16:44:19Z</time>
      </trkpt>
      <trkpt lat="43.69015" lon="3.54324">
        <ele>108.77</ele>
        <time>2011-10-02T16:44:30Z</time>
      </trkpt>
      <trkpt lat="43.68885" lon="3.54182">
        <ele>97.71</ele>
        <time>2011-10-02T16:44:38Z</time>
      </trkpt>
      <trkpt lat="43.688" lon="3.54089">
        <ele>94.83</ele>
        <time>2011-10-02T16:44:44Z</time>
      </trkpt>
      <trkpt lat="43.68785" lon="3.54079">
        <ele>94.83</ele>
        <time>2011-10-02T16:44:45Z</time>
      </trkpt>
      <trkpt lat="43.68769" lon="3.54071">
        <ele>95.31</ele>
        <time>2011-10-02T16:44:46Z</time>
      </trkpt>
      <trkpt lat="43.68752" lon="3.54067">
        <ele>95.79</ele>
        <time>2011-10-02T16:44:47Z</time>
      </trkpt>
      <trkpt lat="43.68733" lon="3.54064">
        <ele>96.27</ele>
        <time>2011-10-02T16:44:48Z</time>
      </trkpt>
      <trkpt lat="43.68714" lon="3.54064">
        <ele>97.23</ele>
        <time>2011-10-02T16:44:49Z</time>
      </trkpt>
      <trkpt lat="43.6854" lon="3.5405">
        <ele>96.75</ele>
        <time>2011-10-02T16:44:58Z</time>
      </trkpt>
      <trkpt lat="43.68524" lon="3.54042">
        <ele>95.79</ele>
        <time>2011-10-02T16:44:59Z</time>
      </trkpt>
      <trkpt lat="43.68507" lon="3.54031">
        <ele>94.83</ele>
        <time>2011-10-02T16:45:00Z</time>
      </trkpt>
      <trkpt lat="43.6836" lon="3.53927">
        <ele>88.1</ele>
        <time>2011-10-02T16:45:08Z</time>
      </trkpt>
      <trkpt lat="43.68335" lon="3.53902">
        <ele>86.66</ele>
        <time>2011-10-02T16:45:10Z</time>
      </trkpt>
      <trkpt lat="43.68325" lon="3.53886">
        <ele>85.69</ele>
        <time>2011-10-02T16:45:11Z</time>
      </trkpt>
      <trkpt lat="43.68315" lon="3.53868">
        <ele>85.21</ele>
        <time>2011-10-02T16:45:12Z</time>
      </trkpt>
      <trkpt lat="43.68306" lon="3.53846">
        <ele>84.73</ele>
        <time>2011-10-02T16:45:13Z</time>
      </trkpt>
      <trkpt lat="43.68297" lon="3.53823">
        <ele>83.77</ele>
        <time>2011-10-02T16:45:14Z</time>
      </trkpt>
      <trkpt lat="43.68243" lon="3.53672">
        <ele>80.89</ele>
        <time>2011-10-02T16:45:21Z</time>
      </trkpt>
      <trkpt lat="43.68238" lon="3.53663">
        <ele>80.89</ele>
        <time>2011-10-02T16:45:22Z</time>
      </trkpt>
      <trkpt lat="43.68232" lon="3.53655">
        <ele>80.89</ele>
        <time>2011-10-02T16:45:23Z</time>
      </trkpt>
      <trkpt lat="43.68224" lon="3.53649">
        <ele>80.89</ele>
        <time>2011-10-02T16:45:24Z</time>
      </trkpt>
      <trkpt lat="43.68216" lon="3.53646">
        <ele>80.89</ele>
        <time>2011-10-02T16:45:25Z</time>
      </trkpt>
      <trkpt lat="43.68207" lon="3.53646">
        <ele>81.37</ele>
        <time>2011-10-02T16:45:26Z</time>
      </trkpt>
      <trkpt lat="43.68196" lon="3.53649">
        <ele>81.37</ele>
        <time>2011-10-02T16:45:27Z</time>
      </trkpt>
      <trkpt lat="43.68184" lon="3.53653">
        <ele>81.85</ele>
        <time>2011-10-02T16:45:28Z</time>
      </trkpt>
      <trkpt lat="43.68171" lon="3.53658">
        <ele>81.85</ele>
        <time>2011-10-02T16:45:29Z</time>
      </trkpt>
      <trkpt lat="43.68131" lon="3.53667">
        <ele>82.33</ele>
        <time>2011-10-02T16:45:32Z</time>
      </trkpt>
      <trkpt lat="43.68118" lon="3.53667">
        <ele>82.33</ele>
        <time>2011-10-02T16:45:33Z</time>
      </trkpt>
      <trkpt lat="43.68104" lon="3.53663">
        <ele>82.33</ele>
        <time>2011-10-02T16:45:34Z</time>
      </trkpt>
      <trkpt lat="43.68091" lon="3.53657">
        <ele>82.81</ele>
        <time>2011-10-02T16:45:35Z</time>
      </trkpt>
      <trkpt lat="43.68078" lon="3.53648">
        <ele>82.81</ele>
        <time>2011-10-02T16:45:36Z</time>
      </trkpt>
      <trkpt lat="43.68066" lon="3.53636">
        <ele>82.81</ele>
        <time>2011-10-02T16:45:37Z</time>
      </trkpt>
      <trkpt lat="43.68054" lon="3.53623">
        <ele>82.81</ele>
        <time>2011-10-02T16:45:38Z</time>
      </trkpt>
      <trkpt lat="43.67936" lon="3.53493">
        <ele>86.18</ele>
        <time>2011-10-02T16:45:46Z</time>
      </trkpt>
      <trkpt lat="43.67784" lon="3.53324">
        <ele>91.46</ele>
        <time>2011-10-02T16:45:57Z</time>
      </trkpt>
      <trkpt lat="43.6772" lon="3.53206">
        <ele>92.9</ele>
        <time>2011-10-02T16:46:04Z</time>
      </trkpt>
      <trkpt lat="43.67625" lon="3.53006">
        <ele>96.27</ele>
        <time>2011-10-02T16:46:13Z</time>
      </trkpt>
      <trkpt lat="43.67583" lon="3.52878">
        <ele>98.19</ele>
        <time>2011-10-02T16:46:19Z</time>
      </trkpt>
      <trkpt lat="43.67516" lon="3.52603">
        <ele>99.15</ele>
        <time>2011-10-02T16:46:29Z</time>
      </trkpt>
      <trkpt lat="43.67468" lon="3.52446">
        <ele>100.6</ele>
        <time>2011-10-02T16:46:36Z</time>
      </trkpt>
      <trkpt lat="43.67436" lon="3.52364">
        <ele>102.04</ele>
        <time>2011-10-02T16:46:43Z</time>
      </trkpt>
      <trkpt lat="43.6743" lon="3.52348">
        <ele>102.52</ele>
        <time>2011-10-02T16:46:47Z</time>
      </trkpt>
      <trkpt lat="43.67427" lon="3.52344">
        <ele>102.52</ele>
        <time>2011-10-02T16:46:48Z</time>
      </trkpt>
      <trkpt lat="43.67421" lon="3.52335">
        <ele>102.52</ele>
        <time>2011-10-02T16:46:50Z</time>
      </trkpt>
      <trkpt lat="43.67416" lon="3.52331">
        <ele>102.52</ele>
        <time>2011-10-02T16:46:51Z</time>
      </trkpt>
      <trkpt lat="43.67411" lon="3.52326">
        <ele>102.04</ele>
        <time>2011-10-02T16:46:52Z</time>
      </trkpt>
      <trkpt lat="43.67386" lon="3.52308">
        <ele>100.6</ele>
        <time>2011-10-02T16:46:59Z</time>
      </trkpt>
      <trkpt lat="43.67363" lon="3.52291">
        <ele>98.67</ele>
        <time>2011-10-02T16:47:09Z</time>
      </trkpt>
      <trkpt lat="43.67346" lon="3.5228">
        <ele>97.23</ele>
        <time>2011-10-02T16:47:12Z</time>
      </trkpt>
      <trkpt lat="43.67341" lon="3.52279">
        <ele>96.75</ele>
        <time>2011-10-02T16:47:13Z</time>
      </trkpt>
      <trkpt lat="43.67335" lon="3.52281">
        <ele>96.75</ele>
        <time>2011-10-02T16:47:14Z</time>
      </trkpt>
      <trkpt lat="43.6733" lon="3.52286">
        <ele>96.27</ele>
        <time>2011-10-02T16:47:15Z</time>
      </trkpt>
      <trkpt lat="43.67326" lon="3.52294">
        <ele>95.31</ele>
        <time>2011-10-02T16:47:16Z</time>
      </trkpt>
      <trkpt lat="43.67322" lon="3.52305">
        <ele>94.83</ele>
        <time>2011-10-02T16:47:17Z</time>
      </trkpt>
      <trkpt lat="43.67319" lon="3.52317">
        <ele>93.87</ele>
        <time>2011-10-02T16:47:18Z</time>
      </trkpt>
      <trkpt lat="43.67316" lon="3.52328">
        <ele>92.9</ele>
        <time>2011-10-02T16:47:19Z</time>
      </trkpt>
      <trkpt lat="43.67312" lon="3.52337">
        <ele>92.42</ele>
        <time>2011-10-02T16:47:20Z</time>
      </trkpt>
      <trkpt lat="43.67308" lon="3.52344">
        <ele>91.94</ele>
        <time>2011-10-02T16:47:21Z</time>
      </trkpt>
      <trkpt lat="43.67305" lon="3.52348">
        <ele>91.46</ele>
        <time>2011-10-02T16:47:22Z</time>
      </trkpt>
      <trkpt lat="43.67303" lon="3.5235">
        <ele>91.46</ele>
        <time>2011-10-02T16:47:23Z</time>
      </trkpt>
      <trkpt lat="43.67299" lon="3.52356">
        <ele>90.98</ele>
        <time>2011-10-02T16:47:29Z</time>
      </trkpt>
      <trkpt lat="43.67295" lon="3.52362">
        <ele>90.5</ele>
        <time>2011-10-02T16:47:30Z</time>
      </trkpt>
      <trkpt lat="43.67281" lon="3.52385">
        <ele>89.54</ele>
        <time>2011-10-02T16:47:32Z</time>
      </trkpt>
      <trkpt lat="43.67271" lon="3.52397">
        <ele>88.58</ele>
        <time>2011-10-02T16:47:33Z</time>
      </trkpt>
      <trkpt lat="43.67259" lon="3.52407">
        <ele>87.62</ele>
        <time>2011-10-02T16:47:34Z</time>
      </trkpt>
      <trkpt lat="43.67245" lon="3.52413">
        <ele>86.18</ele>
        <time>2011-10-02T16:47:35Z</time>
      </trkpt>
      <trkpt lat="43.6723" lon="3.52416">
        <ele>85.21</ele>
        <time>2011-10-02T16:47:36Z</time>
      </trkpt>
      <trkpt lat="43.67214" lon="3.52414">
        <ele>84.73</ele>
        <time>2011-10-02T16:47:37Z</time>
      </trkpt>
      <trkpt lat="43.67198" lon="3.52411">
        <ele>83.77</ele>
        <time>2011-10-02T16:47:38Z</time>
      </trkpt>
      <trkpt lat="43.67184" lon="3.52407">
        <ele>83.29</ele>
        <time>2011-10-02T16:47:39Z</time>
      </trkpt>
      <trkpt lat="43.67171" lon="3.52402">
        <ele>82.81</ele>
        <time>2011-10-02T16:47:40Z</time>
      </trkpt>
      <trkpt lat="43.6716" lon="3.52396">
        <ele>82.33</ele>
        <time>2011-10-02T16:47:41Z</time>
      </trkpt>
      <trkpt lat="43.6715" lon="3.52386">
        <ele>81.37</ele>
        <time>2011-10-02T16:47:42Z</time>
      </trkpt>
      <trkpt lat="43.67142" lon="3.52374">
        <ele>80.41</ele>
        <time>2011-10-02T16:47:43Z</time>
      </trkpt>
      <trkpt lat="43.67134" lon="3.52361">
        <ele>79.93</ele>
        <time>2011-10-02T16:47:44Z</time>
      </trkpt>
      <trkpt lat="43.67117" lon="3.52336">
        <ele>78</ele>
        <time>2011-10-02T16:47:46Z</time>
      </trkpt>
      <trkpt lat="43.67106" lon="3.52326">
        <ele>76.56</ele>
        <time>2011-10-02T16:47:47Z</time>
      </trkpt>
      <trkpt lat="43.67094" lon="3.52319">
        <ele>75.6</ele>
        <time>2011-10-02T16:47:48Z</time>
      </trkpt>
      <trkpt lat="43.6708" lon="3.52316">
        <ele>74.64</ele>
        <time>2011-10-02T16:47:49Z</time>
      </trkpt>
      <trkpt lat="43.67066" lon="3.52315">
        <ele>73.2</ele>
        <time>2011-10-02T16:47:50Z</time>
      </trkpt>
      <trkpt lat="43.67051" lon="3.52314">
        <ele>71.76</ele>
        <time>2011-10-02T16:47:51Z</time>
      </trkpt>
      <trkpt lat="43.67003" lon="3.52309">
        <ele>67.91</ele>
        <time>2011-10-02T16:47:55Z</time>
      </trkpt>
      <trkpt lat="43.66994" lon="3.52303">
        <ele>66.95</ele>
        <time>2011-10-02T16:47:56Z</time>
      </trkpt>
      <trkpt lat="43.66986" lon="3.52295">
        <ele>66.47</ele>
        <time>2011-10-02T16:47:57Z</time>
      </trkpt>
      <trkpt lat="43.66979" lon="3.52284">
        <ele>66.47</ele>
        <time>2011-10-02T16:47:58Z</time>
      </trkpt>
      <trkpt lat="43.66972" lon="3.5227">
        <ele>66.47</ele>
        <time>2011-10-02T16:47:59Z</time>
      </trkpt>
      <trkpt lat="43.66958" lon="3.52246">
        <ele>66.47</ele>
        <time>2011-10-02T16:48:01Z</time>
      </trkpt>
      <trkpt lat="43.6695" lon="3.52237">
        <ele>66.95</ele>
        <time>2011-10-02T16:48:02Z</time>
      </trkpt>
      <trkpt lat="43.66941" lon="3.52231">
        <ele>66.95</ele>
        <time>2011-10-02T16:48:03Z</time>
      </trkpt>
      <trkpt lat="43.6693" lon="3.52227">
        <ele>67.91</ele>
        <time>2011-10-02T16:48:04Z</time>
      </trkpt>
      <trkpt lat="43.66918" lon="3.52226">
        <ele>68.39</ele>
        <time>2011-10-02T16:48:05Z</time>
      </trkpt>
      <trkpt lat="43.66906" lon="3.52228">
        <ele>68.87</ele>
        <time>2011-10-02T16:48:06Z</time>
      </trkpt>
      <trkpt lat="43.66893" lon="3.52232">
        <ele>69.35</ele>
        <time>2011-10-02T16:48:07Z</time>
      </trkpt>
      <trkpt lat="43.6688" lon="3.52238">
        <ele>70.31</ele>
        <time>2011-10-02T16:48:08Z</time>
      </trkpt>
      <trkpt lat="43.66866" lon="3.52246">
        <ele>71.27</ele>
        <time>2011-10-02T16:48:09Z</time>
      </trkpt>
      <trkpt lat="43.66853" lon="3.52255">
        <ele>72.24</ele>
        <time>2011-10-02T16:48:10Z</time>
      </trkpt>
      <trkpt lat="43.66754" lon="3.52322">
        <ele>80.41</ele>
        <time>2011-10-02T16:48:19Z</time>
      </trkpt>
      <trkpt lat="43.66743" lon="3.52325">
        <ele>80.89</ele>
        <time>2011-10-02T16:48:20Z</time>
      </trkpt>
      <trkpt lat="43.66733" lon="3.52325">
        <ele>81.37</ele>
        <time>2011-10-02T16:48:21Z</time>
      </trkpt>
      <trkpt lat="43.66722" lon="3.52323">
        <ele>81.37</ele>
        <time>2011-10-02T16:48:22Z</time>
      </trkpt>
      <trkpt lat="43.66711" lon="3.52318">
        <ele>81.85</ele>
        <time>2011-10-02T16:48:23Z</time>
      </trkpt>
      <trkpt lat="43.66701" lon="3.5231">
        <ele>81.85</ele>
        <time>2011-10-02T16:48:24Z</time>
      </trkpt>
      <trkpt lat="43.66691" lon="3.52299">
        <ele>82.33</ele>
        <time>2011-10-02T16:48:25Z</time>
      </trkpt>
      <trkpt lat="43.66682" lon="3.52287">
        <ele>82.33</ele>
        <time>2011-10-02T16:48:26Z</time>
      </trkpt>
      <trkpt lat="43.66671" lon="3.52273">
        <ele>82.33</ele>
        <time>2011-10-02T16:48:27Z</time>
      </trkpt>
      <trkpt lat="43.66604" lon="3.52179">
        <ele>82.33</ele>
        <time>2011-10-02T16:48:34Z</time>
      </trkpt>
      <trkpt lat="43.66524" lon="3.5207">
        <ele>86.66</ele>
        <time>2011-10-02T16:48:43Z</time>
      </trkpt>
      <trkpt lat="43.66453" lon="3.51936">
        <ele>87.14</ele>
        <time>2011-10-02T16:48:51Z</time>
      </trkpt>
      <trkpt lat="43.66337" lon="3.51715">
        <ele>85.69</ele>
        <time>2011-10-02T16:49:03Z</time>
      </trkpt>
      <trkpt lat="43.66264" lon="3.51596">
        <ele>86.66</ele>
        <time>2011-10-02T16:49:12Z</time>
      </trkpt>
      <trkpt lat="43.66258" lon="3.5159">
        <ele>86.66</ele>
        <time>2011-10-02T16:49:13Z</time>
      </trkpt>
      <trkpt lat="43.66252" lon="3.51586">
        <ele>86.66</ele>
        <time>2011-10-02T16:49:14Z</time>
      </trkpt>
      <trkpt lat="43.66245" lon="3.51587">
        <ele>86.18</ele>
        <time>2011-10-02T16:49:15Z</time>
      </trkpt>
      <trkpt lat="43.66236" lon="3.51597">
        <ele>85.69</ele>
        <time>2011-10-02T16:49:16Z</time>
      </trkpt>
      <trkpt lat="43.66228" lon="3.51611">
        <ele>85.21</ele>
        <time>2011-10-02T16:49:17Z</time>
      </trkpt>
      <trkpt lat="43.66218" lon="3.51625">
        <ele>84.73</ele>
        <time>2011-10-02T16:49:18Z</time>
      </trkpt>
      <trkpt lat="43.66207" lon="3.51642">
        <ele>83.77</ele>
        <time>2011-10-02T16:49:19Z</time>
      </trkpt>
      <trkpt lat="43.66138" lon="3.51741">
        <ele>81.37</ele>
        <time>2011-10-02T16:49:25Z</time>
      </trkpt>
      <trkpt lat="43.66125" lon="3.51753">
        <ele>81.37</ele>
        <time>2011-10-02T16:49:26Z</time>
      </trkpt>
      <trkpt lat="43.66111" lon="3.51762">
        <ele>80.89</ele>
        <time>2011-10-02T16:49:27Z</time>
      </trkpt>
      <trkpt lat="43.66096" lon="3.5177">
        <ele>80.41</ele>
        <time>2011-10-02T16:49:28Z</time>
      </trkpt>
      <trkpt lat="43.66079" lon="3.51775">
        <ele>80.41</ele>
        <time>2011-10-02T16:49:29Z</time>
      </trkpt>
      <trkpt lat="43.66061" lon="3.51778">
        <ele>80.41</ele>
        <time>2011-10-02T16:49:30Z</time>
      </trkpt>
      <trkpt lat="43.66044" lon="3.5178">
        <ele>79.93</ele>
        <time>2011-10-02T16:49:31Z</time>
      </trkpt>
      <trkpt lat="43.65853" lon="3.51779">
        <ele>73.2</ele>
        <time>2011-10-02T16:49:43Z</time>
      </trkpt>
      <trkpt lat="43.65837" lon="3.51773">
        <ele>72.72</ele>
        <time>2011-10-02T16:49:44Z</time>
      </trkpt>
      <trkpt lat="43.6582" lon="3.51765">
        <ele>72.24</ele>
        <time>2011-10-02T16:49:45Z</time>
      </trkpt>
      <trkpt lat="43.65705" lon="3.51699">
        <ele>71.27</ele>
        <time>2011-10-02T16:49:52Z</time>
      </trkpt>
      <trkpt lat="43.65688" lon="3.51694">
        <ele>70.79</ele>
        <time>2011-10-02T16:49:53Z</time>
      </trkpt>
      <trkpt lat="43.6567" lon="3.51692">
        <ele>70.79</ele>
        <time>2011-10-02T16:49:54Z</time>
      </trkpt>
      <trkpt lat="43.65653" lon="3.51694">
        <ele>70.79</ele>
        <time>2011-10-02T16:49:55Z</time>
      </trkpt>
      <trkpt lat="43.65635" lon="3.517">
        <ele>71.27</ele>
        <time>2011-10-02T16:49:56Z</time>
      </trkpt>
      <trkpt lat="43.65619" lon="3.5171">
        <ele>71.27</ele>
        <time>2011-10-02T16:49:57Z</time>
      </trkpt>
      <trkpt lat="43.65605" lon="3.51724">
        <ele>71.27</ele>
        <time>2011-10-02T16:49:58Z</time>
      </trkpt>
      <trkpt lat="43.65592" lon="3.51741">
        <ele>71.27</ele>
        <time>2011-10-02T16:49:59Z</time>
      </trkpt>
      <trkpt lat="43.65581" lon="3.51761">
        <ele>71.27</ele>
        <time>2011-10-02T16:50:00Z</time>
      </trkpt>
      <trkpt lat="43.65572" lon="3.51785">
        <ele>70.79</ele>
        <time>2011-10-02T16:50:01Z</time>
      </trkpt>
      <trkpt lat="43.65566" lon="3.5181">
        <ele>70.79</ele>
        <time>2011-10-02T16:50:02Z</time>
      </trkpt>
      <trkpt lat="43.65563" lon="3.51837">
        <ele>70.79</ele>
        <time>2011-10-02T16:50:03Z</time>
      </trkpt>
      <trkpt lat="43.65561" lon="3.51863">
        <ele>70.79</ele>
        <time>2011-10-02T16:50:04Z</time>
      </trkpt>
      <trkpt lat="43.65545" lon="3.51992">
        <ele>70.79</ele>
        <time>2011-10-02T16:50:10Z</time>
      </trkpt>
      <trkpt lat="43.65539" lon="3.52011">
        <ele>70.79</ele>
        <time>2011-10-02T16:50:11Z</time>
      </trkpt>
      <trkpt lat="43.65532" lon="3.52029">
        <ele>70.79</ele>
        <time>2011-10-02T16:50:12Z</time>
      </trkpt>
      <trkpt lat="43.65524" lon="3.52045">
        <ele>70.79</ele>
        <time>2011-10-02T16:50:13Z</time>
      </trkpt>
      <trkpt lat="43.65515" lon="3.52059">
        <ele>70.31</ele>
        <time>2011-10-02T16:50:14Z</time>
      </trkpt>
      <trkpt lat="43.65505" lon="3.5207">
        <ele>70.31</ele>
        <time>2011-10-02T16:50:15Z</time>
      </trkpt>
      <trkpt lat="43.65493" lon="3.5208">
        <ele>69.83</ele>
        <time>2011-10-02T16:50:16Z</time>
      </trkpt>
      <trkpt lat="43.6548" lon="3.52089">
        <ele>69.35</ele>
        <time>2011-10-02T16:50:17Z</time>
      </trkpt>
      <trkpt lat="43.65465" lon="3.52095">
        <ele>69.35</ele>
        <time>2011-10-02T16:50:18Z</time>
      </trkpt>
      <trkpt lat="43.65449" lon="3.52099">
        <ele>68.87</ele>
        <time>2011-10-02T16:50:19Z</time>
      </trkpt>
      <trkpt lat="43.65434" lon="3.52101">
        <ele>68.87</ele>
        <time>2011-10-02T16:50:20Z</time>
      </trkpt>
      <trkpt lat="43.6542" lon="3.521">
        <ele>68.39</ele>
        <time>2011-10-02T16:50:21Z</time>
      </trkpt>
      <trkpt lat="43.65406" lon="3.52097">
        <ele>68.39</ele>
        <time>2011-10-02T16:50:22Z</time>
      </trkpt>
      <trkpt lat="43.65394" lon="3.52093">
        <ele>67.91</ele>
        <time>2011-10-02T16:50:23Z</time>
      </trkpt>
      <trkpt lat="43.65372" lon="3.5209">
        <ele>67.91</ele>
        <time>2011-10-02T16:50:25Z</time>
      </trkpt>
      <trkpt lat="43.65363" lon="3.52092">
        <ele>67.91</ele>
        <time>2011-10-02T16:50:26Z</time>
      </trkpt>
      <trkpt lat="43.65356" lon="3.52096">
        <ele>67.43</ele>
        <time>2011-10-02T16:50:27Z</time>
      </trkpt>
      <trkpt lat="43.65351" lon="3.52102">
        <ele>67.43</ele>
        <time>2011-10-02T16:50:28Z</time>
      </trkpt>
      <trkpt lat="43.65346" lon="3.52108">
        <ele>67.43</ele>
        <time>2011-10-02T16:50:29Z</time>
      </trkpt>
      <trkpt lat="43.65341" lon="3.52115">
        <ele>67.43</ele>
        <time>2011-10-02T16:50:30Z</time>
      </trkpt>
      <trkpt lat="43.65334" lon="3.52121">
        <ele>67.43</ele>
        <time>2011-10-02T16:50:31Z</time>
      </trkpt>
      <trkpt lat="43.65327" lon="3.52125">
        <ele>67.43</ele>
        <time>2011-10-02T16:50:32Z</time>
      </trkpt>
      <trkpt lat="43.65319" lon="3.52129">
        <ele>67.43</ele>
        <time>2011-10-02T16:50:33Z</time>
      </trkpt>
      <trkpt lat="43.65312" lon="3.52136">
        <ele>67.43</ele>
        <time>2011-10-02T16:50:34Z</time>
      </trkpt>
      <trkpt lat="43.65307" lon="3.52145">
        <ele>67.43</ele>
        <time>2011-10-02T16:50:35Z</time>
      </trkpt>
      <trkpt lat="43.65302" lon="3.52156">
        <ele>66.95</ele>
        <time>2011-10-02T16:50:36Z</time>
      </trkpt>
      <trkpt lat="43.653" lon="3.52168">
        <ele>66.95</ele>
        <time>2011-10-02T16:50:37Z</time>
      </trkpt>
      <trkpt lat="43.65304" lon="3.52181">
        <ele>66.95</ele>
        <time>2011-10-02T16:50:38Z</time>
      </trkpt>
      <trkpt lat="43.65308" lon="3.52192">
        <ele>66.95</ele>
        <time>2011-10-02T16:50:39Z</time>
      </trkpt>
      <trkpt lat="43.65314" lon="3.52202">
        <ele>66.95</ele>
        <time>2011-10-02T16:50:40Z</time>
      </trkpt>
      <trkpt lat="43.65322" lon="3.52208">
        <ele>66.95</ele>
        <time>2011-10-02T16:50:41Z</time>
      </trkpt>
      <trkpt lat="43.65331" lon="3.5221">
        <ele>66.95</ele>
        <time>2011-10-02T16:50:42Z</time>
      </trkpt>
      <trkpt lat="43.65341" lon="3.5221">
        <ele>67.91</ele>
        <time>2011-10-02T16:50:43Z</time>
      </trkpt>
      <trkpt lat="43.65352" lon="3.52209">
        <ele>67.91</ele>
        <time>2011-10-02T16:50:44Z</time>
      </trkpt>
      <trkpt lat="43.65363" lon="3.52211">
        <ele>67.91</ele>
        <time>2011-10-02T16:50:45Z</time>
      </trkpt>
      <trkpt lat="43.65374" lon="3.52216">
        <ele>67.91</ele>
        <time>2011-10-02T16:50:46Z</time>
      </trkpt>
      <trkpt lat="43.65386" lon="3.52223">
        <ele>67.43</ele>
        <time>2011-10-02T16:50:47Z</time>
      </trkpt>
      <trkpt lat="43.65397" lon="3.52231">
        <ele>66.95</ele>
        <time>2011-10-02T16:50:48Z</time>
      </trkpt>
      <trkpt lat="43.65408" lon="3.5224">
        <ele>66.95</ele>
        <time>2011-10-02T16:50:49Z</time>
      </trkpt>
      <trkpt lat="43.65418" lon="3.52252">
        <ele>66.47</ele>
        <time>2011-10-02T16:50:50Z</time>
      </trkpt>
      <trkpt lat="43.65427" lon="3.52266">
        <ele>66.47</ele>
        <time>2011-10-02T16:50:51Z</time>
      </trkpt>
      <trkpt lat="43.65435" lon="3.52283">
        <ele>66.47</ele>
        <time>2011-10-02T16:50:52Z</time>
      </trkpt>
      <trkpt lat="43.6544" lon="3.52302">
        <ele>65.99</ele>
        <time>2011-10-02T16:50:53Z</time>
      </trkpt>
      <trkpt lat="43.65441" lon="3.52326">
        <ele>65.51</ele>
        <time>2011-10-02T16:50:54Z</time>
      </trkpt>
      <trkpt lat="43.6544" lon="3.52349">
        <ele>65.51</ele>
        <time>2011-10-02T16:50:55Z</time>
      </trkpt>
      <trkpt lat="43.65437" lon="3.52371">
        <ele>65.51</ele>
        <time>2011-10-02T16:50:56Z</time>
      </trkpt>
      <trkpt lat="43.65431" lon="3.52394">
        <ele>65.03</ele>
        <time>2011-10-02T16:50:57Z</time>
      </trkpt>
      <trkpt lat="43.65424" lon="3.52418">
        <ele>64.55</ele>
        <time>2011-10-02T16:50:58Z</time>
      </trkpt>
      <trkpt lat="43.65415" lon="3.52442">
        <ele>64.07</ele>
        <time>2011-10-02T16:50:59Z</time>
      </trkpt>
      <trkpt lat="43.65358" lon="3.526">
        <ele>61.18</ele>
        <time>2011-10-02T16:51:04Z</time>
      </trkpt>
      <trkpt lat="43.65262" lon="3.52936">
        <ele>58.78</ele>
        <time>2011-10-02T16:51:12Z</time>
      </trkpt>
      <trkpt lat="43.65205" lon="3.53298">
        <ele>53.97</ele>
        <time>2011-10-02T16:51:20Z</time>
      </trkpt>
      <trkpt lat="43.65136" lon="3.539">
        <ele>51.57</ele>
        <time>2011-10-02T16:51:32Z</time>
      </trkpt>
      <trkpt lat="43.6506" lon="3.54168">
        <ele>52.53</ele>
        <time>2011-10-02T16:51:38Z</time>
      </trkpt>
      <trkpt lat="43.6492" lon="3.54439">
        <ele>55.41</ele>
        <time>2011-10-02T16:51:45Z</time>
      </trkpt>
      <trkpt lat="43.64751" lon="3.54656">
        <ele>60.7</ele>
        <time>2011-10-02T16:51:52Z</time>
      </trkpt>
      <trkpt lat="43.64623" lon="3.54878">
        <ele>70.31</ele>
        <time>2011-10-02T16:51:59Z</time>
      </trkpt>
      <trkpt lat="43.64538" lon="3.55132">
        <ele>76.08</ele>
        <time>2011-10-02T16:52:05Z</time>
      </trkpt>
      <trkpt lat="43.64495" lon="3.55416">
        <ele>79.45</ele>
        <time>2011-10-02T16:52:11Z</time>
      </trkpt>
      <trkpt lat="43.64464" lon="3.55824">
        <ele>86.18</ele>
        <time>2011-10-02T16:52:20Z</time>
      </trkpt>
      <trkpt lat="43.64409" lon="3.56323">
        <ele>104.44</ele>
        <time>2011-10-02T16:52:32Z</time>
      </trkpt>
      <trkpt lat="43.64312" lon="3.56605">
        <ele>109.25</ele>
        <time>2011-10-02T16:52:39Z</time>
      </trkpt>
      <trkpt lat="43.64156" lon="3.57001">
        <ele>115.5</ele>
        <time>2011-10-02T16:52:49Z</time>
      </trkpt>
      <trkpt lat="43.64012" lon="3.5751">
        <ele>121.74</ele>
        <time>2011-10-02T16:53:01Z</time>
      </trkpt>
      <trkpt lat="43.63889" lon="3.57868">
        <ele>120.78</ele>
        <time>2011-10-02T16:53:10Z</time>
      </trkpt>
      <trkpt lat="43.63752" lon="3.58097">
        <ele>119.82</ele>
        <time>2011-10-02T16:53:17Z</time>
      </trkpt>
      <trkpt lat="43.63462" lon="3.5849">
        <ele>123.19</ele>
        <time>2011-10-02T16:53:31Z</time>
      </trkpt>
      <trkpt lat="43.63203" lon="3.58841">
        <ele>135.2</ele>
        <time>2011-10-02T16:53:43Z</time>
      </trkpt>
      <trkpt lat="43.62919" lon="3.59226">
        <ele>153.47</ele>
        <time>2011-10-02T16:53:55Z</time>
      </trkpt>
      <trkpt lat="43.62797" lon="3.59469">
        <ele>165.48</ele>
        <time>2011-10-02T16:54:02Z</time>
      </trkpt>
      <trkpt lat="43.62707" lon="3.59774">
        <ele>176.06</ele>
        <time>2011-10-02T16:54:10Z</time>
      </trkpt>
      <trkpt lat="43.62667" lon="3.60134">
        <ele>185.19</ele>
        <time>2011-10-02T16:54:19Z</time>
      </trkpt>
      <trkpt lat="43.6267" lon="3.60503">
        <ele>197.21</ele>
        <time>2011-10-02T16:54:28Z</time>
      </trkpt>
      <trkpt lat="43.62635" lon="3.60797">
        <ele>206.82</ele>
        <time>2011-10-02T16:54:35Z</time>
      </trkpt>
      <trkpt lat="43.62563" lon="3.61156">
        <ele>218.84</ele>
        <time>2011-10-02T16:54:44Z</time>
      </trkpt>
      <trkpt lat="43.62532" lon="3.61527">
        <ele>228.45</ele>
        <time>2011-10-02T16:54:53Z</time>
      </trkpt>
      <trkpt lat="43.62473" lon="3.61909">
        <ele>230.85</ele>
        <time>2011-10-02T16:55:02Z</time>
      </trkpt>
      <trkpt lat="43.62367" lon="3.62373">
        <ele>226.05</ele>
        <time>2011-10-02T16:55:13Z</time>
      </trkpt>
      <trkpt lat="43.6233" lon="3.62698">
        <ele>221.24</ele>
        <time>2011-10-02T16:55:21Z</time>
      </trkpt>
      <trkpt lat="43.62339" lon="3.63064">
        <ele>216.91</ele>
        <time>2011-10-02T16:55:30Z</time>
      </trkpt>
      <trkpt lat="43.62384" lon="3.63425">
        <ele>212.59</ele>
        <time>2011-10-02T16:55:38Z</time>
      </trkpt>
      <trkpt lat="43.62483" lon="3.64203">
        <ele>202.49</ele>
        <time>2011-10-02T16:55:55Z</time>
      </trkpt>
      <trkpt lat="43.62514" lon="3.64447">
        <ele>197.21</ele>
        <time>2011-10-02T16:56:02Z</time>
      </trkpt>
      <trkpt lat="43.62546" lon="3.64699">
        <ele>190</ele>
        <time>2011-10-02T16:56:08Z</time>
      </trkpt>
      <trkpt lat="43.62558" lon="3.65036">
        <ele>180.87</ele>
        <time>2011-10-02T16:56:15Z</time>
      </trkpt>
      <trkpt lat="43.62568" lon="3.65435">
        <ele>169.81</ele>
        <time>2011-10-02T16:56:23Z</time>
      </trkpt>
      <trkpt lat="43.62625" lon="3.6568">
        <ele>162.6</ele>
        <time>2011-10-02T16:56:28Z</time>
      </trkpt>
      <trkpt lat="43.6267" lon="3.65961">
        <ele>156.83</ele>
        <time>2011-10-02T16:56:34Z</time>
      </trkpt>
      <trkpt lat="43.62668" lon="3.66265">
        <ele>158.75</ele>
        <time>2011-10-02T16:56:40Z</time>
      </trkpt>
      <trkpt lat="43.62692" lon="3.66623">
        <ele>167.89</ele>
        <time>2011-10-02T16:56:47Z</time>
      </trkpt>
      <trkpt lat="43.62782" lon="3.67069">
        <ele>183.27</ele>
        <time>2011-10-02T16:56:56Z</time>
      </trkpt>
      <trkpt lat="43.6285" lon="3.67383">
        <ele>190</ele>
        <time>2011-10-02T16:57:03Z</time>
      </trkpt>
      <trkpt lat="43.62953" lon="3.6771">
        <ele>190</ele>
        <time>2011-10-02T16:57:11Z</time>
      </trkpt>
      <trkpt lat="43.63076" lon="3.68063">
        <ele>182.31</ele>
        <time>2011-10-02T16:57:20Z</time>
      </trkpt>
      <trkpt lat="43.63113" lon="3.68359">
        <ele>171.73</ele>
        <time>2011-10-02T16:57:27Z</time>
      </trkpt>
      <trkpt lat="43.63088" lon="3.68663">
        <ele>159.24</ele>
        <time>2011-10-02T16:57:34Z</time>
      </trkpt>
      <trkpt lat="43.62986" lon="3.69138">
        <ele>143.85</ele>
        <time>2011-10-02T16:57:45Z</time>
      </trkpt>
      <trkpt lat="43.62835" lon="3.69857">
        <ele>144.82</ele>
        <time>2011-10-02T16:58:02Z</time>
      </trkpt>
      <trkpt lat="43.62801" lon="3.70182">
        <ele>146.26</ele>
        <time>2011-10-02T16:58:09Z</time>
      </trkpt>
      <trkpt lat="43.62808" lon="3.70594">
        <ele>148.18</ele>
        <time>2011-10-02T16:58:17Z</time>
      </trkpt>
      <trkpt lat="43.62856" lon="3.70928">
        <ele>149.62</ele>
        <time>2011-10-02T16:58:23Z</time>
      </trkpt>
      <trkpt lat="43.62933" lon="3.71256">
        <ele>151.06</ele>
        <time>2011-10-02T16:58:30Z</time>
      </trkpt>
      <trkpt lat="43.63054" lon="3.71735">
        <ele>153.95</ele>
        <time>2011-10-02T16:58:40Z</time>
      </trkpt>
      <trkpt lat="43.63205" lon="3.72336">
        <ele>157.79</ele>
        <time>2011-10-02T16:58:51Z</time>
      </trkpt>
      <trkpt lat="43.63274" lon="3.72697">
        <ele>159.72</ele>
        <time>2011-10-02T16:58:58Z</time>
      </trkpt>
      <trkpt lat="43.63301" lon="3.73024">
        <ele>161.64</ele>
        <time>2011-10-02T16:59:05Z</time>
      </trkpt>
      <trkpt lat="43.6329" lon="3.73393">
        <ele>163.08</ele>
        <time>2011-10-02T16:59:12Z</time>
      </trkpt>
      <trkpt lat="43.6324" lon="3.74281">
        <ele>160.2</ele>
        <time>2011-10-02T16:59:28Z</time>
      </trkpt>
      <trkpt lat="43.63262" lon="3.74585">
        <ele>157.31</ele>
        <time>2011-10-02T16:59:34Z</time>
      </trkpt>
      <trkpt lat="43.63335" lon="3.74925">
        <ele>152.51</ele>
        <time>2011-10-02T16:59:41Z</time>
      </trkpt>
      <trkpt lat="43.63391" lon="3.75189">
        <ele>147.22</ele>
        <time>2011-10-02T16:59:47Z</time>
      </trkpt>
      <trkpt lat="43.63405" lon="3.75446">
        <ele>141.93</ele>
        <time>2011-10-02T16:59:53Z</time>
      </trkpt>
      <trkpt lat="43.6337" lon="3.75731">
        <ele>134.72</ele>
        <time>2011-10-02T17:00:00Z</time>
      </trkpt>
      <trkpt lat="43.63287" lon="3.75981">
        <ele>128.95</ele>
        <time>2011-10-02T17:00:07Z</time>
      </trkpt>
      <trkpt lat="43.63137" lon="3.76376">
        <ele>124.15</ele>
        <time>2011-10-02T17:00:18Z</time>
      </trkpt>
      <trkpt lat="43.63053" lon="3.76708">
        <ele>116.94</ele>
        <time>2011-10-02T17:00:27Z</time>
      </trkpt>
      <trkpt lat="43.62922" lon="3.77275">
        <ele>105.88</ele>
        <time>2011-10-02T17:00:43Z</time>
      </trkpt>
      <trkpt lat="43.62885" lon="3.77554">
        <ele>103.48</ele>
        <time>2011-10-02T17:00:50Z</time>
      </trkpt>
      <trkpt lat="43.62905" lon="3.77808">
        <ele>103.48</ele>
        <time>2011-10-02T17:00:56Z</time>
      </trkpt>
      <trkpt lat="43.6289" lon="3.78012">
        <ele>103</ele>
        <time>2011-10-02T17:01:01Z</time>
      </trkpt>
      <trkpt lat="43.6287" lon="3.78088">
        <ele>102.52</ele>
        <time>2011-10-02T17:01:03Z</time>
      </trkpt>
      <trkpt lat="43.62856" lon="3.78125">
        <ele>102.52</ele>
        <time>2011-10-02T17:01:04Z</time>
      </trkpt>
      <trkpt lat="43.6284" lon="3.7816">
        <ele>102.04</ele>
        <time>2011-10-02T17:01:05Z</time>
      </trkpt>
      <trkpt lat="43.62821" lon="3.78194">
        <ele>101.56</ele>
        <time>2011-10-02T17:01:06Z</time>
      </trkpt>
      <trkpt lat="43.628" lon="3.78227">
        <ele>101.08</ele>
        <time>2011-10-02T17:01:07Z</time>
      </trkpt>
      <trkpt lat="43.62577" lon="3.78544">
        <ele>95.31</ele>
        <time>2011-10-02T17:01:17Z</time>
      </trkpt>
      <trkpt lat="43.62309" lon="3.78886">
        <ele>85.69</ele>
        <time>2011-10-02T17:01:29Z</time>
      </trkpt>
      <trkpt lat="43.62189" lon="3.79004">
        <ele>81.37</ele>
        <time>2011-10-02T17:01:34Z</time>
      </trkpt>
      <trkpt lat="43.61959" lon="3.79195">
        <ele>74.16</ele>
        <time>2011-10-02T17:01:43Z</time>
      </trkpt>
      <trkpt lat="43.61843" lon="3.79336">
        <ele>71.27</ele>
        <time>2011-10-02T17:01:49Z</time>
      </trkpt>
      <trkpt lat="43.61687" lon="3.79644">
        <ele>63.1</ele>
        <time>2011-10-02T17:02:00Z</time>
      </trkpt>
      <trkpt lat="43.61552" lon="3.79851">
        <ele>65.03</ele>
        <time>2011-10-02T17:02:08Z</time>
      </trkpt>
      <trkpt lat="43.61397" lon="3.79961">
        <ele>65.99</ele>
        <time>2011-10-02T17:02:15Z</time>
      </trkpt>
      <trkpt lat="43.61212" lon="3.80101">
        <ele>59.74</ele>
        <time>2011-10-02T17:02:23Z</time>
      </trkpt>
      <trkpt lat="43.61104" lon="3.80251">
        <ele>52.53</ele>
        <time>2011-10-02T17:02:28Z</time>
      </trkpt>
      <trkpt lat="43.60886" lon="3.80528">
        <ele>41.47</ele>
        <time>2011-10-02T17:02:37Z</time>
      </trkpt>
      <trkpt lat="43.60793" lon="3.80694">
        <ele>39.07</ele>
        <time>2011-10-02T17:02:42Z</time>
      </trkpt>
      <trkpt lat="43.60702" lon="3.80949">
        <ele>37.15</ele>
        <time>2011-10-02T17:02:49Z</time>
      </trkpt>
      <trkpt lat="43.60576" lon="3.81176">
        <ele>35.71</ele>
        <time>2011-10-02T17:02:56Z</time>
      </trkpt>
      <trkpt lat="43.60529" lon="3.81315">
        <ele>34.74</ele>
        <time>2011-10-02T17:03:00Z</time>
      </trkpt>
      <trkpt lat="43.60523" lon="3.81353">
        <ele>34.26</ele>
        <time>2011-10-02T17:03:01Z</time>
      </trkpt>
      <trkpt lat="43.60519" lon="3.81392">
        <ele>34.26</ele>
        <time>2011-10-02T17:03:02Z</time>
      </trkpt>
      <trkpt lat="43.60518" lon="3.81431">
        <ele>33.78</ele>
        <time>2011-10-02T17:03:03Z</time>
      </trkpt>
      <trkpt lat="43.60518" lon="3.81469">
        <ele>33.78</ele>
        <time>2011-10-02T17:03:04Z</time>
      </trkpt>
      <trkpt lat="43.60522" lon="3.81508">
        <ele>33.78</ele>
        <time>2011-10-02T17:03:05Z</time>
      </trkpt>
      <trkpt lat="43.60528" lon="3.81545">
        <ele>33.3</ele>
        <time>2011-10-02T17:03:06Z</time>
      </trkpt>
      <trkpt lat="43.60536" lon="3.81581">
        <ele>33.3</ele>
        <time>2011-10-02T17:03:07Z</time>
      </trkpt>
      <trkpt lat="43.60547" lon="3.81616">
        <ele>33.3</ele>
        <time>2011-10-02T17:03:08Z</time>
      </trkpt>
      <trkpt lat="43.60559" lon="3.81651">
        <ele>33.78</ele>
        <time>2011-10-02T17:03:09Z</time>
      </trkpt>
      <trkpt lat="43.60573" lon="3.81684">
        <ele>33.78</ele>
        <time>2011-10-02T17:03:10Z</time>
      </trkpt>
      <trkpt lat="43.60588" lon="3.81716">
        <ele>34.26</ele>
        <time>2011-10-02T17:03:11Z</time>
      </trkpt>
      <trkpt lat="43.6077" lon="3.82055">
        <ele>35.23</ele>
        <time>2011-10-02T17:03:22Z</time>
      </trkpt>
      <trkpt lat="43.60908" lon="3.82206">
        <ele>36.19</ele>
        <time>2011-10-02T17:03:29Z</time>
      </trkpt>
      <trkpt lat="43.61041" lon="3.8227">
        <ele>38.11</ele>
        <time>2011-10-02T17:03:35Z</time>
      </trkpt>
      <trkpt lat="43.61185" lon="3.82293">
        <ele>38.59</ele>
        <time>2011-10-02T17:03:42Z</time>
      </trkpt>
      <trkpt lat="43.61222" lon="3.82309">
        <ele>38.59</ele>
        <time>2011-10-02T17:03:44Z</time>
      </trkpt>
      <trkpt lat="43.61238" lon="3.82321">
        <ele>38.59</ele>
        <time>2011-10-02T17:03:45Z</time>
      </trkpt>
      <trkpt lat="43.61253" lon="3.82333">
        <ele>39.07</ele>
        <time>2011-10-02T17:03:46Z</time>
      </trkpt>
      <trkpt lat="43.613" lon="3.82392">
        <ele>41.47</ele>
        <time>2011-10-02T17:03:50Z</time>
      </trkpt>
      <trkpt lat="43.61296" lon="3.82413">
        <ele>42.44</ele>
        <time>2011-10-02T17:03:51Z</time>
      </trkpt>
      <trkpt lat="43.61292" lon="3.8243">
        <ele>43.4</ele>
        <time>2011-10-02T17:03:52Z</time>
      </trkpt>
      <trkpt lat="43.61286" lon="3.82446">
        <ele>43.88</ele>
        <time>2011-10-02T17:03:53Z</time>
      </trkpt>
      <trkpt lat="43.61278" lon="3.8246">
        <ele>44.36</ele>
        <time>2011-10-02T17:03:54Z</time>
      </trkpt>
      <trkpt lat="43.61267" lon="3.82471">
        <ele>45.32</ele>
        <time>2011-10-02T17:03:55Z</time>
      </trkpt>
      <trkpt lat="43.61255" lon="3.82476">
        <ele>46.28</ele>
        <time>2011-10-02T17:03:56Z</time>
      </trkpt>
      <trkpt lat="43.61244" lon="3.82476">
        <ele>46.76</ele>
        <time>2011-10-02T17:03:57Z</time>
      </trkpt>
      <trkpt lat="43.61234" lon="3.82471">
        <ele>47.24</ele>
        <time>2011-10-02T17:03:58Z</time>
      </trkpt>
      <trkpt lat="43.61227" lon="3.82462">
        <ele>47.72</ele>
        <time>2011-10-02T17:03:59Z</time>
      </trkpt>
      <trkpt lat="43.61222" lon="3.8245">
        <ele>48.68</ele>
        <time>2011-10-02T17:04:00Z</time>
      </trkpt>
      <trkpt lat="43.61222" lon="3.82435">
        <ele>48.68</ele>
        <time>2011-10-02T17:04:01Z</time>
      </trkpt>
      <trkpt lat="43.61225" lon="3.82419">
        <ele>49.16</ele>
        <time>2011-10-02T17:04:02Z</time>
      </trkpt>
      <trkpt lat="43.61231" lon="3.82401">
        <ele>49.16</ele>
        <time>2011-10-02T17:04:03Z</time>
      </trkpt>
      <trkpt lat="43.61239" lon="3.82383">
        <ele>48.68</ele>
        <time>2011-10-02T17:04:04Z</time>
      </trkpt>
      <trkpt lat="43.61247" lon="3.82366">
        <ele>47.72</ele>
        <time>2011-10-02T17:04:05Z</time>
      </trkpt>
      <trkpt lat="43.61256" lon="3.8235">
        <ele>47.24</ele>
        <time>2011-10-02T17:04:06Z</time>
      </trkpt>
      <trkpt lat="43.61336" lon="3.82248">
        <ele>43.4</ele>
        <time>2011-10-02T17:04:13Z</time>
      </trkpt>
      <trkpt lat="43.61474" lon="3.82146">
        <ele>47.24</ele>
        <time>2011-10-02T17:04:20Z</time>
      </trkpt>
      <trkpt lat="43.61656" lon="3.82025">
        <ele>47.72</ele>
        <time>2011-10-02T17:04:30Z</time>
      </trkpt>
      <trkpt lat="43.61674" lon="3.8202">
        <ele>47.72</ele>
        <time>2011-10-02T17:04:31Z</time>
      </trkpt>
      <trkpt lat="43.61692" lon="3.82018">
        <ele>47.24</ele>
        <time>2011-10-02T17:04:32Z</time>
      </trkpt>
      <trkpt lat="43.61711" lon="3.8202">
        <ele>46.76</ele>
        <time>2011-10-02T17:04:33Z</time>
      </trkpt>
      <trkpt lat="43.61729" lon="3.82025">
        <ele>46.76</ele>
        <time>2011-10-02T17:04:34Z</time>
      </trkpt>
      <trkpt lat="43.61748" lon="3.82035">
        <ele>46.76</ele>
        <time>2011-10-02T17:04:35Z</time>
      </trkpt>
      <trkpt lat="43.61768" lon="3.82049">
        <ele>46.76</ele>
        <time>2011-10-02T17:04:36Z</time>
      </trkpt>
      <trkpt lat="43.61788" lon="3.82065">
        <ele>46.28</ele>
        <time>2011-10-02T17:04:37Z</time>
      </trkpt>
      <trkpt lat="43.61997" lon="3.82227">
        <ele>48.68</ele>
        <time>2011-10-02T17:04:47Z</time>
      </trkpt>
      <trkpt lat="43.62097" lon="3.82268">
        <ele>50.13</ele>
        <time>2011-10-02T17:04:53Z</time>
      </trkpt>
      <trkpt lat="43.62181" lon="3.82285">
        <ele>49.16</ele>
        <time>2011-10-02T17:05:00Z</time>
      </trkpt>
      <trkpt lat="43.6219" lon="3.82289">
        <ele>49.16</ele>
        <time>2011-10-02T17:05:01Z</time>
      </trkpt>
      <trkpt lat="43.62199" lon="3.82295">
        <ele>49.65</ele>
        <time>2011-10-02T17:05:02Z</time>
      </trkpt>
      <trkpt lat="43.62207" lon="3.823">
        <ele>49.65</ele>
        <time>2011-10-02T17:05:03Z</time>
      </trkpt>
      <trkpt lat="43.62216" lon="3.82302">
        <ele>50.13</ele>
        <time>2011-10-02T17:05:04Z</time>
      </trkpt>
      <trkpt lat="43.62224" lon="3.823">
        <ele>50.13</ele>
        <time>2011-10-02T17:05:05Z</time>
      </trkpt>
      <trkpt lat="43.62234" lon="3.82298">
        <ele>50.13</ele>
        <time>2011-10-02T17:05:06Z</time>
      </trkpt>
      <trkpt lat="43.62243" lon="3.82299">
        <ele>50.13</ele>
        <time>2011-10-02T17:05:07Z</time>
      </trkpt>
      <trkpt lat="43.62252" lon="3.82302">
        <ele>50.13</ele>
        <time>2011-10-02T17:05:08Z</time>
      </trkpt>
      <trkpt lat="43.62262" lon="3.82309">
        <ele>50.61</ele>
        <time>2011-10-02T17:05:09Z</time>
      </trkpt>
      <trkpt lat="43.62272" lon="3.82319">
        <ele>50.61</ele>
        <time>2011-10-02T17:05:10Z</time>
      </trkpt>
      <trkpt lat="43.62282" lon="3.82331">
        <ele>51.57</ele>
        <time>2011-10-02T17:05:11Z</time>
      </trkpt>
      <trkpt lat="43.62292" lon="3.82344">
        <ele>52.05</ele>
        <time>2011-10-02T17:05:12Z</time>
      </trkpt>
      <trkpt lat="43.62393" lon="3.82491">
        <ele>57.34</ele>
        <time>2011-10-02T17:05:23Z</time>
      </trkpt>
      <trkpt lat="43.6241" lon="3.82517">
        <ele>57.34</ele>
        <time>2011-10-02T17:05:29Z</time>
      </trkpt>
      <trkpt lat="43.62433" lon="3.82556">
        <ele>56.86</ele>
        <time>2011-10-02T17:05:40Z</time>
      </trkpt>
      <trkpt lat="43.62455" lon="3.82628">
        <ele>58.3</ele>
        <time>2011-10-02T17:05:51Z</time>
      </trkpt>
      <trkpt lat="43.62454" lon="3.82641">
        <ele>58.78</ele>
        <time>2011-10-02T17:05:54Z</time>
      </trkpt>
      <trkpt lat="43.62452" lon="3.82649">
        <ele>58.78</ele>
        <time>2011-10-02T17:05:55Z</time>
      </trkpt>
      <trkpt lat="43.62452" lon="3.82657">
        <ele>59.26</ele>
        <time>2011-10-02T17:05:56Z</time>
      </trkpt>
      <trkpt lat="43.62454" lon="3.82666">
        <ele>59.26</ele>
        <time>2011-10-02T17:05:57Z</time>
      </trkpt>
      <trkpt lat="43.62459" lon="3.82674">
        <ele>59.74</ele>
        <time>2011-10-02T17:05:58Z</time>
      </trkpt>
      <trkpt lat="43.62464" lon="3.82682">
        <ele>59.74</ele>
        <time>2011-10-02T17:05:59Z</time>
      </trkpt>
      <trkpt lat="43.62469" lon="3.82692">
        <ele>59.74</ele>
        <time>2011-10-02T17:06:00Z</time>
      </trkpt>
      <trkpt lat="43.62473" lon="3.82704">
        <ele>59.74</ele>
        <time>2011-10-02T17:06:01Z</time>
      </trkpt>
      <trkpt lat="43.62473" lon="3.82721">
        <ele>59.74</ele>
        <time>2011-10-02T17:06:02Z</time>
      </trkpt>
      <trkpt lat="43.6247" lon="3.82739">
        <ele>60.22</ele>
        <time>2011-10-02T17:06:03Z</time>
      </trkpt>
      <trkpt lat="43.62464" lon="3.82758">
        <ele>60.7</ele>
        <time>2011-10-02T17:06:04Z</time>
      </trkpt>
      <trkpt lat="43.62456" lon="3.82778">
        <ele>61.18</ele>
        <time>2011-10-02T17:06:05Z</time>
      </trkpt>
      <trkpt lat="43.62445" lon="3.828">
        <ele>61.66</ele>
        <time>2011-10-02T17:06:06Z</time>
      </trkpt>
      <trkpt lat="43.62433" lon="3.82822">
        <ele>62.14</ele>
        <time>2011-10-02T17:06:07Z</time>
      </trkpt>
      <trkpt lat="43.62362" lon="3.82989">
        <ele>65.03</ele>
        <time>2011-10-02T17:06:14Z</time>
      </trkpt>
      <trkpt lat="43.62302" lon="3.83204">
        <ele>68.39</ele>
        <time>2011-10-02T17:06:23Z</time>
      </trkpt>
      <trkpt lat="43.623" lon="3.83226">
        <ele>68.39</ele>
        <time>2011-10-02T17:06:24Z</time>
      </trkpt>
      <trkpt lat="43.62299" lon="3.83246">
        <ele>68.87</ele>
        <time>2011-10-02T17:06:25Z</time>
      </trkpt>
      <trkpt lat="43.623" lon="3.83265">
        <ele>68.87</ele>
        <time>2011-10-02T17:06:26Z</time>
      </trkpt>
      <trkpt lat="43.62301" lon="3.83282">
        <ele>69.35</ele>
        <time>2011-10-02T17:06:27Z</time>
      </trkpt>
      <trkpt lat="43.62302" lon="3.83322">
        <ele>70.79</ele>
        <time>2011-10-02T17:06:30Z</time>
      </trkpt>
      <trkpt lat="43.62299" lon="3.83333">
        <ele>71.27</ele>
        <time>2011-10-02T17:06:31Z</time>
      </trkpt>
      <trkpt lat="43.62295" lon="3.83346">
        <ele>71.76</ele>
        <time>2011-10-02T17:06:32Z</time>
      </trkpt>
      <trkpt lat="43.6229" lon="3.83359">
        <ele>72.24</ele>
        <time>2011-10-02T17:06:33Z</time>
      </trkpt>
      <trkpt lat="43.62288" lon="3.83373">
        <ele>72.72</ele>
        <time>2011-10-02T17:06:34Z</time>
      </trkpt>
      <trkpt lat="43.62291" lon="3.83384">
        <ele>73.2</ele>
        <time>2011-10-02T17:06:35Z</time>
      </trkpt>
      <trkpt lat="43.62295" lon="3.83395">
        <ele>73.68</ele>
        <time>2011-10-02T17:06:36Z</time>
      </trkpt>
      <trkpt lat="43.62312" lon="3.83408">
        <ele>74.16</ele>
        <time>2011-10-02T17:06:38Z</time>
      </trkpt>
      <trkpt lat="43.62322" lon="3.83409">
        <ele>74.16</ele>
        <time>2011-10-02T17:06:39Z</time>
      </trkpt>
      <trkpt lat="43.62374" lon="3.83404">
        <ele>72.72</ele>
        <time>2011-10-02T17:06:44Z</time>
      </trkpt>
      <trkpt lat="43.62387" lon="3.83411">
        <ele>72.72</ele>
        <time>2011-10-02T17:06:45Z</time>
      </trkpt>
      <trkpt lat="43.62455" lon="3.8347">
        <ele>72.24</ele>
        <time>2011-10-02T17:06:50Z</time>
      </trkpt>
      <trkpt lat="43.62467" lon="3.83487">
        <ele>72.24</ele>
        <time>2011-10-02T17:06:51Z</time>
      </trkpt>
      <trkpt lat="43.62477" lon="3.83503">
        <ele>72.24</ele>
        <time>2011-10-02T17:06:52Z</time>
      </trkpt>
      <trkpt lat="43.62484" lon="3.83517">
        <ele>72.24</ele>
        <time>2011-10-02T17:06:53Z</time>
      </trkpt>
      <trkpt lat="43.62496" lon="3.83548">
        <ele>72.24</ele>
        <time>2011-10-02T17:06:56Z</time>
      </trkpt>
      <trkpt lat="43.62498" lon="3.83581">
        <ele>71.76</ele>
        <time>2011-10-02T17:07:04Z</time>
      </trkpt>
      <trkpt lat="43.6248" lon="3.8361">
        <ele>71.76</ele>
        <time>2011-10-02T17:07:11Z</time>
      </trkpt>
      <trkpt lat="43.62476" lon="3.83621">
        <ele>71.76</ele>
        <time>2011-10-02T17:07:12Z</time>
      </trkpt>
      <trkpt lat="43.62473" lon="3.83631">
        <ele>71.27</ele>
        <time>2011-10-02T17:07:13Z</time>
      </trkpt>
      <trkpt lat="43.62469" lon="3.8364">
        <ele>71.27</ele>
        <time>2011-10-02T17:07:14Z</time>
      </trkpt>
      <trkpt lat="43.62463" lon="3.83646">
        <ele>71.27</ele>
        <time>2011-10-02T17:07:15Z</time>
      </trkpt>
      <trkpt lat="43.62456" lon="3.8365">
        <ele>71.76</ele>
        <time>2011-10-02T17:07:16Z</time>
      </trkpt>
      <trkpt lat="43.62449" lon="3.83651">
        <ele>71.76</ele>
        <time>2011-10-02T17:07:17Z</time>
      </trkpt>
      <trkpt lat="43.62443" lon="3.83652">
        <ele>72.24</ele>
        <time>2011-10-02T17:07:18Z</time>
      </trkpt>
      <trkpt lat="43.62438" lon="3.83652">
        <ele>72.72</ele>
        <time>2011-10-02T17:07:19Z</time>
      </trkpt>
      <trkpt lat="43.62432" lon="3.83651">
        <ele>72.72</ele>
        <time>2011-10-02T17:07:20Z</time>
      </trkpt>
      <trkpt lat="43.62426" lon="3.83651">
        <ele>73.2</ele>
        <time>2011-10-02T17:07:21Z</time>
      </trkpt>
      <trkpt lat="43.62421" lon="3.83654">
        <ele>73.2</ele>
        <time>2011-10-02T17:07:22Z</time>
      </trkpt>
      <trkpt lat="43.62416" lon="3.83658">
        <ele>73.2</ele>
        <time>2011-10-02T17:07:23Z</time>
      </trkpt>
      <trkpt lat="43.62413" lon="3.83662">
        <ele>73.68</ele>
        <time>2011-10-02T17:07:24Z</time>
      </trkpt>
      <trkpt lat="43.62412" lon="3.83665">
        <ele>73.68</ele>
        <time>2011-10-02T17:07:25Z</time>
      </trkpt>
      <trkpt lat="43.6241" lon="3.83674">
        <ele>73.68</ele>
        <time>2011-10-02T17:07:36Z</time>
      </trkpt>
      <trkpt lat="43.62418" lon="3.83694">
        <ele>73.68</ele>
        <time>2011-10-02T17:07:41Z</time>
      </trkpt>
      <trkpt lat="43.62425" lon="3.83702">
        <ele>73.2</ele>
        <time>2011-10-02T17:07:43Z</time>
      </trkpt>
      <trkpt lat="43.62428" lon="3.83709">
        <ele>73.2</ele>
        <time>2011-10-02T17:07:44Z</time>
      </trkpt>
      <trkpt lat="43.62431" lon="3.83718">
        <ele>73.2</ele>
        <time>2011-10-02T17:07:45Z</time>
      </trkpt>
      <trkpt lat="43.62441" lon="3.83761">
        <ele>73.2</ele>
        <time>2011-10-02T17:07:49Z</time>
      </trkpt>
      <trkpt lat="43.6244" lon="3.8377">
        <ele>73.2</ele>
        <time>2011-10-02T17:07:50Z</time>
      </trkpt>
      <trkpt lat="43.62438" lon="3.83777">
        <ele>73.68</ele>
        <time>2011-10-02T17:07:51Z</time>
      </trkpt>
      <trkpt lat="43.62435" lon="3.83783">
        <ele>73.68</ele>
        <time>2011-10-02T17:07:52Z</time>
      </trkpt>
      <trkpt lat="43.62433" lon="3.83793">
        <ele>75.6</ele>
        <time>2011-10-02T17:07:56Z</time>
      </trkpt>
      <trkpt lat="43.62438" lon="3.83797">
        <ele>78.97</ele>
        <time>2011-10-02T17:08:11Z</time>
      </trkpt>
    </trkseg>
  </trk>
</gpx>